[[{"header":{"parameterUnit":"m.s-1","parameterCategory":1,"la1":31.0,"la2":29.5877,"lo1":-88.7671,"lo2":-86.6584,"dy":0.0162,"dx":0.0185,"nx":115,"ny":88,"refTime":"2024-02-16T18:00:00:Z","depth":0,"parameterNumber":2,"parameterNumberName":"U-component_of_WINDS"},"data":[0.0,0.0,0.0,0.0,0.0,0.0,0.0,0.0,0.0,0.0,0.0,0.0,0.0,0.0,0.0,0.0,0.0,0.0,0.0,0.0,0.0,0.0,0.0,0.0,0.0,0.0,0.0,0.0,0.0,0.0,0.0,0.0,0.0,0.0,0.0,0.0,0.0,0.0,0.0,0.0,0.0,0.0,0.0,0.0,0.0,0.0,0.0,0.0,0.0,0.0,0.0,0.0,0.0,0.0,0.0,0.0,0.0,0.0,0.0,0.0,0.0,0.0,0.0,0.0,0.0,0.0,0.0,0.0,0.0,0.0,0.0,0.0,0.0,0.0,0.0,0.0,0.0,0.0,0.0,0.0,0.0,0.0,0.0,0.0,0.0,0.0,0.0,0.0,0.0,0.0,0.0,0.0,0.0,0.0,0.0,0.0,0.0,0.0,0.0,0.0,0.0,0.0,0.0,0.0,0.0,0.0,0.0,0.0,0.0,0.0,0.0,0.0,0.0,0.0,0.0,0.0,0.0,0.0,0.0,0.0,0.0,0.0,0.0,0.0,0.0,0.0,0.0,0.0,0.0,0.0,0.0,0.0,0.0,0.0,0.0,0.0,0.0,0.0,0.0,0.0,0.0,0.0,0.0,0.0,0.0,0.0,0.0,0.0,0.0,0.0,0.0,0.0,0.0,0.0,0.0,0.0,0.0,0.0,0.0,0.0,0.0,0.0,0.0,0.0,0.0,0.0,0.0,0.0,0.0,0.0,0.0,0.0,0.0,0.0,0.0,0.0,0.0,0.0,0.0,0.0,0.0,0.0,0.0,0.0,0.0,0.0,0.0,0.0,0.0,0.0,0.0,0.0,0.0,0.0,0.0,0.0,0.0,0.0,0.0,0.0,0.0,0.0,0.0,0.0,0.0,0.0,0.0,0.0,0.0,0.0,0.0,0.0,0.0,0.0,0.0,0.0,0.0,0.0,0.0,0.0,0.0,0.0,0.0,0.0,0.0,0.0,0.0,0.0,0.0,0.0,0.0,0.0,0.0,0.0,0.0,0.0,0.0,0.0,0.0,0.0,0.0,0.0,0.0,0.0,0.0,0.0,0.0,0.0,0.0,0.0,0.0,0.0,0.0,0.0,0.0,0.0,0.0,0.0,0.0,0.0,0.0,0.0,0.0,0.0,0.0,0.0,0.0,0.0,0.0,0.0,0.0,0.0,0.0,0.0,0.0,0.0,0.0,0.0,0.0,0.0,0.0,0.0,0.0,0.0,0.0,0.0,0.0,0.0,0.0,0.0,0.0,0.0,0.0,0.0,0.0,0.0,0.0,0.0,0.0,0.0,0.0,0.0,0.0,0.0,0.0,0.0,0.0,0.0,0.0,0.0,0.0,0.0,0.0,0.0,0.0,0.0,0.0,0.0,0.0,0.0,0.0,0.0,0.0,0.0,0.0,0.0,0.0,0.0,0.0,0.0,0.0,0.0,0.0,0.0,0.0,0.0,0.0,0.0,0.0,0.0,0.0,0.0,0.0,0.0,0.0,0.0,0.0,0.0,0.0,0.0,0.0,0.0,0.0,0.0,0.0,0.0,0.0,0.0,0.0,0.0,0.0,0.0,0.0,0.0,0.0,0.0,0.0,0.0,0.0,0.0,0.0,0.0,0.0,0.0,0.0,0.0,0.0,0.0,0.0,0.0,0.0,0.0,0.0,0.0,0.0,0.0,0.0,0.0,0.0,0.0,0.0,0.0,0.0,0.0,0.0,0.0,0.0,0.0,0.0,0.0,0.0,0.0,0.0,0.0,0.0,0.0,0.0,0.0,0.0,0.0,0.0,0.0,0.0,0.0,0.0,0.0,0.0,0.0,0.0,0.0,0.0,0.0,0.0,0.0,0.0,0.0,0.0,0.0,0.0,0.0,0.0,0.0,0.0,0.0,0.0,0.0,0.0,0.0,0.0,0.0,0.0,0.0,0.0,0.0,0.0,0.0,0.0,0.0,0.0,0.0,0.0,0.0,0.0,0.0,0.0,0.0,0.0,0.0,0.0,0.0,0.0,0.0,0.0,0.0,0.0,0.0,0.0,0.0,0.0,0.0,0.0,0.0,0.0,0.0,0.0,0.0,0.0,0.0,0.0,0.0,0.0,0.0,0.0,0.0,0.0,0.0,0.0,0.0,0.0,0.0,0.0,0.0,0.0,0.0,0.0,0.0,0.0,0.0,0.0,0.0,0.0,0.0,0.0,0.0,0.0,0.0,0.0,0.0,0.0,0.0,0.0,0.0,0.0,0.0,0.0,0.0,0.0,0.0,0.0,0.0,0.0,0.0,0.0,0.0,0.0,0.0,0.0,0.0,0.0,0.0,0.0,0.0,0.0,0.0,0.0,0.0,0.0,0.0,0.0,0.0,0.0,0.0,0.0,0.0,0.0,0.0,0.0,0.0,0.0,0.0,0.0,0.0,0.0,0.0,0.0,0.0,0.0,0.0,0.0,0.0,0.0,0.0,0.0,0.0,0.0,0.0,0.0,0.0,0.0,0.0,0.0,0.0,0.0,0.0,0.0,0.0,0.0,0.0,0.0,0.0,0.0,0.0,0.0,0.0,0.0,0.0,0.0,0.0,0.0,0.0,0.0,0.0,0.0,0.0,0.0,0.0,0.0,0.0,0.0,0.0,0.0,0.0,0.0,0.0,0.0,0.0,0.0,0.0,0.0,0.0,0.0,0.0,0.0,0.0,0.0,0.0,0.0,0.0,0.0,0.0,0.0,0.0,0.0,0.0,0.0,0.0,0.0,0.0,0.0,0.0,0.0,0.0,0.0,0.0,0.0,0.0,0.0,0.0,0.0,0.0,0.0,0.0,0.0,0.0,0.0,0.0,0.0,0.0,0.0,0.0,0.0,0.0,0.0,0.0,0.0,0.0,0.0,0.0,0.0,0.0,0.0,0.0,0.0,0.0,0.0,0.0,0.0,0.0,0.0,0.0,0.0,0.0,0.0,0.0,0.0,0.0,0.0,0.0,0.0,0.0,0.0,0.0,0.0,0.0,0.0,0.0,0.0,0.0,0.0,0.0,0.0,0.0,0.0,0.0,0.0,0.0,0.0,0.0,0.0,0.0,0.0,0.0,0.0,0.0,0.0,0.0,0.0,0.0,0.0,0.0,0.0,0.0,0.0,0.0,0.0,0.0,0.0,0.0,0.0,0.0,0.0,0.0,0.0,0.0,0.0,0.0,0.0,0.0,0.0,0.0,0.0,0.0,0.0,0.0,0.0,0.0,0.0,0.0,0.0,0.0,0.0,0.0,0.0,0.0,0.0,0.0,0.0,0.0,0.0,0.0,0.0,0.0,0.0,0.0,0.0,0.0,0.0,0.0,0.0,0.0,0.0,0.0,0.0,0.0,0.0,0.0,0.0,0.0,0.0,0.0,0.0,0.0,0.0,0.0,0.0,0.0,0.0,0.0,0.0,0.0,0.0,0.0,0.0,0.0,0.0,0.0,0.0,0.0,0.0,0.0,0.0,0.0,0.0,0.0,0.0,0.0,0.0,0.0,0.0,0.0,0.0,0.0,0.0,0.0,0.0,0.0,0.0,0.0,0.0,0.0,0.0,0.0,0.0,0.0,0.0,0.0,0.0,0.0,0.0,0.0,0.0,0.0,0.0,0.0,0.0,0.0,0.0,0.0,0.0,0.0,0.0,0.0,0.0,0.0,0.0,0.0,0.0,0.0,0.0,0.0,0.0,0.0,0.0,0.0,0.0,0.0,0.0,0.0,0.0,0.0,0.0,0.0,0.0,0.0,0.0,0.0,0.0,0.0,0.0,0.0,0.0,0.0,0.0,0.0,0.0,0.0,0.0,0.0,0.0,0.0,0.0,0.0,0.0,0.0,0.0,0.0,0.0,0.0,0.0,0.0,0.0,0.0,0.0,0.0,0.0,0.0,0.0,0.0,0.0,0.0,0.0,0.0,0.0,0.0,0.0,0.0,0.0,0.0,0.0,0.0,0.0,0.0,0.0,0.0,0.0,0.0,0.0,0.0,0.0,0.0,0.0,0.0,0.0,0.0,0.0,0.0,0.0,0.0,0.0,0.0,0.0,0.0,0.0,0.0,0.0,0.0,0.0,0.0,0.0,0.0,0.0,0.0,0.0,0.0,0.0,0.0,0.0,0.0,0.0,0.0,0.0,0.0,0.0,0.0,0.0,0.0,0.0,0.0,0.0,0.0,0.0,0.0,0.0,0.0,0.0,0.0,0.0,0.0,0.0,0.0,0.0,0.0,0.0,0.0,0.0,0.0,4.4784,0.0,0.0,0.0,0.0,0.0,0.0,0.0,0.0,0.0,0.0,0.0,0.0,0.0,0.0,0.0,0.0,0.0,0.0,0.0,0.0,0.0,0.0,0.0,0.0,0.0,0.0,0.0,0.0,0.0,0.0,0.0,0.0,0.0,0.0,0.0,0.0,0.0,0.0,0.0,0.0,0.0,0.0,0.0,0.0,0.0,0.0,0.0,0.0,0.0,0.0,0.0,0.0,0.0,0.0,0.0,0.0,0.0,0.0,0.0,0.0,0.0,0.0,0.0,0.0,0.0,0.0,0.0,0.0,0.0,0.0,0.0,0.0,0.0,0.0,0.0,0.0,0.0,0.0,0.0,0.0,0.0,0.0,0.0,0.0,0.0,0.0,0.0,0.0,0.0,0.0,0.0,0.0,0.0,0.0,0.0,0.0,0.0,0.0,0.0,0.0,0.0,0.0,0.0,0.0,0.0,0.0,0.0,0.0,0.0,0.0,4.6024,4.607,4.6135,4.5768,4.4934,0.0,0.0,0.0,0.0,0.0,0.0,0.0,0.0,0.0,0.0,0.0,0.0,0.0,0.0,0.0,0.0,0.0,0.0,0.0,0.0,0.0,0.0,0.0,0.0,0.0,0.0,0.0,0.0,0.0,0.0,0.0,0.0,0.0,0.0,0.0,0.0,0.0,0.0,0.0,0.0,0.0,0.0,0.0,0.0,0.0,0.0,0.0,0.0,0.0,0.0,0.0,0.0,0.0,0.0,0.0,0.0,0.0,0.0,0.0,0.0,0.0,0.0,0.0,0.0,0.0,0.0,0.0,0.0,0.0,0.0,0.0,0.0,0.0,0.0,0.0,0.0,0.0,0.0,0.0,0.0,0.0,0.0,0.0,0.0,0.0,0.0,0.0,0.0,0.0,0.0,0.0,0.0,0.0,0.0,0.0,0.0,0.0,0.0,0.0,0.0,0.0,0.0,0.0,0.0,0.0,0.0,0.0,0.0,0.0,0.0,0.0,0.0,4.607,4.5675,4.4882,0.0,0.0,0.0,0.0,0.0,0.0,0.0,0.0,0.0,0.0,0.0,0.0,0.0,0.0,0.0,0.0,0.0,0.0,0.0,0.0,0.0,0.0,0.0,0.0,0.0,0.0,0.0,0.0,0.0,0.0,0.0,0.0,0.0,0.0,0.0,0.0,0.0,0.0,0.0,0.0,0.0,0.0,0.0,0.0,0.0,0.0,0.0,0.0,0.0,0.0,0.0,0.0,0.0,0.0,0.0,0.0,0.0,0.0,0.0,0.0,0.0,0.0,0.0,0.0,0.0,0.0,0.0,0.0,0.0,0.0,0.0,0.0,0.0,0.0,0.0,0.0,0.0,0.0,0.0,0.0,0.0,0.0,0.0,0.0,0.0,0.0,0.0,0.0,0.0,0.0,0.0,0.0,0.0,0.0,0.0,0.0,0.0,0.0,0.0,0.0,0.0,0.0,0.0,0.0,0.0,0.0,0.0,0.0,0.0,0.0,4.5872,4.5996,4.6006,0.0,4.4835,0.0,0.0,0.0,0.0,0.0,0.0,0.0,0.0,0.0,0.0,0.0,0.0,0.0,0.0,0.0,0.0,0.0,0.0,0.0,0.0,0.0,0.0,0.0,0.0,0.0,0.0,0.0,0.0,0.0,0.0,0.0,0.0,0.0,0.0,0.0,0.0,0.0,0.0,0.0,0.0,0.0,0.0,0.0,0.0,0.0,0.0,0.0,0.0,0.0,0.0,0.0,0.0,0.0,0.0,0.0,0.0,0.0,0.0,0.0,0.0,0.0,0.0,0.0,0.0,0.0,0.0,0.0,0.0,0.0,0.0,0.0,0.0,0.0,0.0,0.0,0.0,0.0,0.0,0.0,0.0,0.0,0.0,0.0,0.0,0.0,0.0,0.0,0.0,0.0,0.0,0.0,0.0,0.0,0.0,0.0,0.0,0.0,0.0,0.0,0.0,0.0,0.0,0.0,0.0,0.0,0.0,0.0,0.0,0.0,0.0,4.5827,4.587,4.591,4.5321,0.0,0.0,0.0,0.0,0.0,0.0,0.0,0.0,0.0,0.0,0.0,0.0,0.0,0.0,0.0,0.0,0.0,0.0,0.0,0.0,0.0,0.0,0.0,0.0,0.0,0.0,0.0,0.0,0.0,0.0,0.0,0.0,0.0,0.0,0.0,0.0,0.0,0.0,0.0,0.0,0.0,0.0,0.0,0.0,0.0,0.0,0.0,0.0,0.0,0.0,0.0,0.0,0.0,0.0,0.0,0.0,0.0,0.0,0.0,0.0,0.0,0.0,0.0,0.0,0.0,0.0,0.0,0.0,0.0,0.0,0.0,0.0,0.0,0.0,0.0,0.0,0.0,0.0,0.0,0.0,0.0,0.0,0.0,0.0,0.0,0.0,0.0,0.0,0.0,0.0,0.0,0.0,0.0,0.0,0.0,0.0,0.0,0.0,0.0,0.0,0.0,0.0,0.0,0.0,0.0,0.0,0.0,0.0,0.0,0.0,4.5745,4.5778,4.5791,4.5609,4.4822,4.3386,0.0,0.0,0.0,0.0,0.0,0.0,0.0,0.0,0.0,0.0,0.0,0.0,0.0,0.0,0.0,0.0,0.0,0.0,0.0,0.0,0.0,0.0,0.0,0.0,0.0,0.0,0.0,0.0,0.0,0.0,0.0,0.0,0.0,0.0,0.0,0.0,0.0,0.0,0.0,0.0,0.0,0.0,0.0,0.0,0.0,0.0,0.0,0.0,0.0,0.0,0.0,0.0,0.0,0.0,0.0,0.0,0.0,0.0,0.0,0.0,0.0,0.0,0.0,0.0,0.0,0.0,0.0,0.0,0.0,0.0,0.0,0.0,0.0,0.0,0.0,0.0,0.0,0.0,0.0,0.0,0.0,0.0,0.0,0.0,0.0,0.0,0.0,0.0,0.0,0.0,0.0,0.0,0.0,0.0,0.0,0.0,0.0,0.0,0.0,0.0,0.0,0.0,0.0,0.0,0.0,0.0,0.0,0.0,4.5682,4.573,4.5752,4.5789,4.4983,4.4132,0.0,0.0,0.0,0.0,0.0,0.0,0.0,0.0,0.0,0.0,0.0,0.0,0.0,0.0,0.0,0.0,0.0,0.0,0.0,0.0,0.0,0.0,0.0,0.0,0.0,0.0,0.0,0.0,0.0,0.0,0.0,0.0,0.0,0.0,0.0,0.0,0.0,0.0,0.0,0.0,0.0,0.0,0.0,0.0,0.0,0.0,0.0,0.0,0.0,0.0,0.0,0.0,0.0,0.0,0.0,0.0,0.0,0.0,0.0,0.0,0.0,0.0,0.0,0.0,0.0,0.0,0.0,0.0,0.0,0.0,0.0,0.0,0.0,0.0,0.0,0.0,0.0,0.0,0.0,0.0,0.0,0.0,0.0,0.0,0.0,0.0,0.0,0.0,0.0,0.0,0.0,0.0,0.0,0.0,0.0,0.0,0.0,0.0,0.0,0.0,0.0,0.0,0.0,0.0,0.0,0.0,0.0,0.0,0.0,4.5684,4.5737,4.5785,4.5783,4.5491,4.4666,0.0,0.0,0.0,0.0,0.0,0.0,0.0,0.0,0.0,0.0,0.0,0.0,0.0,0.0,0.0,0.0,0.0,0.0,0.0,0.0,0.0,0.0,0.0,0.0,0.0,0.0,0.0,0.0,0.0,0.0,0.0,0.0,0.0,0.0,0.0,0.0,0.0,0.0,0.0,0.0,0.0,0.0,0.0,0.0,0.0,0.0,0.0,0.0,0.0,0.0,0.0,0.0,0.0,0.0,0.0,0.0,0.0,0.0,0.0,0.0,0.0,0.0,0.0,0.0,0.0,0.0,0.0,0.0,0.0,0.0,0.0,0.0,0.0,0.0,0.0,0.0,0.0,0.0,0.0,0.0,0.0,0.0,0.0,0.0,0.0,0.0,0.0,0.0,0.0,0.0,0.0,0.0,0.0,0.0,0.0,0.0,0.0,0.0,0.0,0.0,0.0,0.0,0.0,0.0,0.0,0.0,0.0,0.0,0.0,4.572,0.0,4.5813,4.5784,4.5531,4.4693,0.0,0.0,0.0,0.0,0.0,0.0,0.0,0.0,0.0,0.0,0.0,0.0,0.0,0.0,0.0,0.0,0.0,0.0,0.0,0.0,0.0,0.0,0.0,0.0,0.0,0.0,0.0,0.0,0.0,0.0,0.0,0.0,0.0,0.0,0.0,0.0,0.0,0.0,0.0,0.0,0.0,0.0,0.0,0.0,0.0,0.0,0.0,0.0,0.0,0.0,0.0,0.0,0.0,0.0,0.0,0.0,0.0,0.0,0.0,0.0,0.0,0.0,0.0,0.0,0.0,0.0,0.0,0.0,0.0,0.0,0.0,0.0,0.0,0.0,0.0,0.0,0.0,0.0,0.0,0.0,0.0,0.0,0.0,0.0,0.0,0.0,0.0,0.0,0.0,0.0,0.0,0.0,0.0,0.0,0.0,0.0,0.0,0.0,0.0,0.0,0.0,0.0,0.0,0.0,0.0,0.0,0.0,0.0,4.576,4.5833,4.5841,4.5863,4.5789,4.5056,4.413,0.0,0.0,0.0,0.0,0.0,0.0,0.0,0.0,0.0,0.0,0.0,0.0,0.0,0.0,0.0,0.0,0.0,0.0,0.0,0.0,0.0,0.0,0.0,0.0,0.0,0.0,0.0,0.0,0.0,0.0,0.0,0.0,0.0,0.0,0.0,0.0,0.0,0.0,0.0,0.0,0.0,0.0,0.0,0.0,0.0,0.0,0.0,0.0,0.0,0.0,0.0,0.0,0.0,0.0,0.0,0.0,0.0,0.0,0.0,0.0,0.0,0.0,0.0,0.0,0.0,0.0,0.0,0.0,0.0,0.0,0.0,0.0,0.0,0.0,0.0,0.0,0.0,0.0,0.0,0.0,0.0,0.0,0.0,0.0,0.0,0.0,0.0,0.0,0.0,0.0,0.0,0.0,0.0,0.0,0.0,0.0,0.0,0.0,0.0,0.0,0.0,0.0,0.0,0.0,0.0,0.0,0.0,0.0,0.0,4.6709,4.6686,4.6688,4.6714,4.6458,4.5299,0.0,0.0,0.0,0.0,0.0,0.0,0.0,0.0,0.0,0.0,0.0,0.0,0.0,0.0,0.0,0.0,0.0,0.0,0.0,0.0,0.0,0.0,0.0,0.0,0.0,0.0,0.0,0.0,0.0,0.0,0.0,0.0,0.0,0.0,0.0,0.0,0.0,0.0,0.0,0.0,0.0,0.0,0.0,0.0,0.0,0.0,0.0,0.0,0.0,0.0,0.0,0.0,0.0,0.0,0.0,0.0,0.0,0.0,0.0,0.0,0.0,0.0,0.0,0.0,0.0,0.0,0.0,0.0,0.0,0.0,0.0,0.0,0.0,0.0,0.0,0.0,0.0,0.0,0.0,0.0,0.0,0.0,0.0,0.0,0.0,0.0,0.0,0.0,0.0,0.0,0.0,0.0,0.0,0.0,0.0,0.0,0.0,0.0,0.0,0.0,0.0,0.0,0.0,0.0,0.0,0.0,0.0,0.0,0.0,4.7583,4.7607,4.7582,4.758,4.725,4.6176,4.4245,0.0,0.0,0.0,0.0,0.0,0.0,0.0,0.0,0.0,0.0,0.0,0.0,0.0,0.0,0.0,0.0,0.0,0.0,0.0,0.0,0.0,0.0,0.0,0.0,0.0,0.0,0.0,0.0,0.0,0.0,0.0,0.0,0.0,0.0,0.0,0.0,0.0,0.0,0.0,0.0,0.0,0.0,0.0,0.0,0.0,0.0,0.0,0.0,0.0,0.0,0.0,0.0,0.0,0.0,0.0,0.0,0.0,0.0,0.0,0.0,0.0,0.0,0.0,0.0,0.0,0.0,0.0,0.0,0.0,0.0,0.0,0.0,0.0,0.0,0.0,0.0,0.0,0.0,0.0,0.0,0.0,0.0,0.0,0.0,0.0,0.0,0.0,0.0,0.0,0.0,0.0,0.0,0.0,0.0,0.0,0.0,0.0,0.0,0.0,0.0,0.0,0.0,0.0,0.0,0.0,0.0,0.0,0.0,4.8529,4.8605,4.8585,4.8471,4.7696,4.679,0.0,0.0,0.0,0.0,0.0,0.0,0.0,0.0,0.0,0.0,0.0,0.0,0.0,0.0,0.0,0.0,0.0,0.0,0.0,0.0,0.0,0.0,0.0,0.0,0.0,0.0,0.0,0.0,0.0,0.0,0.0,0.0,0.0,0.0,0.0,0.0,0.0,0.0,0.0,0.0,0.0,0.0,0.0,0.0,0.0,0.0,0.0,0.0,0.0,0.0,0.0,0.0,0.0,0.0,0.0,0.0,0.0,0.0,0.0,0.0,0.0,0.0,0.0,0.0,0.0,0.0,0.0,0.0,0.0,0.0,0.0,0.0,0.0,0.0,0.0,0.0,0.0,0.0,0.0,0.0,0.0,0.0,0.0,0.0,0.0,0.0,0.0,0.0,0.0,0.0,0.0,0.0,0.0,0.0,0.0,0.0,0.0,0.0,0.0,0.0,0.0,0.0,0.0,0.0,0.0,0.0,0.0,0.0,0.0,5.02,5.0885,5.0629,4.9395,4.9126,4.7989,0.0,0.0,0.0,0.0,0.0,0.0,0.0,0.0,0.0,0.0,0.0,0.0,0.0,0.0,0.0,0.0,0.0,0.0,0.0,0.0,0.0,0.0,0.0,0.0,0.0,0.0,0.0,0.0,0.0,0.0,0.0,0.0,0.0,0.0,0.0,0.0,0.0,0.0,0.0,0.0,0.0,0.0,0.0,0.0,0.0,0.0,0.0,0.0,0.0,0.0,0.0,0.0,0.0,0.0,0.0,0.0,0.0,0.0,0.0,0.0,0.0,0.0,0.0,0.0,0.0,0.0,0.0,0.0,0.0,0.0,0.0,0.0,0.0,0.0,0.0,0.0,0.0,0.0,0.0,0.0,0.0,0.0,0.0,0.0,0.0,0.0,0.0,0.0,0.0,0.0,0.0,0.0,0.0,0.0,0.0,0.0,0.0,0.0,0.0,0.0,0.0,0.0,0.0,0.0,0.0,0.0,0.0,0.0,4.9109,5.0832,5.169,5.1708,5.0728,5.0379,4.9145,0.0,0.0,0.0,0.0,0.0,0.0,0.0,0.0,0.0,0.0,0.0,0.0,0.0,0.0,0.0,0.0,0.0,0.0,0.0,0.0,0.0,0.0,0.0,0.0,0.0,0.0,0.0,0.0,0.0,0.0,0.0,0.0,0.0,0.0,0.0,0.0,0.0,0.0,0.0,0.0,0.0,0.0,0.0,0.0,0.0,0.0,0.0,0.0,0.0,0.0,0.0,0.0,0.0,0.0,0.0,0.0,0.0,0.0,0.0,0.0,0.0,0.0,0.0,0.0,0.0,0.0,0.0,0.0,0.0,0.0,0.0,0.0,0.0,0.0,0.0,0.0,0.0,0.0,0.0,0.0,0.0,0.0,0.0,0.0,0.0,0.0,0.0,0.0,0.0,0.0,0.0,0.0,0.0,0.0,0.0,0.0,0.0,0.0,0.0,0.0,0.0,0.0,0.0,0.0,0.0,0.0,0.0,0.0,4.9146,5.1001,5.1826,5.2239,5.2194,5.1463,5.0176,0.0,0.0,0.0,0.0,0.0,0.0,0.0,0.0,0.0,0.0,0.0,0.0,0.0,0.0,0.0,0.0,0.0,0.0,0.0,0.0,0.0,0.0,0.0,0.0,0.0,0.0,0.0,0.0,0.0,0.0,0.0,0.0,0.0,0.0,0.0,0.0,0.0,0.0,0.0,0.0,0.0,0.0,0.0,0.0,0.0,0.0,0.0,0.0,0.0,0.0,0.0,0.0,0.0,0.0,0.0,0.0,0.0,0.0,0.0,0.0,0.0,0.0,0.0,0.0,0.0,0.0,0.0,0.0,0.0,0.0,0.0,0.0,0.0,0.0,0.0,0.0,0.0,0.0,0.0,0.0,0.0,0.0,0.0,0.0,0.0,0.0,0.0,0.0,0.0,0.0,0.0,0.0,0.0,0.0,0.0,0.0,0.0,0.0,0.0,0.0,0.0,0.0,0.0,0.0,0.0,0.0,0.0,0.0,4.9707,5.2678,5.2947,5.3033,5.3048,5.2255,5.0718,0.0,0.0,0.0,0.0,0.0,0.0,0.0,0.0,0.0,0.0,0.0,0.0,0.0,0.0,0.0,0.0,0.0,0.0,0.0,0.0,0.0,0.0,0.0,0.0,0.0,0.0,0.0,0.0,0.0,0.0,0.0,0.0,0.0,0.0,0.0,0.0,0.0,0.0,0.0,0.0,0.0,0.0,0.0,0.0,0.0,0.0,0.0,0.0,4.5593,0.0,0.0,0.0,0.0,0.0,0.0,0.0,0.0,0.0,0.0,0.0,0.0,0.0,0.0,0.0,0.0,0.0,0.0,0.0,0.0,0.0,0.0,0.0,0.0,0.0,0.0,0.0,0.0,0.0,0.0,0.0,0.0,0.0,0.0,0.0,0.0,0.0,0.0,0.0,0.0,0.0,0.0,0.0,0.0,0.0,0.0,0.0,0.0,0.0,0.0,0.0,0.0,0.0,0.0,0.0,0.0,0.0,0.0,0.0,4.9817,5.3124,5.3269,5.326,5.3244,5.2819,5.1216,0.0,0.0,0.0,0.0,0.0,0.0,0.0,0.0,0.0,0.0,0.0,0.0,0.0,0.0,0.0,0.0,0.0,0.0,0.0,0.0,0.0,0.0,0.0,0.0,0.0,0.0,0.0,0.0,0.0,0.0,0.0,0.0,0.0,0.0,0.0,0.0,0.0,0.0,0.0,0.0,0.0,0.0,0.0,0.0,0.0,0.0,0.0,0.0,0.0,0.0,0.0,0.0,0.0,0.0,0.0,0.0,0.0,0.0,0.0,0.0,0.0,0.0,0.0,0.0,0.0,0.0,0.0,0.0,0.0,0.0,0.0,0.0,0.0,0.0,0.0,0.0,0.0,0.0,0.0,0.0,0.0,0.0,0.0,0.0,0.0,0.0,0.0,0.0,0.0,0.0,0.0,0.0,0.0,0.0,0.0,0.0,0.0,0.0,0.0,0.0,0.0,0.0,0.0,0.0,0.0,0.0,0.0,4.8109,4.9776,5.3003,5.3192,5.3189,5.3197,5.3083,5.1491,4.8348,0.0,0.0,0.0,0.0,0.0,0.0,0.0,0.0,0.0,0.0,0.0,0.0,0.0,0.0,0.0,0.0,0.0,0.0,0.0,0.0,0.0,0.0,0.0,0.0,0.0,0.0,0.0,0.0,0.0,0.0,0.0,0.0,0.0,0.0,0.0,0.0,0.0,0.0,4.6852,4.7803,0.0,0.0,0.0,0.0,0.0,0.0,0.0,0.0,4.808,0.0,0.0,0.0,0.0,0.0,0.0,0.0,0.0,0.0,0.0,0.0,0.0,0.0,0.0,0.0,0.0,0.0,0.0,0.0,0.0,0.0,0.0,0.0,0.0,0.0,0.0,0.0,0.0,0.0,0.0,0.0,0.0,0.0,0.0,0.0,0.0,0.0,0.0,0.0,0.0,0.0,0.0,0.0,0.0,0.0,0.0,0.0,0.0,0.0,0.0,0.0,0.0,0.0,0.0,0.0,0.0,4.8088,4.8097,4.9732,5.3109,5.3188,5.3189,5.3158,5.2503,5.0854,4.8288,0.0,0.0,0.0,0.0,0.0,0.0,0.0,0.0,0.0,0.0,0.0,0.0,0.0,0.0,0.0,0.0,0.0,0.0,0.0,0.0,0.0,0.0,0.0,0.0,0.0,0.0,0.0,0.0,0.0,0.0,0.0,0.0,0.0,0.0,0.0,0.0,0.0,0.0,0.0,4.8644,4.9208,0.0,0.0,0.0,0.0,0.0,0.0,0.0,0.0,4.8006,0.0,0.0,0.0,0.0,0.0,0.0,0.0,0.0,0.0,0.0,0.0,0.0,0.0,0.0,0.0,0.0,0.0,0.0,0.0,0.0,0.0,0.0,0.0,0.0,0.0,0.0,0.0,0.0,0.0,0.0,0.0,0.0,0.0,0.0,0.0,0.0,0.0,0.0,0.0,0.0,0.0,0.0,0.0,0.0,0.0,0.0,0.0,0.0,0.0,0.0,0.0,0.0,0.0,0.0,0.0,4.7999,4.853,5.0207,5.3068,5.3622,5.3666,5.3199,5.2349,5.0694,0.0,0.0,0.0,0.0,0.0,0.0,0.0,0.0,0.0,0.0,0.0,0.0,0.0,0.0,0.0,0.0,0.0,0.0,0.0,0.0,0.0,0.0,0.0,0.0,0.0,0.0,0.0,0.0,0.0,0.0,0.0,0.0,0.0,0.0,0.0,0.0,0.0,0.0,0.0,0.0,4.9588,5.0698,5.0709,0.0,0.0,0.0,0.0,0.0,0.0,4.9739,4.932,0.0,0.0,0.0,0.0,0.0,0.0,0.0,0.0,0.0,0.0,0.0,0.0,0.0,0.0,0.0,0.0,0.0,0.0,0.0,0.0,0.0,0.0,0.0,0.0,0.0,0.0,0.0,0.0,0.0,0.0,0.0,0.0,0.0,0.0,0.0,0.0,0.0,0.0,0.0,0.0,0.0,0.0,0.0,0.0,0.0,0.0,0.0,0.0,0.0,0.0,0.0,0.0,0.0,0.0,0.0,4.8034,4.8963,5.0646,5.3112,5.406,5.4102,5.3199,5.22,5.0543,0.0,0.0,0.0,0.0,0.0,0.0,0.0,0.0,0.0,0.0,0.0,0.0,0.0,0.0,0.0,0.0,0.0,0.0,0.0,0.0,0.0,0.0,0.0,0.0,0.0,0.0,0.0,0.0,0.0,0.0,0.0,0.0,0.0,0.0,0.0,0.0,0.0,0.0,0.0,0.0,0.0,5.1914,5.1926,5.265,0.0,0.0,0.0,0.0,5.2156,5.1471,0.0,0.0,0.0,0.0,0.0,0.0,0.0,0.0,0.0,0.0,0.0,0.0,0.0,0.0,0.0,0.0,0.0,0.0,0.0,0.0,0.0,0.0,0.0,0.0,0.0,0.0,0.0,0.0,0.0,0.0,0.0,0.0,0.0,0.0,0.0,0.0,0.0,0.0,0.0,0.0,0.0,0.0,0.0,0.0,0.0,0.0,0.0,0.0,0.0,0.0,0.0,0.0,0.0,0.0,0.0,0.0,4.8012,4.8957,5.0646,5.3082,5.4062,5.4102,5.3199,5.1666,4.9972,0.0,0.0,0.0,0.0,0.0,0.0,0.0,0.0,0.0,0.0,0.0,0.0,0.0,0.0,0.0,0.0,0.0,0.0,0.0,0.0,0.0,0.0,0.0,0.0,0.0,0.0,0.0,0.0,0.0,0.0,0.0,0.0,0.0,0.0,0.0,0.0,0.0,0.0,0.0,0.0,0.0,5.1902,5.1919,5.2651,5.3192,0.0,0.0,5.3044,5.3045,5.2313,0.0,0.0,0.0,0.0,0.0,0.0,0.0,0.0,0.0,0.0,0.0,0.0,0.0,0.0,0.0,0.0,0.0,0.0,0.0,0.0,0.0,0.0,0.0,0.0,0.0,0.0,0.0,0.0,0.0,0.0,0.0,0.0,0.0,0.0,0.0,0.0,0.0,0.0,0.0,0.0,0.0,0.0,0.0,0.0,0.0,0.0,0.0,0.0,0.0,0.0,0.0,0.0,0.0,0.0,0.0,4.5548,4.8045,4.9903,5.16,5.3163,5.4503,5.454,5.324,5.1552,4.9899,0.0,0.0,0.0,0.0,0.0,0.0,0.0,0.0,0.0,0.0,0.0,0.0,0.0,0.0,0.0,0.0,0.0,0.0,0.0,0.0,0.0,0.0,0.0,0.0,0.0,0.0,0.0,0.0,0.0,0.0,0.0,0.0,0.0,0.0,0.0,0.0,0.0,0.0,0.0,0.0,0.0,0.0,5.2625,5.3779,0.0,0.0,0.0,5.3931,5.3932,0.0,0.0,0.0,0.0,0.0,0.0,0.0,0.0,0.0,0.0,0.0,0.0,0.0,0.0,0.0,0.0,0.0,0.0,0.0,0.0,0.0,0.0,0.0,0.0,0.0,0.0,0.0,0.0,0.0,0.0,0.0,0.0,0.0,0.0,0.0,0.0,0.0,0.0,0.0,0.0,0.0,0.0,0.0,0.0,0.0,0.0,0.0,0.0,0.0,0.0,0.0,0.0,0.0,0.0,0.0,0.0,0.0,4.8393,5.0696,5.243,5.3514,5.4972,5.4895,5.3237,5.1743,0.0,0.0,0.0,0.0,0.0,0.0,0.0,0.0,0.0,0.0,0.0,0.0,0.0,0.0,0.0,0.0,0.0,0.0,0.0,0.0,0.0,0.0,0.0,0.0,0.0,0.0,0.0,0.0,0.0,0.0,0.0,0.0,0.0,0.0,0.0,0.0,0.0,0.0,0.0,0.0,0.0,0.0,5.3208,5.318,5.4821,5.5927,0.0,0.0,5.5054,5.4821,5.3546,5.2465,0.0,0.0,0.0,0.0,0.0,0.0,0.0,0.0,0.0,0.0,0.0,0.0,0.0,0.0,0.0,0.0,0.0,0.0,0.0,0.0,0.0,0.0,0.0,0.0,0.0,0.0,0.0,0.0,0.0,0.0,0.0,0.0,0.0,0.0,0.0,0.0,0.0,0.0,0.0,0.0,0.0,0.0,0.0,0.0,0.0,0.0,0.0,0.0,0.0,0.0,0.0,0.0,0.0,0.0,0.0,4.9245,5.1043,5.2737,5.4362,5.5245,5.4899,5.3238,5.2313,5.0658,0.0,0.0,0.0,0.0,0.0,0.0,0.0,0.0,0.0,0.0,0.0,0.0,0.0,0.0,0.0,0.0,0.0,0.0,0.0,0.0,0.0,0.0,0.0,0.0,0.0,0.0,0.0,0.0,0.0,0.0,0.0,0.0,0.0,0.0,0.0,0.0,0.0,0.0,0.0,0.0,0.0,5.3209,5.3182,5.534,5.6596,0.0,0.0,5.6558,5.5747,5.4895,5.4051,5.3237,0.0,0.0,0.0,0.0,0.0,0.0,0.0,0.0,0.0,0.0,0.0,0.0,0.0,0.0,0.0,0.0,0.0,0.0,0.0,0.0,0.0,0.0,0.0,0.0,0.0,0.0,0.0,0.0,0.0,0.0,0.0,0.0,0.0,0.0,0.0,0.0,0.0,0.0,0.0,0.0,0.0,0.0,0.0,0.0,0.0,0.0,0.0,0.0,0.0,0.0,0.0,0.0,0.0,4.7046,4.9395,5.2093,5.4055,5.5208,5.6069,5.5955,5.478,5.2888,5.0966,0.0,0.0,0.0,0.0,0.0,0.0,0.0,0.0,0.0,0.0,0.0,0.0,0.0,0.0,0.0,0.0,0.0,0.0,0.0,0.0,0.0,0.0,0.0,0.0,0.0,0.0,0.0,0.0,3.9751,4.0167,4.0477,0.0,0.0,0.0,0.0,0.0,0.0,0.0,0.0,0.0,0.0,5.3404,5.3938,5.5695,0.0,0.0,5.6786,5.6904,5.6556,5.5363,5.4396,5.4048,5.2587,0.0,0.0,0.0,0.0,0.0,0.0,0.0,0.0,0.0,0.0,0.0,0.0,0.0,0.0,0.0,0.0,0.0,0.0,0.0,0.0,0.0,0.0,0.0,0.0,0.0,0.0,0.0,0.0,0.0,0.0,0.0,0.0,0.0,0.0,0.0,0.0,0.0,0.0,0.0,0.0,0.0,0.0,0.0,0.0,0.0,0.0,0.0,0.0,0.0,0.0,0.0,0.0,4.8235,5.0161,5.327,5.5236,5.6093,5.6941,5.6865,5.5706,5.3971,5.2008,0.0,0.0,0.0,0.0,0.0,0.0,0.0,0.0,0.0,0.0,0.0,0.0,0.0,0.0,0.0,0.0,0.0,0.0,0.0,0.0,0.0,0.0,0.0,0.0,0.0,0.0,0.0,0.0,4.0172,4.0591,4.0858,0.0,0.0,0.0,0.0,0.0,0.0,0.0,0.0,0.0,0.0,5.3581,5.4704,5.6321,5.7372,5.7359,5.74,5.7326,5.7058,5.5785,5.4781,5.4549,0.0,0.0,0.0,0.0,0.0,0.0,0.0,0.0,0.0,0.0,0.0,0.0,0.0,0.0,0.0,0.0,0.0,0.0,0.0,0.0,0.0,0.0,0.0,0.0,0.0,0.0,0.0,0.0,0.0,0.0,4.1696,0.0,0.0,0.0,0.0,0.0,0.0,0.0,0.0,0.0,0.0,0.0,0.0,0.0,0.0,0.0,0.0,0.0,0.0,0.0,0.0,0.0,0.0,4.9314,5.181,5.4399,5.6098,5.6982,5.7817,5.7468,5.5857,5.5629,5.4053,5.0784,0.0,0.0,0.0,0.0,0.0,0.0,0.0,0.0,0.0,0.0,0.0,0.0,0.0,0.0,0.0,0.0,0.0,0.0,0.0,0.0,0.0,0.0,0.0,0.0,0.0,0.0,4.0515,4.0515,4.0895,0.0,0.0,0.0,0.0,0.0,0.0,0.0,0.0,0.0,0.0,5.2155,5.3799,5.5436,5.7167,5.8236,5.8278,5.8278,5.7974,5.7172,5.6288,5.5401,0.0,0.0,0.0,0.0,0.0,0.0,0.0,0.0,0.0,0.0,0.0,0.0,0.0,0.0,0.0,0.0,0.0,0.0,0.0,0.0,0.0,0.0,0.0,0.0,0.0,0.0,0.0,4.4433,4.3893,0.0,0.0,0.0,0.0,0.0,0.0,0.0,0.0,0.0,0.0,0.0,5.2819,5.3627,0.0,0.0,0.0,0.0,0.0,0.0,0.0,0.0,0.0,0.0,0.0,0.0,5.0201,5.2779,5.5859,5.7826,5.8669,5.9499,5.9419,5.8242,5.7131,5.4975,5.1584,0.0,0.0,0.0,0.0,0.0,0.0,0.0,0.0,0.0,0.0,0.0,0.0,0.0,0.0,0.0,0.0,0.0,0.0,0.0,0.0,0.0,0.0,0.0,0.0,0.0,4.1584,0.0,0.0,0.0,0.0,0.0,0.0,0.0,0.0,0.0,0.0,0.0,5.0456,5.2159,5.3326,5.4667,5.6347,5.7535,5.8473,0.0,0.0,0.0,0.0,0.0,0.0,0.0,0.0,0.0,0.0,0.0,0.0,0.0,0.0,5.1742,5.1178,5.0404,4.9666,4.9088,0.0,0.0,0.0,0.0,0.0,0.0,0.0,0.0,0.0,0.0,0.0,0.0,0.0,0.0,4.6588,0.0,4.5778,0.0,0.0,0.0,0.0,0.0,0.0,0.0,0.0,5.3814,5.5432,5.624,5.7089,5.7051,0.0,5.5356,5.3388,0.0,0.0,0.0,0.0,0.0,0.0,0.0,0.0,5.2281,5.4553,5.7591,5.9554,6.0404,6.1244,6.1244,6.0398,5.8474,5.6128,5.3313,5.1045,4.8969,0.0,0.0,0.0,0.0,0.0,0.0,0.0,0.0,0.0,0.0,0.0,0.0,0.0,0.0,0.0,0.0,0.0,0.0,0.0,0.0,0.0,0.0,0.0,4.2502,0.0,0.0,0.0,0.0,0.0,0.0,0.0,0.0,0.0,4.8934,4.9976,5.1415,5.3377,5.4373,5.5541,5.722,0.0,0.0,0.0,0.0,0.0,0.0,0.0,5.7246,5.6705,5.6167,5.5742,5.5428,5.4637,5.408,5.4081,0.0,0.0,5.2552,5.1938,5.1398,5.0819,5.0279,4.9851,4.9891,5.0305,5.0866,0.0,0.0,0.0,0.0,0.0,0.0,0.0,0.0,4.9589,4.9588,0.0,4.8703,0.0,0.0,0.0,0.0,0.0,5.1814,0.0,0.0,5.724,5.8855,5.9662,6.0513,6.0475,5.9664,5.8855,5.8007,5.6926,5.2125,0.0,0.0,0.0,0.0,0.0,0.0,5.5361,5.7058,5.9522,6.1253,6.2098,6.2932,6.2931,6.2096,5.9745,5.7628,5.586,5.4239,5.2161,4.9626,4.793,0.0,0.0,0.0,0.0,0.0,0.0,0.0,0.0,0.0,0.0,0.0,0.0,0.0,0.0,0.0,0.0,0.0,0.0,0.0,0.0,4.2651,0.0,0.0,0.0,0.0,0.0,0.0,0.0,0.0,0.0,0.0,5.0825,5.0862,5.1756,5.4198,0.0,0.0,0.0,0.0,5.979,6.0666,6.0089,5.955,5.951,5.8856,5.8316,5.8275,0.0,0.0,5.7164,5.634,5.5784,5.5785,5.5785,5.5269,5.3722,5.3329,5.3159,5.3085,5.2969,5.3162,5.3204,5.3089,5.3267,5.1391,0.0,0.0,0.0,0.0,5.0813,5.166,5.3053,5.305,5.305,5.3013,5.2781,0.0,0.0,0.0,0.0,0.0,0.0,5.7275,5.8165,6.0093,6.1744,6.3125,6.3395,6.3705,6.4014,6.2584,6.1737,6.1314,5.7624,5.4392,5.1774,0.0,0.0,0.0,0.0,5.5935,5.8708,6.0739,6.2121,6.2935,6.3803,6.38,6.2971,6.1709,6.0168,5.8473,5.7394,5.5391,5.2238,5.051,0.0,0.0,0.0,0.0,0.0,0.0,0.0,0.0,0.0,0.0,0.0,0.0,0.0,0.0,0.0,0.0,0.0,0.0,0.0,4.3469,4.3821,4.4437,0.0,0.0,0.0,0.0,0.0,0.0,0.0,0.0,0.0,5.3167,5.3439,5.3912,0.0,0.0,5.7236,5.8916,5.9364,5.979,6.0663,6.0592,0.0,5.9588,5.9318,5.897,5.8392,5.8273,5.8216,5.7959,5.7736,5.7561,5.756,5.7537,5.7389,5.688,5.5308,5.4009,5.3394,5.3199,5.3431,5.4012,5.4549,5.516,5.4586,5.4312,5.2822,5.2472,5.2968,5.3274,5.42,5.5516,5.5858,5.6008,5.6009,5.6357,5.574,5.4467,5.5314,0.0,0.0,0.0,6.0435,6.1589,6.2977,6.4476,6.6046,6.6123,6.6396,6.6822,6.5471,6.4625,6.4279,6.1932,5.9395,5.6746,0.0,0.0,5.4743,5.5897,5.7822,6.0476,6.1874,6.3143,6.4319,6.4843,6.4691,6.3815,6.3011,6.1781,6.0089,5.9241,5.7354,5.4318,5.2587,5.0511,0.0,0.0,0.0,0.0,0.0,0.0,0.0,0.0,0.0,0.0,0.0,4.0627,0.0,0.0,0.0,0.0,4.2929,4.4006,4.5663,4.5823,0.0,0.0,0.0,0.0,0.0,0.0,0.0,5.101,5.2052,5.3247,5.4781,5.5589,5.6064,5.6219,5.7251,5.8378,5.9367,0.0,6.0188,6.0742,6.0782,6.063,6.0089,6.0013,5.9859,5.9396,5.8964,5.8778,5.8769,5.8547,5.8302,5.8289,5.8286,5.8271,5.8292,5.6996,5.5858,5.5354,5.52,5.5393,5.5934,5.638,5.6904,5.7552,5.8125,5.5858,5.4858,5.4897,5.5592,5.6401,5.7249,5.8127,5.8546,5.8665,5.9433,5.9432,5.8856,5.9509,0.0,6.0087,6.1747,6.3323,6.482,6.5707,6.6936,6.8467,6.8468,6.8545,6.8582,6.7707,6.6941,6.617,6.5168,6.3938,6.2329,5.9095,5.7441,5.7404,5.8783,6.0399,6.2172,6.2934,6.4163,6.5824,6.5825,6.5397,6.4625,6.3738,6.2546,6.0976,6.009,5.8473,5.6016,5.4317,5.2241,4.9702,0.0,0.0,0.0,0.0,0.0,0.0,0.0,0.0,0.0,0.0,0.0,0.0,0.0,0.0,0.0,4.482,0.0,4.8044,4.8198,0.0,0.0,0.0,4.8738,4.9626,5.0476,5.1321,5.212,0.0,0.0,5.5898,5.7357,5.8094,5.7317,5.8509,5.9529,5.9602,6.0266,6.0782,6.0782,6.0782,6.0782,6.0705,6.0744,6.0705,6.0627,6.0147,5.9636,5.956,5.9082,5.8565,5.8606,5.856,5.8688,5.8642,5.8746,5.8701,5.8699,5.8469,5.8313,5.8432,5.8554,5.8715,5.8084,5.8316,5.8316,5.7973,5.7392,5.7585,5.8165,5.8972,5.9821,6.0553,6.1247,6.2049,6.2663,6.3088,6.2584,6.3126,6.4439,6.544,6.6131,6.6553,6.7398,6.8354,6.9358,6.9395,6.9704,7.0202,6.9475,6.8975,6.8706,6.663,6.5399,6.49,6.286,6.1164,5.9938,5.9627,6.0663,6.3009,6.3198,6.4125,6.5824,6.5245,6.4817,6.4625,6.3738,6.2818,6.1827,6.0941,5.9628,5.778,5.6051,5.3935,5.1428,4.951,0.0,0.0,0.0,0.0,0.0,0.0,0.0,0.0,0.0,4.1853,4.2698,0.0,4.4088,0.0,4.6547,4.7931,4.8971,4.9089,0.0,0.0,5.1001,5.1351,5.2199,5.3051,5.3899,5.4703,5.5898,5.6938,5.7588,5.8585,5.9134,5.8927,5.9238,5.9728,6.0392,6.0624,6.0782,6.0821,6.0861,6.0782,6.0859,6.0782,6.0821,6.0782,6.0623,6.0504,6.0504,6.0346,6.0226,6.0226,6.0777,6.1155,6.1162,6.168,6.2041,6.1969,6.0584,5.9432,6.0053,6.0682,6.1357,5.9627,6.0053,6.0855,6.093,6.0507,6.0127,6.0244,6.0747,6.1976,6.2744,6.3286,6.4091,6.474,6.513,6.4666,6.4974,6.5902,6.6364,6.6747,6.7132,6.8008,6.8854,6.9704,7.005,7.0475,7.0897,7.0437,7.0052,6.9627,6.8282,6.7209,6.6439,6.5089,6.382,6.2512,6.1627,6.2086,6.3855,6.4242,6.4936,6.5822,6.5049,6.4625,6.4549,6.3394,6.2552,6.2136,6.1247,6.0204,5.8893,5.7206,5.5321,5.3163,5.1428,4.9548,0.0,0.0,0.0,0.0,0.0,0.0,0.0,0.0,0.0,0.0,0.0,4.6125,4.7746,4.9047,5.0157,5.1009,5.1087,5.1625,5.2931,5.3046,5.3546,5.4741,5.5321,5.5939,5.6783,5.7591,5.8283,5.8779,5.9549,6.0254,6.0583,6.0665,6.0656,6.0787,6.1118,6.1385,6.1398,6.1667,6.1897,6.1898,6.1897,6.1932,6.1895,6.1942,6.1916,6.1929,6.1907,6.1934,6.1963,6.2299,6.2617,6.2659,6.2943,6.3314,6.316,6.2508,6.1894,6.1895,6.229,6.2801,6.1553,6.2324,6.3009,6.3314,6.3274,6.2667,6.2367,6.2366,6.3898,6.4742,6.4973,6.571,6.6093,6.6207,6.6207,6.6247,6.6208,6.6207,6.6668,6.7441,6.8241,6.9048,6.986,7.0552,7.0897,7.0897,7.0897,7.055,6.9856,6.9743,6.8859,6.7285,6.6441,6.5631,6.478,6.4008,6.3969,6.4592,6.5476,6.59,6.5862,6.5053,6.4551,6.4394,6.2903,6.2019,6.1907,6.1092,6.0282,5.951,5.8014,5.6438,5.4897,5.3391,5.1815,0.0,4.924,0.0,0.0,0.0,0.0,0.0,0.0,0.0,0.0,4.7466,4.8507,5.0824,5.1778,5.2581,5.3432,5.3624,5.4049,5.4897,5.5012,5.5589,5.6979,5.7247,5.7671,5.8508,5.9316,5.9858,6.0049,6.0664,6.1448,6.2053,6.2203,6.1957,6.1391,6.1796,6.2257,6.2283,6.2857,6.3082,6.3123,6.3198,6.3198,6.3238,6.3171,6.3276,6.3181,6.3218,6.3237,6.3241,6.334,6.3455,6.345,6.3631,6.3854,6.3969,6.4511,6.4702,6.3931,6.3811,6.3805,6.2931,6.3086,6.3237,6.3314,6.3314,6.3894,6.3703,6.3123,6.4166,6.5359,6.6633,6.6789,6.7285,6.7891,6.7931,6.7933,6.7931,6.7931,6.8393,6.9206,6.9396,6.9895,7.0627,7.0823,7.0897,7.0897,7.0897,7.0823,7.0667,7.0012,6.9166,6.8124,6.7284,6.6479,6.5707,0.0,0.0,0.0,6.5447,6.59,6.5862,6.5051,6.428,6.3545,6.2633,0.0,6.1053,6.0204,5.9664,5.9473,5.8587,0.0,0.0,0.0,0.0,0.0,0.0,0.0,0.0,0.0,0.0,0.0,5.2433,5.1861,5.0168,5.0584,5.1427,5.2624,5.3508,5.4318,5.5127,5.5862,5.6632,5.7471,5.7587,5.7741,5.805,5.8665,5.9359,6.0245,6.1055,6.186,6.2392,6.2738,6.2873,6.3032,6.3084,6.3038,6.2882,6.298,6.3078,6.3085,6.3352,6.3352,6.3314,6.3352,6.3468,6.3314,6.3306,6.3352,6.3401,6.3392,6.3363,6.3403,6.3872,6.4386,6.4395,6.5418,6.6284,6.6361,6.705,6.7202,6.5742,6.5937,6.6603,6.3969,0.0,6.4395,6.4586,0.0,6.5051,6.4974,6.4589,6.5053,6.5936,6.7093,6.7093,6.7326,6.7744,6.7742,6.7552,6.7165,6.7165,6.7628,6.8436,6.8858,6.951,7.0318,7.0704,7.0897,7.0897,7.0897,7.0897,7.0898,7.0477,6.9856,6.9045,6.8592,6.7976,6.7165,6.7125,6.6518,6.5262,6.5674,6.59,6.5862,6.5051,6.4202,6.3315,6.2514,0.0,0.0,0.0,0.0,0.0,0.0,0.0,0.0,5.7859,0.0,5.6973,5.6202,5.57,5.5622,5.5276,5.5391,5.6239,5.674,5.5898,5.3362,5.3937,5.4589,5.5049,5.5858,5.6549,5.6934,5.7394,5.8129,5.9356,5.9511,5.9819,6.0623,6.1124,6.1546,6.1934,6.2395,6.2857,6.3237,6.3314,6.3483,6.3867,6.393,6.4128,6.4444,6.4215,6.4071,6.4508,6.4588,6.4586,6.4586,6.4588,6.4586,6.4588,6.4582,6.4582,6.4586,6.4891,6.5155,6.5226,6.5889,6.6466,6.6534,6.7197,6.7742,6.7782,6.8087,6.8354,6.7782,6.7781,6.7824,6.4934,6.5089,6.5822,6.6208,6.6361,6.6359,6.6362,6.632,0.0,0.0,0.0,6.7322,6.7439,6.7556,6.7402,6.6862,6.6134,6.5977,6.6402,6.7362,6.8085,6.8931,6.9937,7.0591,7.0897,7.0897,7.0897,7.0897,7.0897,7.0897,7.0514,6.9781,6.9704,6.9239,6.847,6.8393,6.77,6.6397,6.6205,6.6054,6.59,6.5206,6.4392,6.3545,6.2898,6.2135,6.1281,6.1243,6.1244,6.1244,6.0547,6.0163,6.0164,5.9546,5.9546,6.0278,5.9511,5.9319,6.0086,5.9435,5.9319,6.0124,6.0164,5.901,5.636,5.6823,5.7249,5.721,5.8127,5.8741,5.8739,5.9048,5.9739,6.1092,6.1244,6.1818,6.3045,6.3314,6.3238,6.3506,6.3506,6.3623,6.3817,6.3855,6.4057,6.4848,6.5125,6.5344,6.5979,6.546,6.5107,6.5859,6.5976,6.6093,6.6322,6.6359,6.6359,6.632,6.632,6.6364,6.6449,6.6867,6.7289,6.721,6.7936,6.8196,6.838,6.846,6.862,6.8622,6.8736,6.9047,6.9662,6.947,6.9125,6.6133,6.6747,6.6901,6.7361,6.8045,6.8048,6.8047,6.7931,6.6516,6.6781,6.8201,6.8239,6.8625,6.9283,6.8548,6.7741,6.6904,6.6208,6.6707,6.8201,6.8353,6.9241,7.0704,7.0823,7.0897,7.0897,7.0897,7.0897,7.0897,7.0897,7.0514,6.9819,6.9704,6.9279,6.847,6.8393,6.8277,6.8045,6.7314,6.6585,6.5939,6.5784,6.5322,6.4474,6.4319,6.3818,6.3008,6.2966,6.2969,6.2929,6.2812,6.2777,6.2738,6.2623,6.2969,6.3705,6.2403,6.19,6.27,6.2015,6.19,6.2661,6.2777,6.1392,5.8279,5.8048,5.8125,5.8164,5.959,6.0475,6.0513,6.1661,6.2506,6.2854,6.2931,6.3085,6.3391,6.3429,6.3737,6.4392,6.4434,6.478,6.5399,6.5513,6.5793,6.6508,6.6622,6.6997,6.7433,6.67,6.6167,6.6708,6.6939,6.7244,6.7665,6.801,6.7894,6.8045,6.7933,6.7831,6.7829,6.8036,6.8192,6.8233,6.845,6.853,6.854,6.902,6.9428,6.9587,7.005,7.055,7.0823,7.1169,7.1321,6.6787,6.7135,6.759,6.801,6.8393,6.8393,6.8393,6.8353,6.7588,6.7971,6.9045,6.9125,6.9318,6.9625,6.8779,6.7936,6.7055,6.6248,6.6821,6.8314,6.8393,6.9276,7.0783,7.0897,7.0897,7.0897,7.0897,7.0897,7.0897,7.0897,7.0704,7.0358,7.0358,7.0167,6.9779,6.9741,6.9542,6.9109,6.8242,6.7633,6.7279,6.7255,6.683,6.5977,6.5977,6.5551,6.4742,6.4703,6.4703,6.4705,6.4703,6.4703,6.4702,6.4705,6.5088,6.5862,6.5248,6.517,6.6006,6.5285,6.4552,6.4048,6.4009,6.316,6.12,6.1006,6.1007,6.1044,6.1738,6.2164,6.2163,6.2852,6.3468,6.3968,6.4009,6.4202,6.4665,6.5126,6.5513,6.5936,6.6396,6.6817,6.7204,6.7277,6.7335,6.7752,6.7803,6.7985,6.8358,6.7801,6.7394,6.7741,6.7821,6.7973,6.8354,6.8393,6.8393,6.8393,6.8393,6.8401,6.8426,6.8711,6.9075,6.9162,6.9411,6.9731,6.9747,7.0033,7.0472,7.1015,7.1286,7.171,7.2205,7.2664,7.2713,6.7362,6.7749,6.8395,6.8779,6.8968,6.897,6.8968,6.897,6.8972,6.9355,6.9896,6.9781,6.9783,6.9858,6.9085,6.8358,6.7633,6.6822,6.7244,6.8587,6.8701,6.9472,7.0781,7.0897,7.0897,7.0897,7.0897,7.0897,7.0897,7.0897,7.0897,7.0897,7.0897,7.0897,7.0897,7.0897,7.0579,6.9988,6.9326,6.8791,6.8416,6.8393,6.8057,6.7478,6.7401,6.7091,6.6514,6.6476,6.6474,6.6474,6.6474,6.6476,6.6474,6.6476,6.6822,6.7555,6.7476,6.7667,6.8277,6.7784,6.6822,6.5586,6.5469,6.5163,6.4543,6.4466,6.4082,6.3468,6.3392,6.3585,6.3622,6.4045,6.4432,6.5086,6.5356,6.5779,6.6397,6.7013,6.7399,6.7478,6.8008,6.8316,6.8393,6.8393,6.8449,6.8631,6.8814,6.8956,6.8958,6.895,6.897,6.8933,6.8818,6.8854,6.8891,6.9008,6.9048,6.897,6.9007,6.9125,6.9204,6.9589,7.005,7.0269,7.0774,7.1204,7.1398,7.1512,7.1783,7.2283,7.2437,7.2745,7.3509,7.3707,7.3638,6.8015,6.9358,6.9549,7.001,7.0587,7.0627,7.0591,7.0589,7.0666,7.0708,7.0666,7.0014,7.0126,7.0629,6.9935,6.9473,6.9321,6.8547,6.8625,6.9472,6.9587,7.005,7.0821,7.0897,7.0897,7.0897,7.0897,7.0897,7.0897,7.0897,7.0897,7.0897,7.0897,7.0897,7.0897,7.0897,7.0856,7.0778,7.0706,6.9956,6.8483,6.8406,6.8348,6.8276,6.8276,6.8277,6.8162,6.816,6.816,6.816,6.8162,6.8162,6.816,6.8162,6.8548,6.9323,6.8702,6.8314,6.8393,6.8314,6.8199,6.8085,6.7891,6.7853,6.7777,6.7816,6.6545,6.4391,6.4125,6.4588,6.4586,6.5784,6.663,6.6745,6.7396,6.8084,6.8045,6.8241,6.8277,6.8279,6.8468,6.8393,6.8584,6.8622,6.8828,6.9508,7.0024,7.038,7.0381,7.0503,7.055,7.0473,7.009,6.9973,7.0358,7.0666,7.0552,7.0591,7.0667,7.0669,7.075,7.079,7.1021,7.1653,7.1947,7.2285,7.2851,7.3238,7.3163,7.3317,7.343,7.3657,7.4355,7.4556,7.4296,6.9053,6.9744,7.0204,7.0589,7.086,7.0897,7.0897,7.0897,7.0897,7.0897,7.086,7.0552,7.0592,7.0823,7.0049,6.9704,6.9627,6.8778,6.8891,6.9666,6.9704,7.0127,7.082,7.0897,7.0897,7.0897,7.0897,7.0897,7.0897,7.0897,7.0897,7.0897,7.0897,7.0897,7.0897,7.0897,7.0897,7.0897,7.0897,7.054,6.9983,6.9866,6.9878,6.9891,6.9895,6.9895,6.9895,6.9896,6.9895,6.9856,6.9895,6.9895,6.9896,6.9858,7.0012,7.036,7.0087,6.9664,6.9204,6.9162,6.8933,6.8431,6.8393,6.8393,6.8393,6.8393,6.7736,6.6697,6.666,6.6856,6.6856,6.7473,6.7896,6.7936,6.8202,6.8393,6.8393,6.8856,6.9162,6.9202,6.9585,6.9858,6.9895,6.9895,7.0015,7.0372,7.0751,7.0974,7.0937,7.1316,7.1624,7.1708,7.1781,7.1589,7.1245,7.1402,7.1594,7.1748,7.2129,7.2437,7.2354,7.2411,7.2601,7.2951,7.2962,7.304,7.3351,7.3531,7.3582,7.3954,7.4685,7.5005,7.5267,7.526,7.505,6.9821,7.0126,7.0669,7.0897,7.0897,7.0897,7.0897,7.0897,7.0897,7.0897,7.0897,7.0897,7.0897,7.082,7.0281,7.0014,6.9935,6.9355,6.9396,7.0014,7.0014,7.0356,7.086,7.0897,7.0897,7.0897,7.0897,7.0897,7.0897,7.0897,7.0897,7.0897,7.0897,7.0897,7.0897,7.0897,7.0897,7.0897,7.0897,7.0897,7.0856,7.0897,7.0897,7.0897,7.0897,7.0897,7.0897,7.0897,7.0897,7.0897,7.0897,7.0897,7.0897,7.0897,7.0897,7.0897,7.0897,7.0629,7.0052,7.005,6.9741,6.9162,6.9085,6.9085,6.9087,6.9085,6.9085,6.9048,6.9085,6.8933,6.843,6.8622,6.8737,6.8776,6.8933,6.9087,6.9162,6.9666,7.0014,7.009,7.0437,7.1014,7.1168,7.1245,7.1323,7.1615,7.1676,7.1626,7.1668,7.2205,7.2556,7.2556,7.3124,7.293,7.1895,7.2129,7.2516,7.2629,7.3049,7.3327,7.3486,7.3486,7.3694,7.3644,7.3747,7.4054,7.4408,7.4388,7.4275,7.4827,7.5394,7.59,7.5981,7.5952,7.6039,7.0166,7.0785,7.0897,7.0897,7.0897,7.0897,7.0897,7.0897,7.0897,7.0897,7.0897,7.0897,7.0897,7.0897,7.0783,7.082,7.0821,7.0706,7.0666,7.0781,7.0781,7.0858,7.0897,7.0897,7.0897,7.0897,7.0897,7.0897,7.0897,7.0897,7.0897,7.0897,7.0935,7.0935,7.0974,7.105,7.0935,7.1091,7.1094,7.0974,7.0974,7.0974,7.1012,7.1049,7.0897,7.0897,7.0897,7.0897,7.0897,7.0897,7.0897,7.0897,7.0897,7.0897,7.0897,7.0897,7.0897,7.0897,7.082,7.0785,7.0741,7.0704,7.0591,7.0706,7.055,7.0552,7.055,7.0704,7.0591,7.0049,6.8931,6.9278,6.9627,6.9666,7.0281,7.0627,7.0704,7.0708,7.082,7.086,7.1052,7.1437,7.2054,7.2164,7.2491,7.2975,7.3269,7.3234,7.3157,7.329,7.3408,7.3437,7.3547,7.3509,7.3392,7.3357,7.3395,7.3549,7.3626,7.3699,7.3546,7.3582,7.4033,7.4447,7.4705,7.5045,7.5576,7.5751,7.5684,7.5838,7.5769,7.6082,7.6485,7.6548,7.66,7.0629,7.0897,7.0897,7.0897,7.0897,7.0897,7.0897,7.0897,7.0897,7.0897,7.0897,7.0897,7.0897,7.0897,7.0897,7.0897,7.0897,7.0897,7.0897,7.0897,7.0897,7.0897,7.0897,7.0897,7.0897,7.0897,7.0897,7.0897,7.0897,7.0897,7.0897,7.1014,7.1479,7.1708,7.1823,7.228,7.2554,7.2572,7.255,7.2582,7.2502,7.258,7.2587,7.2509,7.1475,7.0897,7.0897,7.0897,7.0897,7.0897,7.0897,7.0897,7.0897,7.0897,7.0897,7.0897,7.0897,7.0897,7.0897,7.0897,7.0897,7.0897,7.0897,7.0935,7.0897,7.0897,7.0897,7.0935,7.0897,7.0512,7.0283,7.0321,7.0473,7.0512,7.0704,7.0974,7.1014,7.1363,7.175,7.1825,7.2168,7.2701,7.2893,7.3042,7.3161,7.3409,7.3493,7.3548,7.3622,7.3909,7.4271,7.4392,7.4742,7.509,7.5126,7.4547,7.4317,7.4471,7.4624,7.5009,7.5048,7.5018,7.5414,7.5537,7.5726,7.6009,7.6497,7.6722,7.6734,7.6664,7.6638,7.652,7.7034,7.7017,7.7066,7.0897,7.0897,7.0897,7.0897,7.0897,7.0897,7.0897,7.0897,7.0897,7.0897,7.0897,7.0897,7.0897,7.0897,7.0897,7.0897,7.0897,7.0897,7.0897,7.0897,7.0897,7.0897,7.0897,7.0897,7.0897,7.097,7.1234,7.1311,7.1362,7.1631,7.1741,7.1822,7.2362,7.2629,7.2706,7.3201,7.3477,7.3493,7.3478,7.3464,7.3498,7.3488,7.3491,7.3313,7.2318,7.1743,7.1741,7.1745,7.1741,7.1743,7.1741,7.1741,7.1741,7.1743,7.1743,7.1739,7.178,7.1743,7.1743,7.1741,7.1741,7.1743,7.1745,7.1743,7.1743,7.1745,7.1743,7.1741,7.1741,7.1743,7.1743,7.1743,7.1627,7.1437,7.1552,7.1743,7.178,7.2283,7.2552,7.2668,7.3051,7.3507,7.3852,7.3885,7.4042,7.4242,7.429,7.4312,7.4389,7.4707,7.5092,7.5167,7.5774,7.6142,7.6306,7.6048,7.5422,7.547,7.5682,7.6133,7.634,7.6419,7.6494,7.6639,7.6788,7.7041,7.7292,7.7541,7.7583,7.7516,7.7196,7.6895,7.7232,7.743,7.7516,7.0897,7.0897,7.0897,7.0897,7.0897,7.0897,7.0897,7.0897,7.0897,7.0897,7.0897,7.0897,7.0897,7.0897,7.0897,7.0897,7.0897,7.0897,7.0897,7.0897,7.0897,7.0897,7.0897,7.0897,7.0975,7.1089,7.183,7.2219,7.2245,7.2858,7.3238,7.339,7.3392,7.3507,7.3507,7.3661,7.3661,7.3703,7.3783,7.3666,7.354,7.3702,7.3739,7.3696,7.3547,7.3509,7.3507,7.3392,7.3276,7.3315,7.3317,7.343,7.3278,7.3276,7.3392,7.3276,7.3392,7.3432,7.3353,7.3313,7.3199,7.3201,7.3353,7.3199,7.3124,7.3201,7.324,7.3163,7.3238,7.3315,7.3276,7.3357,7.3047,7.2439,7.2782,7.3161,7.3315,7.343,7.3507,7.3584,7.3778,7.3895,7.4471,7.4701,7.4972,7.5511,7.57,7.5734,7.576,7.5939,7.5957,7.6148,7.6619,7.7058,7.7348,7.7527,7.6914,7.6477,7.6718,7.7025,7.7067,7.7136,7.7242,7.7359,7.7483,7.7724,7.7941,7.8136,7.7844,7.7707,7.7429,7.7415,7.7612,7.7895,7.8015,7.0897,7.0897,7.0897,7.0897,7.0897,7.0897,7.0897,7.0897,7.0897,7.0897,7.0897,7.0897,7.0897,7.0897,7.0897,7.0897,7.0897,7.0897,7.0897,7.0897,7.0897,7.0897,7.0897,7.0897,7.1209,7.1863,7.2696,7.3115,7.3124,7.3393,7.3507,7.3584,7.4086,7.4315,7.4357,7.4895,7.5243,7.5243,7.5243,7.5242,7.5205,7.519,7.5229,7.5201,7.5205,7.5205,7.5167,7.4124,7.3546,7.3546,7.3507,7.3507,7.3507,7.3507,7.3507,7.3507,7.3507,7.3507,7.3507,7.3507,7.3546,7.3507,7.3507,7.3507,7.3507,7.3546,7.3546,7.3546,7.3507,7.3507,7.3584,7.4047,7.397,7.3206,7.3353,7.3584,7.3699,7.4009,7.4584,7.5088,7.5203,7.5359,7.5513,7.563,7.5786,7.602,7.6095,7.6247,7.6752,7.6799,7.7079,7.7515,7.7822,7.7845,7.7934,7.8065,7.7811,7.7411,7.7561,7.7641,7.7701,7.7842,7.7949,7.8012,7.8157,7.8293,7.8544,7.8645,7.8421,7.8294,7.8332,7.8306,7.8281,7.8391,7.8584,7.0897,7.0897,7.0897,7.0897,7.0897,7.0897,7.0897,7.0897,7.0897,7.0897,7.0897,7.0897,7.0897,7.0897,7.0897,7.0897,7.0897,7.0897,7.0897,7.0897,7.0897,7.0897,7.0975,7.1253,7.183,7.2705,7.3538,7.3923,7.3969,7.4278,7.4434,7.4549,7.4934,7.5203,7.5205,7.5707,7.5976,7.5976,7.5976,7.5976,7.5976,7.5976,7.5976,7.5976,7.5976,7.5976,7.5936,7.4972,7.4432,7.4432,7.4434,7.4434,7.4436,7.4472,7.4436,7.4434,7.443,7.4471,7.4432,7.4511,7.4434,7.4432,7.4432,7.4432,7.4432,7.4432,7.4434,7.4432,7.4472,7.4434,7.4547,7.4855,7.5053,7.4948,7.4668,7.4472,7.4511,7.4857,7.5319,7.5861,7.6207,7.644,7.648,7.6828,7.6874,7.692,7.6889,7.6985,7.752,7.7568,7.7935,7.8258,7.8389,7.8398,7.836,7.8485,7.8611,7.8447,7.829,7.8247,7.8177,7.8445,7.8604,7.8567,7.8615,7.8579,7.8778,7.9231,7.9263,7.9232,7.9112,7.9307,7.9314,7.9195,7.9281,7.0897,7.0897,7.0897,7.0897,7.0897,7.0897,7.0897,7.0897,7.0897,7.0897,7.0897,7.0897,7.0897,7.0897,7.0886,7.0879,7.089,7.0867,7.0976,7.1018,7.106,7.114,7.1395,7.215,7.2878,7.3586,7.4374,7.476,7.4815,7.5397,7.5976,7.5822,7.5784,7.5938,7.5897,7.5976,7.5976,7.5976,7.5976,7.5976,7.5976,7.5976,7.5976,7.5976,7.5976,7.5976,7.5938,7.5822,7.5822,7.5936,7.5784,7.5745,7.5899,7.5976,7.5822,7.5786,7.5938,7.5822,7.5899,7.5899,7.594,7.5936,7.6055,7.613,7.6128,7.6132,7.613,7.6132,7.613,7.6125,7.6158,7.6187,7.6502,7.7059,7.6533,7.6145,7.6112,7.6181,7.6315,7.6401,7.6844,7.7344,7.7324,7.7906,7.8127,7.8166,7.8122,7.8114,7.8273,7.8229,7.819,7.8503,7.8988,7.9124,7.9165,7.9402,7.9567,7.9572,7.9361,7.9148,7.8981,7.9195,7.9435,7.9349,7.9104,7.9025,7.9165,7.9639,7.9783,7.9567,7.9699,8.0163,8.0112,7.9819,7.9712,7.0897,7.0897,7.0897,7.0897,7.0897,7.0897,7.0897,7.0897,7.0895,7.0891,7.0895,7.0897,7.0888,7.089,7.0841,7.0818,7.0848,7.0803,7.1116,7.1571,7.165,7.2144,7.2841,7.3609,7.4105,7.4504,7.5137,7.5659,7.5665,7.5848,7.5969,7.5976,7.6007,7.5974,7.5976,7.5976,7.5976,7.5976,7.5976,7.5976,7.5976,7.5976,7.5976,7.5976,7.6016,7.6053,7.6015,7.5976,7.5976,7.5976,7.5976,7.5976,7.6092,7.6092,7.613,7.6132,7.6093,7.6053,7.617,7.6632,7.6943,7.7019,7.7405,7.7826,7.7867,7.7828,7.7828,7.7828,7.7825,7.7752,7.7741,7.7722,7.7894,7.7964,7.7816,7.7682,7.7616,7.7705,7.7703,7.7741,7.7863,7.8014,7.8091,7.8291,7.8456,7.8348,7.8363,7.8544,7.8918,7.896,7.8942,7.9384,7.9779,7.9933,8.0103,8.0344,8.0515,8.0658,8.0501,8.0314,8.0183,8.0175,8.0393,8.0501,7.9958,7.9766,7.9909,8.0213,8.0036,7.9941,8.0139,8.0449,8.0211,7.994,7.9975,7.0897,7.0897,7.0897,7.0897,7.0897,7.0897,7.0897,7.0891,7.0866,7.0852,7.0848,7.082,7.0808,7.0804,7.0765,7.0741,7.0776,7.1079,7.1478,7.1933,7.2667,7.3331,7.3943,7.4486,7.4797,7.5142,7.5618,7.5812,7.5868,7.5879,7.5893,7.5954,7.5963,7.5978,7.5976,7.5976,7.5976,7.5976,7.5976,7.5976,7.5976,7.5976,7.6247,7.644,7.6555,7.6632,7.6978,7.7055,7.694,7.667,7.6557,7.667,7.702,7.7057,7.7055,7.7057,7.7059,7.7055,7.7134,7.7559,7.7788,7.7867,7.8292,7.8446,7.8436,7.8492,7.8464,7.8383,7.8437,7.8363,7.8339,7.8537,7.8671,7.8687,7.8971,7.8911,7.8414,7.8179,7.8233,7.8297,7.8462,7.8668,7.8704,7.8977,7.9069,7.9038,7.9078,7.945,7.9869,7.9786,7.9855,8.0259,8.0534,8.0629,8.0623,8.0784,8.0804,8.0969,8.1196,8.1085,8.0926,8.0848,8.0749,8.0725,8.06,8.0519,8.0547,8.0581,8.0626,8.0609,8.0688,8.0828,8.076,8.0572,8.0542,7.0897,7.0897,7.0897,7.0893,7.0886,7.0886,7.0871,7.0859,7.0804,7.0779,7.0765,7.0736,7.0673,7.066,7.0628,7.0708,7.0856,7.142,7.1922,7.2604,7.3609,7.4512,7.4535,7.4725,7.512,7.5499,7.5654,7.5702,7.5703,7.5678,7.5759,7.581,7.5874,7.5929,7.5982,7.5967,7.5976,7.6016,7.6214,7.6289,7.6363,7.6478,7.6865,7.7328,7.7405,7.7674,7.8136,7.833,7.8138,7.7596,7.7482,7.7713,7.833,7.8446,7.8405,7.8328,7.8253,7.829,7.8442,7.8444,7.8625,7.8658,7.8769,7.8771,7.8927,7.8933,7.8915,7.8917,7.8615,7.8748,7.8883,7.9222,7.9624,7.9817,8.021,7.9831,7.9041,7.855,7.8425,7.8456,7.9141,7.9443,7.9705,8.0106,8.058,8.027,8.0251,8.0427,8.0655,8.0591,8.0774,8.1155,8.1273,8.1349,8.1267,8.1167,8.1086,8.1088,8.1488,8.1492,8.1237,8.105,8.0814,8.074,8.1103,8.1045,8.0778,8.0892,8.1128,8.1283,8.139,8.1754,8.2015,8.1635,8.1497,7.0897,7.0897,7.0897,7.0866,7.082,7.0815,7.0779,7.0727,7.0708,7.0688,7.0679,7.0603,7.0522,7.0551,7.0503,7.0713,7.1235,7.1604,7.2126,7.3583,7.4536,7.5051,7.5107,7.5228,7.545,7.5597,7.5619,7.5553,7.5489,7.5525,7.5631,7.5651,7.5799,7.5933,7.595,7.6044,7.6015,7.6134,7.6685,7.6997,7.7136,7.7555,7.7942,7.8252,7.8292,7.8367,7.8446,7.8484,7.875,7.8938,7.8711,7.848,7.8636,7.8638,7.8677,7.8673,7.8634,7.8557,7.8634,7.9156,7.9479,7.9452,7.9863,8.035,8.0312,8.0145,8.0097,8.012,8.0085,8.0161,8.045,8.119,8.1304,8.132,8.1516,8.1616,8.1363,8.0798,8.0413,8.0588,8.1006,8.1577,8.1537,8.1463,8.1619,8.1514,8.1436,8.1436,8.1401,8.1325,8.1519,8.1766,8.173,8.173,8.1664,8.157,8.1533,8.1448,8.1736,8.1896,8.16,8.1582,8.1427,8.1594,8.1907,8.1678,8.1298,8.1497,8.1774,8.1954,8.2039,8.2113,8.2186,8.2186,8.2186,7.0881,7.085,7.0848,7.0806,7.0778,7.0692,7.0651,7.0597,7.0525,7.0499,7.0469,7.0361,7.026,7.0288,7.053,7.0952,7.1437,7.2196,7.3117,7.4198,7.4852,7.503,7.5053,7.5185,7.5297,7.5313,7.533,7.5248,7.5189,7.5249,7.5313,7.538,7.5631,7.5993,7.628,7.6432,7.6759,7.7158,7.7534,7.7825,7.7949,7.8264,7.8769,7.9167,7.9481,7.9712,7.9752,7.9748,7.9977,8.0167,7.9977,7.971,7.971,7.9712,7.971,7.9708,7.9667,7.9615,7.9799,7.9992,8.0235,8.0149,8.0569,8.0898,8.1069,8.106,8.1201,8.1392,8.1428,8.1444,8.1639,8.1663,8.1933,8.191,8.1956,8.1949,8.1864,8.1655,8.1508,8.1547,8.1612,8.1759,8.1915,8.215,8.1923,8.1518,8.1333,8.137,8.1764,8.1747,8.1902,8.206,8.2049,8.2022,8.2046,8.201,8.199,8.1942,8.2009,8.2104,8.1965,8.2055,8.2181,8.2217,8.2183,8.2189,8.1901,8.2186,8.2186,8.215,8.2113,8.215,8.2186,8.2186,8.2186,7.0824,7.0754,7.0754,7.0703,7.0613,7.0479,7.0425,7.0389,7.0294,7.0221,7.0182,7.0021,6.995,7.0062,7.0632,7.1039,7.1844,7.2874,7.404,7.4573,7.4694,7.4752,7.4742,7.4762,7.4775,7.4844,7.4927,7.4842,7.4775,7.4839,7.5108,7.5221,7.5555,7.6177,7.6762,7.709,7.7404,7.8022,7.8339,7.8565,7.87,7.8884,7.9385,7.9907,8.0416,8.0776,8.0748,8.083,8.0988,8.1073,8.1073,8.1065,8.1057,8.1071,8.1063,8.0974,8.0708,8.0706,8.0822,8.0963,8.0959,8.0877,8.0958,8.1198,8.1603,8.1606,8.1714,8.2065,8.2201,8.2153,8.2028,8.2165,8.2012,8.1971,8.1894,8.1822,8.1816,8.1981,8.2087,8.2005,8.2206,8.2321,8.2163,8.2198,8.1848,8.1552,8.1418,8.1438,8.1837,8.2119,8.2258,8.2264,8.2217,8.2123,8.2126,8.2113,8.2169,8.2169,8.2198,8.2194,8.2186,8.2215,8.2247,8.2223,8.2186,8.2186,8.2186,8.2186,8.2186,8.2186,8.2186,8.2186,8.2186,8.2186,8.2186,7.0664,7.0542,7.0542,7.0495,7.0351,7.0213,7.0129,7.0089,6.994,6.9889,6.9858,6.9681,6.9587,6.9796,7.0266,7.1288,7.2636,7.3672,7.4241,7.449,7.4495,7.4465,7.4397,7.4366,7.4308,7.4283,7.4355,7.4397,7.4347,7.4478,7.4984,7.5549,7.6004,7.6651,7.7289,7.7646,7.7934,7.8482,7.8951,7.9234,7.9442,7.9865,8.02,8.053,8.0762,8.0836,8.0928,8.0943,8.0947,8.0947,8.0945,8.0942,8.1052,8.1047,8.1043,8.0973,8.1048,8.1267,8.1605,8.1695,8.1891,8.2167,8.2106,8.2082,8.2125,8.1983,8.199,8.2126,8.2414,8.2503,8.2498,8.2701,8.3131,8.3173,8.3049,8.2977,8.293,8.2811,8.2647,8.2467,8.2689,8.2875,8.2589,8.2426,8.232,8.2159,8.2097,8.2046,8.2224,8.2384,8.2461,8.2443,8.2368,8.2273,8.2202,8.2194,8.2186,8.2194,8.219,8.219,8.2186,8.2186,8.2186,8.2186,8.2186,8.2186,8.2186,8.2186,8.2186,8.2186,8.2186,8.2186,8.2186,8.2186,8.2186,7.0467,7.03,7.0298,7.0196,7.0019,6.9868,6.978,6.9717,6.9572,6.9496,6.9448,6.9326,6.9469,6.9881,7.0548,7.1831,7.3206,7.3826,7.409,7.4134,7.4131,7.4113,7.4043,7.3961,7.3819,7.3746,7.3761,7.3929,7.4003,7.4627,7.5047,7.5495,7.6231,7.7085,7.7837,7.824,7.8647,7.9126,7.9607,7.987,7.9997,8.0488,8.0607,8.0645,8.065,8.0661,8.0805,8.128,8.1421,8.156,8.1838,8.1956,8.1934,8.1818,8.1693,8.1485,8.1654,8.194,8.222,8.2222,8.2224,8.22,8.2287,8.2394,8.2428,8.2332,8.2206,8.2457,8.2539,8.2762,8.2751,8.3045,8.3129,8.3132,8.3146,8.3124,8.305,8.2934,8.2813,8.265,8.2701,8.2787,8.2846,8.2761,8.2798,8.2798,8.2705,8.2625,8.2541,8.2504,8.2447,8.2398,8.2311,8.2267,8.2215,8.2203,8.2186,8.2186,8.2186,8.2186,8.2186,8.2186,8.2186,8.2186,8.2186,8.2186,8.2186,8.2186,8.2186,8.2186,8.2186,8.2186,8.2186,8.2186,8.2186,7.0243,6.9995,6.9952,6.9841,6.9683,6.9458,6.9396,6.9339,6.9203,6.9097,6.9055,6.913,6.9412,7.0036,7.1012,7.2202,7.36,7.3647,7.3675,7.3719,7.3715,7.3691,7.3619,7.358,7.3549,7.3738,7.3632,7.3507,7.3983,7.458,7.5116,7.5841,7.6642,7.7531,7.8369,7.8707,7.9448,7.9891,8.0207,8.0256,8.0339,8.0366,8.0499,8.0611,8.0611,8.0769,8.1212,8.1685,8.2045,8.2228,8.254,8.2901,8.2885,8.2934,8.2711,8.2353,8.2658,8.2754,8.2781,8.2702,8.2606,8.2547,8.2347,8.2532,8.2615,8.2651,8.2549,8.2906,8.2931,8.2834,8.2794,8.2797,8.2745,8.2741,8.2764,8.2705,8.268,8.2669,8.2645,8.2585,8.2602,8.2637,8.2696,8.2626,8.2567,8.2531,8.2474,8.2461,8.2378,8.2321,8.2284,8.2243,8.2223,8.2223,8.2194,8.2194,8.2186,8.2186,8.2186,8.2186,8.2186,8.2186,8.2186,8.2186,8.2186,8.2186,8.2186,8.2186,8.2186,8.2186,8.2186,8.2186,8.2186,8.2186,8.2186,6.9863,6.9584,6.9544,6.9458,6.9257,6.9117,6.8998,6.8892,6.8803,6.8678,6.8744,6.919,6.9487,7.0039,7.1119,7.2246,7.2952,7.3231,7.3296,7.3374,7.3381,7.3325,7.3217,7.3181,7.3576,7.3911,7.404,7.4081,7.4367,7.4644,7.5392,7.6482,7.7057,7.7842,7.8727,7.8967,7.9416,7.9715,7.9806,7.9884,7.9952,8.0027,8.0447,8.0835,8.1076,8.1349,8.1928,8.2345,8.2558,8.269,8.2683,8.2686,8.2656,8.3152,8.3249,8.3013,8.2837,8.2731,8.3031,8.3089,8.31,8.3062,8.3185,8.3237,8.2987,8.2801,8.2716,8.2707,8.2715,8.27,8.268,8.2705,8.2694,8.267,8.2644,8.256,8.2492,8.2472,8.2436,8.2388,8.2388,8.242,8.2431,8.2348,8.2251,8.2251,8.2251,8.2231,8.2219,8.2198,8.2186,8.2186,8.2186,8.2186,8.2186,8.2186,8.2186,8.2186,8.2186,8.2186,8.2186,8.2186,8.2186,8.2186,8.2186,8.2186,8.2186,8.2186,8.2186,8.2186,8.2186,8.2186,8.2186,8.2186,8.2186,6.9264,6.9222,6.9117,6.9034,6.8898,6.8707,6.8592,6.852,6.8408,6.8609,6.8947,6.9217,6.985,7.0772,7.184,7.2535,7.298,7.3034,7.3068,7.3128,7.3131,7.3101,7.3185,7.3392,7.3808,7.4104,7.4461,7.4959,7.5146,7.5532,7.6189,7.6704,7.7418,7.7967,7.8692,7.8878,7.9088,7.9424,7.9774,8.0043,8.0177,8.0507,8.0932,8.1268,8.1309,8.1684,8.2193,8.2751,8.3004,8.3212,8.3392,8.3608,8.3584,8.3702,8.3687,8.3544,8.3291,8.3262,8.3385,8.3382,8.3332,8.3204,8.3194,8.2998,8.2768,8.2674,8.2569,8.2424,8.2408,8.2416,8.242,8.2413,8.2421,8.2425,8.2453,8.2417,8.2332,8.2312,8.228,8.2223,8.2194,8.2263,8.2275,8.2263,8.2207,8.2215,8.2219,8.2211,8.2203,8.2194,8.2186,8.2186,8.2186,8.2186,8.2186,8.2186,8.2186,8.2186,8.2186,8.2186,8.2186,8.2186,8.2186,8.2186,8.2186,8.2186,8.2186,8.2186,8.2186,8.2186,8.2186,8.2186,8.2186,8.2186,8.2186,6.8722,6.8769,6.8705,6.8611,6.856,6.8321,6.8222,6.8212,6.8341,6.8667,6.9217,6.968,7.0642,7.1698,7.2344,7.2686,7.2831,7.2882,7.2879,7.2879,7.2916,7.2989,7.3279,7.3633,7.4069,7.4429,7.5044,7.5616,7.622,7.6597,7.6737,7.6865,7.7479,7.8004,7.8271,7.8485,7.8711,7.9282,7.9727,8.01,8.0406,8.0919,8.128,8.1555,8.1676,8.1868,8.2338,8.2928,8.3437,8.3651,8.385,8.3941,8.3969,8.371,8.3573,8.3459,8.3295,8.3213,8.323,8.3191,8.3146,8.2949,8.2732,8.2628,8.2443,8.2335,8.2311,8.2239,8.2227,8.2215,8.219,8.2203,8.2227,8.2239,8.2223,8.2198,8.219,8.2215,8.2231,8.2207,8.2186,8.2186,8.2219,8.2207,8.219,8.219,8.2186,8.2186,8.2186,8.2186,8.2186,8.2186,8.2186,8.2186,8.2186,8.2186,8.2186,8.2186,8.2186,8.2186,8.2186,8.2186,8.2186,8.2186,8.2186,8.2186,8.2186,8.2186,8.2186,8.2186,8.2186,8.2186,8.2186,8.2186,8.2186,6.8256,6.8162,6.8281,6.8256,6.8143,6.8108,6.8022,6.8112,6.8696,6.8977,6.9374,7.0435,7.1565,7.2245,7.2443,7.2542,7.2583,7.2528,7.2564,7.256,7.2601,7.3059,7.3497,7.3964,7.4555,7.5576,7.5946,7.6452,7.7003,7.7045,7.7309,7.7547,7.7559,7.7783,7.8008,7.8235,7.8752,7.9315,7.9793,8.0168,8.0582,8.0963,8.1272,8.1828,8.2081,8.2489,8.3385,8.3515,8.3613,8.3764,8.3699,8.3675,8.3627,8.3403,8.319,8.3125,8.3002,8.2904,8.2798,8.2859,8.2778,8.2526,8.2384,8.2332,8.2263,8.2223,8.2194,8.2198,8.219,8.2186,8.2186,8.2186,8.2186,8.2186,8.2186,8.2186,8.2186,8.219,8.2198,8.219,8.2186,8.2186,8.2186,8.2186,8.2186,8.2186,8.2186,8.2186,8.2186,8.2186,8.2186,8.2186,8.2186,8.2186,8.2186,8.2186,8.2186,8.2186,8.2186,8.2186,8.2186,8.2186,8.2186,8.2186,8.2186,8.2186,8.2186,8.2186,8.2186,8.2186,8.2186,8.2186,8.2186,8.2186,8.2186,6.7994,6.787,6.7926,6.7968,6.7951,6.7906,6.8125,6.8509,6.8866,6.9567,7.043,7.1527,7.2195,7.2455,7.2529,7.2529,7.2529,7.2532,7.2529,7.2712,7.2973,7.3384,7.3898,7.4702,7.555,7.6126,7.6562,7.6926,7.7212,7.7322,7.7304,7.7406,7.7473,7.7557,7.7754,7.8382,7.9084,7.9795,8.0376,8.0891,8.1144,8.1734,8.2079,8.2325,8.2426,8.2687,8.3087,8.3201,8.3324,8.3374,8.3259,8.3197,8.3183,8.2961,8.2828,8.2736,8.2674,8.2546,8.2447,8.2514,8.2479,8.2364,8.2231,8.2186,8.2186,8.2186,8.2186,8.219,8.2186,8.2186,8.2186,8.2186,8.2186,8.2186,8.2186,8.2186,8.2186,8.2186,8.2186,8.2186,8.2186,8.2186,8.2186,8.2186,8.2186,8.2186,8.2186,8.2186,8.2186,8.2186,8.2186,8.2186,8.2186,8.2186,8.2186,8.2186,8.2186,8.2186,8.2186,8.2186,8.2186,8.2186,8.2186,8.2186,8.2186,8.2186,8.2186,8.2186,8.2186,8.2186,8.2186,8.2186,8.2186,8.2186,8.2186,6.7797,6.7704,6.77,6.7757,6.7867,6.7994,6.8385,6.8928,6.9479,7.0356,7.1674,7.2272,7.2529,7.2529,7.2529,7.2529,7.2529,7.2529,7.2712,7.2973,7.338,7.3935,7.4665,7.5395,7.6089,7.6489,7.6922,7.7322,7.7322,7.7322,7.7329,7.737,7.755,7.7833,7.8093,7.8804,7.9644,8.0432,8.0945,8.1552,8.1693,8.216,8.248,8.2485,8.2532,8.2618,8.2778,8.2862,8.2934,8.2957,8.2885,8.2786,8.2713,8.2665,8.2567,8.2504,8.2448,8.2339,8.2331,8.2315,8.2312,8.2227,8.2203,8.2186,8.2186,8.2186,8.2186,8.2186,8.2186,8.2186,8.2186,8.2186,8.2186,8.2186,8.2186,8.2186,8.2186,8.2186,8.2186,8.2186,8.2186,8.2186,8.2186,8.2186,8.2186,8.2186,8.2186,8.2186,8.2186,8.2186,8.2186,8.2186,8.2186,8.2186,8.2186,8.2186,8.2186,8.2186,8.2186,8.2186,8.2186,8.2186,8.2186,8.2186,8.2186,8.2186,8.2186,8.2186,8.2186,8.2186,8.2186,8.2186,8.2186,8.2186,8.2186,6.7704,6.77,6.77,6.7707,6.7868,6.8535,6.8888,6.9222,7.0536,7.1604,7.2305,7.2492,7.2529,7.2529,7.2529,7.2529,7.2565,7.2602,7.2896,7.3454,7.4004,7.4735,7.5469,7.6163,7.6595,7.7138,7.7322,7.7322,7.7322,7.7322,7.7322,7.7766,7.8288,7.8744,7.8715,7.9387,8.0177,8.0869,8.1078,8.1565,8.1966,8.2239,8.2267,8.2312,8.2388,8.2439,8.2479,8.2602,8.2669,8.2665,8.2538,8.2467,8.2439,8.2356,8.2276,8.2251,8.2235,8.2211,8.2203,8.2207,8.2203,8.2198,8.2186,8.2186,8.2186,8.2186,8.2186,8.2186,8.2186,8.2186,8.2186,8.2186,8.2186,8.2186,8.2186,8.2186,8.2186,8.2186,8.2186,8.2186,8.2186,8.2186,8.2186,8.2186,8.2186,8.2186,8.2186,8.2186,8.2186,8.2186,8.2186,8.2186,8.2186,8.2186,8.2186,8.2186,8.2186,8.2186,8.2186,8.2186,8.2186,8.2186,8.2186,8.2186,8.2186,8.2186,8.2186,8.2186,8.2186,8.2186,8.2186,8.2186,8.2186,8.2186,8.2186,6.77,6.77,6.77,6.7984,6.8491,6.8781,6.9185,6.9926,7.1317,7.2232,7.2455,7.2529,7.2529,7.2529,7.2529,7.2529,7.2602,7.3193,7.36,7.3784,7.4661,7.5432,7.6126,7.6632,7.6991,7.7212,7.7322,7.7322,7.7322,7.7395,7.777,7.8255,7.9356,8.0127,8.0241,8.0575,8.1011,8.1651,8.1823,8.1946,8.2154,8.2186,8.219,8.2198,8.2259,8.2288,8.2292,8.2384,8.24,8.24,8.2308,8.2296,8.2255,8.2194,8.219,8.2186,8.2186,8.2186,8.2186,8.2194,8.219,8.2186,8.2186,8.2186,8.2186,8.2186,8.2186,8.2186,8.2186,8.2186,8.2186,8.2186,8.2186,8.2186,8.2186,8.2186,8.2186,8.2186,8.2186,8.2186,8.2186,8.2186,8.2186,8.2186,8.2186,8.2186,8.2186,8.2186,8.2186,8.2186,8.2186,8.2186,8.2186,8.2186,8.2186,8.2186,8.2186,8.2186,8.2186,8.2186,8.2186,8.2186,8.2186,8.2186,8.2186,8.2186,8.2186,8.2186,8.2186,8.2186,8.2186,8.2186,8.2186,8.2186,8.2186,6.77,6.77,6.77,6.8168,6.8892,6.9185,6.9889,7.0991,7.2055,7.2529,7.2529,7.2529,7.2529,7.2529,7.2529,7.2753,7.2936,7.338,7.4338,7.4518,7.5506,7.6163,7.6632,7.6991,7.7175,7.7322,7.7322,7.7322,7.7358,7.7623,7.8398,7.9503,8.0457,8.0934,8.1228,8.1489,8.164,8.2056,8.2084,8.2117,8.2186,8.2186,8.2186,8.219,8.2198,8.2194,8.219,8.2186,8.2186,8.2186,8.2186,8.2186,8.2186,8.2186,8.2186,8.2186,8.2186,8.2186,8.2186,8.2186,8.2186,8.2186,8.2186,8.2186,8.2186,8.2186,8.2186,8.2186,8.2186,8.2186,8.2186,8.2186,8.2186,8.2186,8.2186,8.2186,8.2186,8.2186,8.2186,8.2186,8.2186,8.2186,8.2186,8.2186,8.2186,8.2186,8.2186,8.2186,8.2186,8.2186,8.2186,8.2186,8.2186,8.2186,8.2186,8.2186,8.2186,8.2186,8.2186,8.2186,8.2186,8.2186,8.2186,8.2186,8.2186,8.2186,8.2186,8.2186,8.2186,8.2186,8.2186,8.2186,8.2186,8.2186,8.2186,6.77,6.77,6.77,6.8171,6.9002,6.9889,7.1068,7.2419,7.2492,7.2529,7.2529,7.2529,7.2529,7.2529,7.2529,7.2899,7.3564,7.3751,7.4665,7.5583,7.6163,7.6669,7.6995,7.7248,7.7322,7.7322,7.7318,7.7424,7.7465,7.8471,7.9649,8.053,8.1012,8.1489,8.1856,8.2003,8.208,8.215,8.2186,8.2186,8.2186,8.2186,8.2186,8.2186,8.2186,8.2186,8.2186,8.2186,8.2186,8.2186,8.2186,8.2186,8.2186,8.2186,8.2186,8.2186,8.2186,8.2186,8.2186,8.2186,8.2186,8.2186,8.2186,8.2186,8.2186,8.2186,8.2186,8.2186,8.2186,8.2186,8.2186,8.2186,8.2186,8.2186,8.2186,8.2186,8.2186,8.2186,8.2186,8.2186,8.2186,8.2186,8.2186,8.2186,8.2186,8.2186,8.2186,8.2186,8.2186,8.2186,8.2186,8.2186,8.2186,8.2186,8.2186,8.2186,8.2186,8.2186,8.2186,8.2186,8.2186,8.2186,8.2186,8.2186,8.2186,8.2186,8.2186,8.2186,8.2186,8.2186,8.2186,8.2186,8.2186,8.2186,8.2186,6.77,6.77,6.77,6.8505,6.9853,7.1211,7.2092,7.2492,7.2529,7.2529,7.2529,7.2529,7.2529,7.2529,7.2529,7.305,7.3674,7.4371,7.5135,7.5939,7.6636,7.7036,7.7215,7.7322,7.7322,7.7322,7.7391,7.7706,7.8445,7.9467,8.0277,8.0934,8.1525,8.1929,8.2076,8.2186,8.2186,8.2186,8.2186,8.2186,8.2186,8.2186,8.2186,8.2186,8.2186,8.2186,8.2186,8.2186,8.2186,8.2186,8.2186,8.2186,8.2186,8.2186,8.2186,8.2186,8.2186,8.2186,8.2186,8.2186,8.2186,8.2186,8.2186,8.2186,8.2186,8.2186,8.2186,8.2186,8.2186,8.2186,8.2186,8.2186,8.2186,8.2186,8.2186,8.2186,8.2186,8.2186,8.2186,8.2186,8.2186,8.2186,8.2186,8.2186,8.2186,8.2186,8.2186,8.2186,8.2186,8.2186,8.2186,8.2186,8.2186,8.2186,8.2186,8.2186,8.2186,8.2186,8.2186,8.2186,8.2186,8.2186,8.2186,8.2186,8.2186,8.2186,8.2186,8.2186,8.2186,8.2186,8.2186,8.2186,8.2186,8.2186,8.2186,6.77,6.77,6.77,6.8615,7.0227,7.1795,7.2529,7.2529,7.2529,7.2529,7.2529,7.2529,7.2529,7.2569,7.2863,7.3454,7.4258,7.5061,7.5865,7.6592,7.7069,7.7212,7.7285,7.7322,7.7322,7.7358,7.7685,7.8139,7.8983,8.0152,8.104,8.1525,8.208,8.2117,8.2186,8.2186,8.2186,8.2186,8.2186,8.2186,8.2186,8.2186,8.2186,8.2186,8.2186,8.2186,8.2186,8.2186,8.2186,8.2186,8.2186,8.2186,8.2186,8.2186,8.2186,8.2186,8.2186,8.2186,8.2186,8.2186,8.2186,8.2186,8.2186,8.2186,8.2186,8.2186,8.2186,8.2186,8.2186,8.2186,8.2186,8.2186,8.2186,8.2186,8.2186,8.2186,8.2186,8.2186,8.2186,8.2186,8.2186,8.2186,8.2186,8.2186,8.2186,8.2186,8.2186,8.2186,8.2186,8.2186,8.2186,8.2186,8.2186,8.2186,8.2186,8.2186,8.2186,8.2186,8.2186,8.2186,8.2186,8.2186,8.2186,8.2186,8.2186,8.2186,8.2186,8.2186,8.2186,8.2186,8.2186,8.2186,8.2186,8.2186,8.2186,6.77,6.7697,6.7851,6.8802,7.0223,7.1798,7.2529,7.2529,7.2529,7.2529,7.2529,7.2529,7.2569,7.2826,7.3266,7.4111,7.4882,7.5689,7.6302,7.7244,7.7248,7.7322,7.7322,7.7322,7.7447,7.7704,7.8096,7.8627,7.9252,8.0417,8.1632,8.2186,8.2186,8.2186,8.2186,8.2186,8.2186,8.2186,8.2186,8.2186,8.2186,8.2186,8.2186,8.2186,8.2186,8.2186,8.2186,8.2186,8.2186,8.2186,8.2186,8.2186,8.2186,8.2186,8.2186,8.2186,8.2186,8.2186,8.2186,8.2186,8.2186,8.2186,8.2186,8.2186,8.2186,8.2186,8.2186,8.2186,8.2186,8.2186,8.2186,8.2186,8.2186,8.2186,8.2186,8.2186,8.2186,8.2186,8.2186,8.2186,8.2186,8.2186,8.2186,8.2186,8.2186,8.2186,8.2186,8.2186,8.2186,8.2186,8.2186,8.2186,8.2186,8.2186,8.2186,8.2186,8.2186,8.2186,8.2186,8.2186,8.2186,8.2186,8.2186,8.2186,8.2186,8.2186,8.2186,8.2186,8.2186,8.2186,8.2186,8.2186,8.2186,8.2186,8.2186,6.77,6.7807,6.9019,6.9786,7.03,7.1831,7.2529,7.2529,7.2529,7.2529,7.2529,7.2565,7.2863,7.3344,7.3707,7.4551,7.5616,7.6089,7.6595,7.7065,7.7285,7.7322,7.7358,7.7436,7.7691,7.8162,7.8665,7.934,8.0323,8.133,8.1929,8.215,8.2186,8.2186,8.2186,8.2186,8.2186,8.2186,8.2186,8.2186,8.2186,8.2186,8.2186,8.2186,8.2186,8.2186,8.2186,8.2186,8.2186,8.2186,8.2186,8.2186,8.2186,8.2186,8.2186,8.2186,8.2186,8.2186,8.2186,8.2186,8.2186,8.2186,8.2186,8.2186,8.2186,8.2186,8.2186,8.2186,8.2186,8.2186,8.2186,8.2186,8.2186,8.2186,8.2186,8.2186,8.2186,8.2186,8.2186,8.2186,8.2186,8.2186,8.2186,8.2186,8.2186,8.2186,8.2186,8.2186,8.2186,8.2186,8.2186,8.2186,8.2186,8.2186,8.2186,8.2186,8.2186,8.2186,8.2186,8.2186,8.2186,8.2186,8.2186,8.2186,8.2186,8.2186,8.2186,8.2186,8.2186,8.2186,8.2186,8.2186,8.2186,8.2186,8.2186,6.77,6.7884,6.9423,7.011,7.041,7.1835,7.2529,7.2529,7.2529,7.2709,7.3013,7.3046,7.3303,7.3935,7.4371,7.4992,7.6126,7.6489,7.6885,7.7212,7.7358,7.7322,7.7395,7.7696,7.8085,7.8597,7.9499,8.0409,8.1407,8.1819,8.215,8.2186,8.2186,8.2186,8.2186,8.2186,8.2186,8.2186,8.2186,8.2186,8.2186,8.2186,8.2186,8.2186,8.2186,8.2186,8.2186,8.2186,8.2186,8.2186,8.2186,8.2186,8.2186,8.2186,8.2186,8.2186,8.2186,8.2186,8.2186,8.2186,8.2186,8.2186,8.2186,8.2186,8.2186,8.2186,8.2186,8.2186,8.2186,8.2186,8.2186,8.2186,8.2186,8.2186,8.2186,8.2186,8.2186,8.2186,8.2186,8.2186,8.2186,8.2186,8.2186,8.2186,8.2186,8.2186,8.2186,8.2186,8.2186,8.2186,8.2186,8.2186,8.2186,8.2186,8.2186,8.2186,8.2186,8.2186,8.2186,8.2186,8.2186,8.2186,8.2186,8.2186,8.2186,8.2186,8.2186,8.2186,8.2186,8.2186,8.2186,8.2186,8.2186,8.2186,8.2186,6.7771,6.8068,6.9489,7.0187,7.048,7.1835,7.2529,7.2529,7.2642,7.3046,7.3678,7.3935,7.4004,7.4555,7.5326,7.5873,7.6383,7.6852,7.7212,7.7358,7.7513,7.766,7.7957,7.8332,7.8819,7.9509,8.0433,8.1204,8.2039,8.2186,8.2186,8.2186,8.2186,8.2186,8.2186,8.2186,8.2186,8.2186,8.2186,8.2186,8.2186,8.2186,8.2186,8.2186,8.2186,8.2186,8.2186,8.2186,8.2186,8.2186,8.2186,8.2186,8.2186,8.2186,8.2186,8.2186,8.2186,8.2186,8.2186,8.2186,8.2186,8.2186,8.2186,8.2186,8.2186,8.2186,8.2186,8.2186,8.2186,8.2186,8.2186,8.2186,8.2186,8.2186,8.2186,8.2186,8.2186,8.2186,8.2186,8.2186,8.2186,8.2186,8.2186,8.2186,8.2186,8.2186,8.2186,8.2186,8.2186,8.2186,8.2186,8.2186,8.2186,8.2186,8.2186,8.2186,8.2186,8.2186,8.2186,8.2186,8.2186,8.2186,8.2186,8.2186,8.2186,8.2186,8.2186,8.2186,8.2186,8.2186,8.2186,8.2186,8.2186,8.2186,8.2186,6.8094,6.8748,6.9706,7.0473,7.1164,7.2088,7.2529,7.2602,7.3197,7.36,7.4081,7.5142,7.5652,7.5612,7.5869,7.6346,7.6926,7.7326,7.7322,7.7322,7.8071,7.8291,7.8593,7.9163,7.989,8.0645,8.133,8.1888,8.2186,8.2186,8.2186,8.2186,8.2186,8.2186,8.2186,8.2186,8.2186,8.2186,8.2186,8.2186,8.2186,8.2186,8.2186,8.2186,8.2186,8.2186,8.2186,8.2186,8.2186,8.2186,8.2186,8.2186,8.2186,8.2186,8.2186,8.2186,8.2186,8.2186,8.2186,8.2186,8.2186,8.2186,8.2186,8.2186,8.2186,8.2186,8.2186,8.2186,8.2186,8.2186,8.2186,8.2186,8.2186,8.2186,8.2186,8.2186,8.2186,8.2186,8.2186,8.2186,8.2186,8.2186,8.2186,8.2186,8.2186,8.2186,8.2186,8.2186,8.2186,8.2186,8.2186,8.2186,8.2186,8.2186,8.2186,8.2186,8.2186,8.2186,8.2186,8.2186,8.2186,8.2186,8.2186,8.2186,8.2186,8.2186,8.2186,8.2186,8.2186,8.2186,8.2186,8.2186,8.2186,8.2186,8.2186]},{"header":{"parameterUnit":"m.s-1","parameterCategory":1,"la1":31.0,"la2":29.5877,"lo1":-88.7671,"lo2":-86.6584,"dy":0.0162,"dx":0.0185,"nx":115,"ny":88,"refTime":"2024-02-16T18:00:00:Z","depth":0,"parameterNumber":3,"parameterNumberName":"V-component_of_WINDS"},"data":[0.0,0.0,0.0,0.0,0.0,0.0,0.0,0.0,0.0,0.0,0.0,0.0,0.0,0.0,0.0,0.0,0.0,0.0,0.0,0.0,0.0,0.0,0.0,0.0,0.0,0.0,0.0,0.0,0.0,0.0,0.0,0.0,0.0,0.0,0.0,0.0,0.0,0.0,0.0,0.0,0.0,0.0,0.0,0.0,0.0,0.0,0.0,0.0,0.0,0.0,0.0,0.0,0.0,0.0,0.0,0.0,0.0,0.0,0.0,0.0,0.0,0.0,0.0,0.0,0.0,0.0,0.0,0.0,0.0,0.0,0.0,0.0,0.0,0.0,0.0,0.0,0.0,0.0,0.0,0.0,0.0,0.0,0.0,0.0,0.0,0.0,0.0,0.0,0.0,0.0,0.0,0.0,0.0,0.0,0.0,0.0,0.0,0.0,0.0,0.0,0.0,0.0,0.0,0.0,0.0,0.0,0.0,0.0,0.0,0.0,0.0,0.0,0.0,0.0,0.0,0.0,0.0,0.0,0.0,0.0,0.0,0.0,0.0,0.0,0.0,0.0,0.0,0.0,0.0,0.0,0.0,0.0,0.0,0.0,0.0,0.0,0.0,0.0,0.0,0.0,0.0,0.0,0.0,0.0,0.0,0.0,0.0,0.0,0.0,0.0,0.0,0.0,0.0,0.0,0.0,0.0,0.0,0.0,0.0,0.0,0.0,0.0,0.0,0.0,0.0,0.0,0.0,0.0,0.0,0.0,0.0,0.0,0.0,0.0,0.0,0.0,0.0,0.0,0.0,0.0,0.0,0.0,0.0,0.0,0.0,0.0,0.0,0.0,0.0,0.0,0.0,0.0,0.0,0.0,0.0,0.0,0.0,0.0,0.0,0.0,0.0,0.0,0.0,0.0,0.0,0.0,0.0,0.0,0.0,0.0,0.0,0.0,0.0,0.0,0.0,0.0,0.0,0.0,0.0,0.0,0.0,0.0,0.0,0.0,0.0,0.0,0.0,0.0,0.0,0.0,0.0,0.0,0.0,0.0,0.0,0.0,0.0,0.0,0.0,0.0,0.0,0.0,0.0,0.0,0.0,0.0,0.0,0.0,0.0,0.0,0.0,0.0,0.0,0.0,0.0,0.0,0.0,0.0,0.0,0.0,0.0,0.0,0.0,0.0,0.0,0.0,0.0,0.0,0.0,0.0,0.0,0.0,0.0,0.0,0.0,0.0,0.0,0.0,0.0,0.0,0.0,0.0,0.0,0.0,0.0,0.0,0.0,0.0,0.0,0.0,0.0,0.0,0.0,0.0,0.0,0.0,0.0,0.0,0.0,0.0,0.0,0.0,0.0,0.0,0.0,0.0,0.0,0.0,0.0,0.0,0.0,0.0,0.0,0.0,0.0,0.0,0.0,0.0,0.0,0.0,0.0,0.0,0.0,0.0,0.0,0.0,0.0,0.0,0.0,0.0,0.0,0.0,0.0,0.0,0.0,0.0,0.0,0.0,0.0,0.0,0.0,0.0,0.0,0.0,0.0,0.0,0.0,0.0,0.0,0.0,0.0,0.0,0.0,0.0,0.0,0.0,0.0,0.0,0.0,0.0,0.0,0.0,0.0,0.0,0.0,0.0,0.0,0.0,0.0,0.0,0.0,0.0,0.0,0.0,0.0,0.0,0.0,0.0,0.0,0.0,0.0,0.0,0.0,0.0,0.0,0.0,0.0,0.0,0.0,0.0,0.0,0.0,0.0,0.0,0.0,0.0,0.0,0.0,0.0,0.0,0.0,0.0,0.0,0.0,0.0,0.0,0.0,0.0,0.0,0.0,0.0,0.0,0.0,0.0,0.0,0.0,0.0,0.0,0.0,0.0,0.0,0.0,0.0,0.0,0.0,0.0,0.0,0.0,0.0,0.0,0.0,0.0,0.0,0.0,0.0,0.0,0.0,0.0,0.0,0.0,0.0,0.0,0.0,0.0,0.0,0.0,0.0,0.0,0.0,0.0,0.0,0.0,0.0,0.0,0.0,0.0,0.0,0.0,0.0,0.0,0.0,0.0,0.0,0.0,0.0,0.0,0.0,0.0,0.0,0.0,0.0,0.0,0.0,0.0,0.0,0.0,0.0,0.0,0.0,0.0,0.0,0.0,0.0,0.0,0.0,0.0,0.0,0.0,0.0,0.0,0.0,0.0,0.0,0.0,0.0,0.0,0.0,0.0,0.0,0.0,0.0,0.0,0.0,0.0,0.0,0.0,0.0,0.0,0.0,0.0,0.0,0.0,0.0,0.0,0.0,0.0,0.0,0.0,0.0,0.0,0.0,0.0,0.0,0.0,0.0,0.0,0.0,0.0,0.0,0.0,0.0,0.0,0.0,0.0,0.0,0.0,0.0,0.0,0.0,0.0,0.0,0.0,0.0,0.0,0.0,0.0,0.0,0.0,0.0,0.0,0.0,0.0,0.0,0.0,0.0,0.0,0.0,0.0,0.0,0.0,0.0,0.0,0.0,0.0,0.0,0.0,0.0,0.0,0.0,0.0,0.0,0.0,0.0,0.0,0.0,0.0,0.0,0.0,0.0,0.0,0.0,0.0,0.0,0.0,0.0,0.0,0.0,0.0,0.0,0.0,0.0,0.0,0.0,0.0,0.0,0.0,0.0,0.0,0.0,0.0,0.0,0.0,0.0,0.0,0.0,0.0,0.0,0.0,0.0,0.0,0.0,0.0,0.0,0.0,0.0,0.0,0.0,0.0,0.0,0.0,0.0,0.0,0.0,0.0,0.0,0.0,0.0,0.0,0.0,0.0,0.0,0.0,0.0,0.0,0.0,0.0,0.0,0.0,0.0,0.0,0.0,0.0,0.0,0.0,0.0,0.0,0.0,0.0,0.0,0.0,0.0,0.0,0.0,0.0,0.0,0.0,0.0,0.0,0.0,0.0,0.0,0.0,0.0,0.0,0.0,0.0,0.0,0.0,0.0,0.0,0.0,0.0,0.0,0.0,0.0,0.0,0.0,0.0,0.0,0.0,0.0,0.0,0.0,0.0,0.0,0.0,0.0,0.0,0.0,0.0,0.0,0.0,0.0,0.0,0.0,0.0,0.0,0.0,0.0,0.0,0.0,0.0,0.0,0.0,0.0,0.0,0.0,0.0,0.0,0.0,0.0,0.0,0.0,0.0,0.0,0.0,0.0,0.0,0.0,0.0,0.0,0.0,0.0,0.0,0.0,0.0,0.0,0.0,0.0,0.0,0.0,0.0,0.0,0.0,0.0,0.0,0.0,0.0,0.0,0.0,0.0,0.0,0.0,0.0,0.0,0.0,0.0,0.0,0.0,0.0,0.0,0.0,0.0,0.0,0.0,0.0,0.0,0.0,0.0,0.0,0.0,0.0,0.0,0.0,0.0,0.0,0.0,0.0,0.0,0.0,0.0,0.0,0.0,0.0,0.0,0.0,0.0,0.0,0.0,0.0,0.0,0.0,0.0,0.0,0.0,0.0,0.0,0.0,0.0,0.0,0.0,0.0,0.0,0.0,0.0,0.0,0.0,0.0,0.0,0.0,0.0,0.0,0.0,0.0,0.0,0.0,0.0,0.0,0.0,0.0,0.0,0.0,0.0,0.0,0.0,0.0,0.0,0.0,0.0,0.0,0.0,0.0,0.0,0.0,0.0,0.0,0.0,0.0,0.0,0.0,0.0,0.0,0.0,0.0,0.0,0.0,0.0,0.0,0.0,0.0,0.0,0.0,0.0,0.0,0.0,0.0,0.0,0.0,0.0,0.0,0.0,0.0,0.0,0.0,0.0,0.0,0.0,0.0,0.0,0.0,0.0,0.0,0.0,0.0,0.0,0.0,0.0,0.0,0.0,0.0,0.0,0.0,0.0,0.0,0.0,0.0,0.0,0.0,0.0,0.0,0.0,0.0,0.0,0.0,0.0,0.0,0.0,0.0,0.0,0.0,0.0,0.0,0.0,0.0,0.0,0.0,0.0,0.0,0.0,0.0,0.0,0.0,0.0,0.0,0.0,0.0,0.0,0.0,0.0,0.0,0.0,0.0,0.0,0.0,0.0,0.0,0.0,0.0,0.0,0.0,0.0,0.0,0.0,0.0,0.0,0.0,0.0,0.0,0.0,0.0,0.0,0.0,0.0,0.0,0.0,0.0,0.0,0.0,0.0,0.0,0.0,0.0,0.0,0.0,0.0,0.0,0.0,0.0,0.0,0.0,0.0,0.0,0.0,0.0,0.0,0.0,0.0,0.0,0.0,0.0,0.0,0.0,0.0,0.0,0.0,0.0,0.2304,0.0,0.0,0.0,0.0,0.0,0.0,0.0,0.0,0.0,0.0,0.0,0.0,0.0,0.0,0.0,0.0,0.0,0.0,0.0,0.0,0.0,0.0,0.0,0.0,0.0,0.0,0.0,0.0,0.0,0.0,0.0,0.0,0.0,0.0,0.0,0.0,0.0,0.0,0.0,0.0,0.0,0.0,0.0,0.0,0.0,0.0,0.0,0.0,0.0,0.0,0.0,0.0,0.0,0.0,0.0,0.0,0.0,0.0,0.0,0.0,0.0,0.0,0.0,0.0,0.0,0.0,0.0,0.0,0.0,0.0,0.0,0.0,0.0,0.0,0.0,0.0,0.0,0.0,0.0,0.0,0.0,0.0,0.0,0.0,0.0,0.0,0.0,0.0,0.0,0.0,0.0,0.0,0.0,0.0,0.0,0.0,0.0,0.0,0.0,0.0,0.0,0.0,0.0,0.0,0.0,0.0,0.0,0.0,0.0,0.0,0.4565,0.4075,0.3776,0.3451,0.3068,0.0,0.0,0.0,0.0,0.0,0.0,0.0,0.0,0.0,0.0,0.0,0.0,0.0,0.0,0.0,0.0,0.0,0.0,0.0,0.0,0.0,0.0,0.0,0.0,0.0,0.0,0.0,0.0,0.0,0.0,0.0,0.0,0.0,0.0,0.0,0.0,0.0,0.0,0.0,0.0,0.0,0.0,0.0,0.0,0.0,0.0,0.0,0.0,0.0,0.0,0.0,0.0,0.0,0.0,0.0,0.0,0.0,0.0,0.0,0.0,0.0,0.0,0.0,0.0,0.0,0.0,0.0,0.0,0.0,0.0,0.0,0.0,0.0,0.0,0.0,0.0,0.0,0.0,0.0,0.0,0.0,0.0,0.0,0.0,0.0,0.0,0.0,0.0,0.0,0.0,0.0,0.0,0.0,0.0,0.0,0.0,0.0,0.0,0.0,0.0,0.0,0.0,0.0,0.0,0.0,0.0,0.0,0.0,0.0,0.0,0.0,0.0,0.4499,0.4109,0.376,0.0,0.0,0.0,0.0,0.0,0.0,0.0,0.0,0.0,0.0,0.0,0.0,0.0,0.0,0.0,0.0,0.0,0.0,0.0,0.0,0.0,0.0,0.0,0.0,0.0,0.0,0.0,0.0,0.0,0.0,0.0,0.0,0.0,0.0,0.0,0.0,0.0,0.0,0.0,0.0,0.0,0.0,0.0,0.0,0.0,0.0,0.0,0.0,0.0,0.0,0.0,0.0,0.0,0.0,0.0,0.0,0.0,0.0,0.0,0.0,0.0,0.0,0.0,0.0,0.0,0.0,0.0,0.0,0.0,0.0,0.0,0.0,0.0,0.0,0.0,0.0,0.0,0.0,0.0,0.0,0.0,0.0,0.0,0.0,0.0,0.0,0.0,0.0,0.0,0.0,0.0,0.0,0.0,0.0,0.0,0.0,0.0,0.0,0.0,0.0,0.0,0.0,0.0,0.0,0.0,0.0,0.0,0.0,0.0,0.0,0.5899,0.5196,0.5108,0.0,0.4286,0.0,0.0,0.0,0.0,0.0,0.0,0.0,0.0,0.0,0.0,0.0,0.0,0.0,0.0,0.0,0.0,0.0,0.0,0.0,0.0,0.0,0.0,0.0,0.0,0.0,0.0,0.0,0.0,0.0,0.0,0.0,0.0,0.0,0.0,0.0,0.0,0.0,0.0,0.0,0.0,0.0,0.0,0.0,0.0,0.0,0.0,0.0,0.0,0.0,0.0,0.0,0.0,0.0,0.0,0.0,0.0,0.0,0.0,0.0,0.0,0.0,0.0,0.0,0.0,0.0,0.0,0.0,0.0,0.0,0.0,0.0,0.0,0.0,0.0,0.0,0.0,0.0,0.0,0.0,0.0,0.0,0.0,0.0,0.0,0.0,0.0,0.0,0.0,0.0,0.0,0.0,0.0,0.0,0.0,0.0,0.0,0.0,0.0,0.0,0.0,0.0,0.0,0.0,0.0,0.0,0.0,0.0,0.0,0.0,0.0,0.6237,0.5918,0.5599,0.5258,0.0,0.0,0.0,0.0,0.0,0.0,0.0,0.0,0.0,0.0,0.0,0.0,0.0,0.0,0.0,0.0,0.0,0.0,0.0,0.0,0.0,0.0,0.0,0.0,0.0,0.0,0.0,0.0,0.0,0.0,0.0,0.0,0.0,0.0,0.0,0.0,0.0,0.0,0.0,0.0,0.0,0.0,0.0,0.0,0.0,0.0,0.0,0.0,0.0,0.0,0.0,0.0,0.0,0.0,0.0,0.0,0.0,0.0,0.0,0.0,0.0,0.0,0.0,0.0,0.0,0.0,0.0,0.0,0.0,0.0,0.0,0.0,0.0,0.0,0.0,0.0,0.0,0.0,0.0,0.0,0.0,0.0,0.0,0.0,0.0,0.0,0.0,0.0,0.0,0.0,0.0,0.0,0.0,0.0,0.0,0.0,0.0,0.0,0.0,0.0,0.0,0.0,0.0,0.0,0.0,0.0,0.0,0.0,0.0,0.0,0.6817,0.6587,0.6499,0.61,0.5795,0.5634,0.0,0.0,0.0,0.0,0.0,0.0,0.0,0.0,0.0,0.0,0.0,0.0,0.0,0.0,0.0,0.0,0.0,0.0,0.0,0.0,0.0,0.0,0.0,0.0,0.0,0.0,0.0,0.0,0.0,0.0,0.0,0.0,0.0,0.0,0.0,0.0,0.0,0.0,0.0,0.0,0.0,0.0,0.0,0.0,0.0,0.0,0.0,0.0,0.0,0.0,0.0,0.0,0.0,0.0,0.0,0.0,0.0,0.0,0.0,0.0,0.0,0.0,0.0,0.0,0.0,0.0,0.0,0.0,0.0,0.0,0.0,0.0,0.0,0.0,0.0,0.0,0.0,0.0,0.0,0.0,0.0,0.0,0.0,0.0,0.0,0.0,0.0,0.0,0.0,0.0,0.0,0.0,0.0,0.0,0.0,0.0,0.0,0.0,0.0,0.0,0.0,0.0,0.0,0.0,0.0,0.0,0.0,0.0,0.7223,0.7173,0.7029,0.6786,0.6629,0.6509,0.0,0.0,0.0,0.0,0.0,0.0,0.0,0.0,0.0,0.0,0.0,0.0,0.0,0.0,0.0,0.0,0.0,0.0,0.0,0.0,0.0,0.0,0.0,0.0,0.0,0.0,0.0,0.0,0.0,0.0,0.0,0.0,0.0,0.0,0.0,0.0,0.0,0.0,0.0,0.0,0.0,0.0,0.0,0.0,0.0,0.0,0.0,0.0,0.0,0.0,0.0,0.0,0.0,0.0,0.0,0.0,0.0,0.0,0.0,0.0,0.0,0.0,0.0,0.0,0.0,0.0,0.0,0.0,0.0,0.0,0.0,0.0,0.0,0.0,0.0,0.0,0.0,0.0,0.0,0.0,0.0,0.0,0.0,0.0,0.0,0.0,0.0,0.0,0.0,0.0,0.0,0.0,0.0,0.0,0.0,0.0,0.0,0.0,0.0,0.0,0.0,0.0,0.0,0.0,0.0,0.0,0.0,0.0,0.0,0.7459,0.7129,0.6811,0.6555,0.6666,0.6638,0.0,0.0,0.0,0.0,0.0,0.0,0.0,0.0,0.0,0.0,0.0,0.0,0.0,0.0,0.0,0.0,0.0,0.0,0.0,0.0,0.0,0.0,0.0,0.0,0.0,0.0,0.0,0.0,0.0,0.0,0.0,0.0,0.0,0.0,0.0,0.0,0.0,0.0,0.0,0.0,0.0,0.0,0.0,0.0,0.0,0.0,0.0,0.0,0.0,0.0,0.0,0.0,0.0,0.0,0.0,0.0,0.0,0.0,0.0,0.0,0.0,0.0,0.0,0.0,0.0,0.0,0.0,0.0,0.0,0.0,0.0,0.0,0.0,0.0,0.0,0.0,0.0,0.0,0.0,0.0,0.0,0.0,0.0,0.0,0.0,0.0,0.0,0.0,0.0,0.0,0.0,0.0,0.0,0.0,0.0,0.0,0.0,0.0,0.0,0.0,0.0,0.0,0.0,0.0,0.0,0.0,0.0,0.0,0.0,0.7235,0.0,0.6623,0.6549,0.6659,0.6717,0.0,0.0,0.0,0.0,0.0,0.0,0.0,0.0,0.0,0.0,0.0,0.0,0.0,0.0,0.0,0.0,0.0,0.0,0.0,0.0,0.0,0.0,0.0,0.0,0.0,0.0,0.0,0.0,0.0,0.0,0.0,0.0,0.0,0.0,0.0,0.0,0.0,0.0,0.0,0.0,0.0,0.0,0.0,0.0,0.0,0.0,0.0,0.0,0.0,0.0,0.0,0.0,0.0,0.0,0.0,0.0,0.0,0.0,0.0,0.0,0.0,0.0,0.0,0.0,0.0,0.0,0.0,0.0,0.0,0.0,0.0,0.0,0.0,0.0,0.0,0.0,0.0,0.0,0.0,0.0,0.0,0.0,0.0,0.0,0.0,0.0,0.0,0.0,0.0,0.0,0.0,0.0,0.0,0.0,0.0,0.0,0.0,0.0,0.0,0.0,0.0,0.0,0.0,0.0,0.0,0.0,0.0,0.0,0.7478,0.648,0.6423,0.6548,0.6786,0.6671,0.6786,0.0,0.0,0.0,0.0,0.0,0.0,0.0,0.0,0.0,0.0,0.0,0.0,0.0,0.0,0.0,0.0,0.0,0.0,0.0,0.0,0.0,0.0,0.0,0.0,0.0,0.0,0.0,0.0,0.0,0.0,0.0,0.0,0.0,0.0,0.0,0.0,0.0,0.0,0.0,0.0,0.0,0.0,0.0,0.0,0.0,0.0,0.0,0.0,0.0,0.0,0.0,0.0,0.0,0.0,0.0,0.0,0.0,0.0,0.0,0.0,0.0,0.0,0.0,0.0,0.0,0.0,0.0,0.0,0.0,0.0,0.0,0.0,0.0,0.0,0.0,0.0,0.0,0.0,0.0,0.0,0.0,0.0,0.0,0.0,0.0,0.0,0.0,0.0,0.0,0.0,0.0,0.0,0.0,0.0,0.0,0.0,0.0,0.0,0.0,0.0,0.0,0.0,0.0,0.0,0.0,0.0,0.0,0.0,0.0,0.6701,0.6587,0.6575,0.6669,0.6801,0.689,0.0,0.0,0.0,0.0,0.0,0.0,0.0,0.0,0.0,0.0,0.0,0.0,0.0,0.0,0.0,0.0,0.0,0.0,0.0,0.0,0.0,0.0,0.0,0.0,0.0,0.0,0.0,0.0,0.0,0.0,0.0,0.0,0.0,0.0,0.0,0.0,0.0,0.0,0.0,0.0,0.0,0.0,0.0,0.0,0.0,0.0,0.0,0.0,0.0,0.0,0.0,0.0,0.0,0.0,0.0,0.0,0.0,0.0,0.0,0.0,0.0,0.0,0.0,0.0,0.0,0.0,0.0,0.0,0.0,0.0,0.0,0.0,0.0,0.0,0.0,0.0,0.0,0.0,0.0,0.0,0.0,0.0,0.0,0.0,0.0,0.0,0.0,0.0,0.0,0.0,0.0,0.0,0.0,0.0,0.0,0.0,0.0,0.0,0.0,0.0,0.0,0.0,0.0,0.0,0.0,0.0,0.0,0.0,0.0,0.6939,0.677,0.6667,0.668,0.6785,0.6837,0.6804,0.0,0.0,0.0,0.0,0.0,0.0,0.0,0.0,0.0,0.0,0.0,0.0,0.0,0.0,0.0,0.0,0.0,0.0,0.0,0.0,0.0,0.0,0.0,0.0,0.0,0.0,0.0,0.0,0.0,0.0,0.0,0.0,0.0,0.0,0.0,0.0,0.0,0.0,0.0,0.0,0.0,0.0,0.0,0.0,0.0,0.0,0.0,0.0,0.0,0.0,0.0,0.0,0.0,0.0,0.0,0.0,0.0,0.0,0.0,0.0,0.0,0.0,0.0,0.0,0.0,0.0,0.0,0.0,0.0,0.0,0.0,0.0,0.0,0.0,0.0,0.0,0.0,0.0,0.0,0.0,0.0,0.0,0.0,0.0,0.0,0.0,0.0,0.0,0.0,0.0,0.0,0.0,0.0,0.0,0.0,0.0,0.0,0.0,0.0,0.0,0.0,0.0,0.0,0.0,0.0,0.0,0.0,0.0,0.7212,0.6966,0.6828,0.6799,0.6697,0.6687,0.0,0.0,0.0,0.0,0.0,0.0,0.0,0.0,0.0,0.0,0.0,0.0,0.0,0.0,0.0,0.0,0.0,0.0,0.0,0.0,0.0,0.0,0.0,0.0,0.0,0.0,0.0,0.0,0.0,0.0,0.0,0.0,0.0,0.0,0.0,0.0,0.0,0.0,0.0,0.0,0.0,0.0,0.0,0.0,0.0,0.0,0.0,0.0,0.0,0.0,0.0,0.0,0.0,0.0,0.0,0.0,0.0,0.0,0.0,0.0,0.0,0.0,0.0,0.0,0.0,0.0,0.0,0.0,0.0,0.0,0.0,0.0,0.0,0.0,0.0,0.0,0.0,0.0,0.0,0.0,0.0,0.0,0.0,0.0,0.0,0.0,0.0,0.0,0.0,0.0,0.0,0.0,0.0,0.0,0.0,0.0,0.0,0.0,0.0,0.0,0.0,0.0,0.0,0.0,0.0,0.0,0.0,0.0,0.0,0.7397,0.73,0.7158,0.6956,0.6904,0.6858,0.0,0.0,0.0,0.0,0.0,0.0,0.0,0.0,0.0,0.0,0.0,0.0,0.0,0.0,0.0,0.0,0.0,0.0,0.0,0.0,0.0,0.0,0.0,0.0,0.0,0.0,0.0,0.0,0.0,0.0,0.0,0.0,0.0,0.0,0.0,0.0,0.0,0.0,0.0,0.0,0.0,0.0,0.0,0.0,0.0,0.0,0.0,0.0,0.0,0.0,0.0,0.0,0.0,0.0,0.0,0.0,0.0,0.0,0.0,0.0,0.0,0.0,0.0,0.0,0.0,0.0,0.0,0.0,0.0,0.0,0.0,0.0,0.0,0.0,0.0,0.0,0.0,0.0,0.0,0.0,0.0,0.0,0.0,0.0,0.0,0.0,0.0,0.0,0.0,0.0,0.0,0.0,0.0,0.0,0.0,0.0,0.0,0.0,0.0,0.0,0.0,0.0,0.0,0.0,0.0,0.0,0.0,0.0,0.7812,0.7916,0.7992,0.7879,0.7567,0.7255,0.705,0.0,0.0,0.0,0.0,0.0,0.0,0.0,0.0,0.0,0.0,0.0,0.0,0.0,0.0,0.0,0.0,0.0,0.0,0.0,0.0,0.0,0.0,0.0,0.0,0.0,0.0,0.0,0.0,0.0,0.0,0.0,0.0,0.0,0.0,0.0,0.0,0.0,0.0,0.0,0.0,0.0,0.0,0.0,0.0,0.0,0.0,0.0,0.0,0.0,0.0,0.0,0.0,0.0,0.0,0.0,0.0,0.0,0.0,0.0,0.0,0.0,0.0,0.0,0.0,0.0,0.0,0.0,0.0,0.0,0.0,0.0,0.0,0.0,0.0,0.0,0.0,0.0,0.0,0.0,0.0,0.0,0.0,0.0,0.0,0.0,0.0,0.0,0.0,0.0,0.0,0.0,0.0,0.0,0.0,0.0,0.0,0.0,0.0,0.0,0.0,0.0,0.0,0.0,0.0,0.0,0.0,0.0,0.0,0.8541,0.8585,0.8862,0.8764,0.831,0.767,0.7289,0.0,0.0,0.0,0.0,0.0,0.0,0.0,0.0,0.0,0.0,0.0,0.0,0.0,0.0,0.0,0.0,0.0,0.0,0.0,0.0,0.0,0.0,0.0,0.0,0.0,0.0,0.0,0.0,0.0,0.0,0.0,0.0,0.0,0.0,0.0,0.0,0.0,0.0,0.0,0.0,0.0,0.0,0.0,0.0,0.0,0.0,0.0,0.0,0.0,0.0,0.0,0.0,0.0,0.0,0.0,0.0,0.0,0.0,0.0,0.0,0.0,0.0,0.0,0.0,0.0,0.0,0.0,0.0,0.0,0.0,0.0,0.0,0.0,0.0,0.0,0.0,0.0,0.0,0.0,0.0,0.0,0.0,0.0,0.0,0.0,0.0,0.0,0.0,0.0,0.0,0.0,0.0,0.0,0.0,0.0,0.0,0.0,0.0,0.0,0.0,0.0,0.0,0.0,0.0,0.0,0.0,0.0,0.0,0.8737,0.9207,0.9478,0.9217,0.8409,0.8174,0.7891,0.0,0.0,0.0,0.0,0.0,0.0,0.0,0.0,0.0,0.0,0.0,0.0,0.0,0.0,0.0,0.0,0.0,0.0,0.0,0.0,0.0,0.0,0.0,0.0,0.0,0.0,0.0,0.0,0.0,0.0,0.0,0.0,0.0,0.0,0.0,0.0,0.0,0.0,0.0,0.0,0.0,0.0,0.0,0.0,0.0,0.0,0.0,0.0,0.7994,0.0,0.0,0.0,0.0,0.0,0.0,0.0,0.0,0.0,0.0,0.0,0.0,0.0,0.0,0.0,0.0,0.0,0.0,0.0,0.0,0.0,0.0,0.0,0.0,0.0,0.0,0.0,0.0,0.0,0.0,0.0,0.0,0.0,0.0,0.0,0.0,0.0,0.0,0.0,0.0,0.0,0.0,0.0,0.0,0.0,0.0,0.0,0.0,0.0,0.0,0.0,0.0,0.0,0.0,0.0,0.0,0.0,0.0,0.0,0.8784,0.9375,0.9678,0.9504,0.891,0.8846,0.8484,0.0,0.0,0.0,0.0,0.0,0.0,0.0,0.0,0.0,0.0,0.0,0.0,0.0,0.0,0.0,0.0,0.0,0.0,0.0,0.0,0.0,0.0,0.0,0.0,0.0,0.0,0.0,0.0,0.0,0.0,0.0,0.0,0.0,0.0,0.0,0.0,0.0,0.0,0.0,0.0,0.0,0.0,0.0,0.0,0.0,0.0,0.0,0.0,0.0,0.0,0.0,0.0,0.0,0.0,0.0,0.0,0.0,0.0,0.0,0.0,0.0,0.0,0.0,0.0,0.0,0.0,0.0,0.0,0.0,0.0,0.0,0.0,0.0,0.0,0.0,0.0,0.0,0.0,0.0,0.0,0.0,0.0,0.0,0.0,0.0,0.0,0.0,0.0,0.0,0.0,0.0,0.0,0.0,0.0,0.0,0.0,0.0,0.0,0.0,0.0,0.0,0.0,0.0,0.0,0.0,0.0,0.0,0.8348,0.8791,0.9391,0.9664,0.9678,0.941,0.9382,0.8963,0.8111,0.0,0.0,0.0,0.0,0.0,0.0,0.0,0.0,0.0,0.0,0.0,0.0,0.0,0.0,0.0,0.0,0.0,0.0,0.0,0.0,0.0,0.0,0.0,0.0,0.0,0.0,0.0,0.0,0.0,0.0,0.0,0.0,0.0,0.0,0.0,0.0,0.0,0.0,0.8281,0.851,0.0,0.0,0.0,0.0,0.0,0.0,0.0,0.0,0.8512,0.0,0.0,0.0,0.0,0.0,0.0,0.0,0.0,0.0,0.0,0.0,0.0,0.0,0.0,0.0,0.0,0.0,0.0,0.0,0.0,0.0,0.0,0.0,0.0,0.0,0.0,0.0,0.0,0.0,0.0,0.0,0.0,0.0,0.0,0.0,0.0,0.0,0.0,0.0,0.0,0.0,0.0,0.0,0.0,0.0,0.0,0.0,0.0,0.0,0.0,0.0,0.0,0.0,0.0,0.0,0.0,0.8243,0.842,0.8818,0.9462,0.9685,0.9678,0.9411,0.9302,0.8981,0.846,0.0,0.0,0.0,0.0,0.0,0.0,0.0,0.0,0.0,0.0,0.0,0.0,0.0,0.0,0.0,0.0,0.0,0.0,0.0,0.0,0.0,0.0,0.0,0.0,0.0,0.0,0.0,0.0,0.0,0.0,0.0,0.0,0.0,0.0,0.0,0.0,0.0,0.0,0.0,0.8687,0.8864,0.0,0.0,0.0,0.0,0.0,0.0,0.0,0.0,0.8485,0.0,0.0,0.0,0.0,0.0,0.0,0.0,0.0,0.0,0.0,0.0,0.0,0.0,0.0,0.0,0.0,0.0,0.0,0.0,0.0,0.0,0.0,0.0,0.0,0.0,0.0,0.0,0.0,0.0,0.0,0.0,0.0,0.0,0.0,0.0,0.0,0.0,0.0,0.0,0.0,0.0,0.0,0.0,0.0,0.0,0.0,0.0,0.0,0.0,0.0,0.0,0.0,0.0,0.0,0.0,0.8295,0.8434,0.8825,0.9469,0.9697,0.9674,0.9403,0.9275,0.8989,0.0,0.0,0.0,0.0,0.0,0.0,0.0,0.0,0.0,0.0,0.0,0.0,0.0,0.0,0.0,0.0,0.0,0.0,0.0,0.0,0.0,0.0,0.0,0.0,0.0,0.0,0.0,0.0,0.0,0.0,0.0,0.0,0.0,0.0,0.0,0.0,0.0,0.0,0.0,0.0,0.8737,0.8961,0.9127,0.0,0.0,0.0,0.0,0.0,0.0,0.8777,0.8683,0.0,0.0,0.0,0.0,0.0,0.0,0.0,0.0,0.0,0.0,0.0,0.0,0.0,0.0,0.0,0.0,0.0,0.0,0.0,0.0,0.0,0.0,0.0,0.0,0.0,0.0,0.0,0.0,0.0,0.0,0.0,0.0,0.0,0.0,0.0,0.0,0.0,0.0,0.0,0.0,0.0,0.0,0.0,0.0,0.0,0.0,0.0,0.0,0.0,0.0,0.0,0.0,0.0,0.0,0.0,0.8321,0.8455,0.8809,0.9447,0.9692,0.9677,0.9403,0.9219,0.8941,0.0,0.0,0.0,0.0,0.0,0.0,0.0,0.0,0.0,0.0,0.0,0.0,0.0,0.0,0.0,0.0,0.0,0.0,0.0,0.0,0.0,0.0,0.0,0.0,0.0,0.0,0.0,0.0,0.0,0.0,0.0,0.0,0.0,0.0,0.0,0.0,0.0,0.0,0.0,0.0,0.0,0.9037,0.9419,0.9365,0.0,0.0,0.0,0.0,0.9241,0.9076,0.0,0.0,0.0,0.0,0.0,0.0,0.0,0.0,0.0,0.0,0.0,0.0,0.0,0.0,0.0,0.0,0.0,0.0,0.0,0.0,0.0,0.0,0.0,0.0,0.0,0.0,0.0,0.0,0.0,0.0,0.0,0.0,0.0,0.0,0.0,0.0,0.0,0.0,0.0,0.0,0.0,0.0,0.0,0.0,0.0,0.0,0.0,0.0,0.0,0.0,0.0,0.0,0.0,0.0,0.0,0.0,0.8452,0.8488,0.8809,0.939,0.9677,0.9677,0.9403,0.9096,0.8804,0.0,0.0,0.0,0.0,0.0,0.0,0.0,0.0,0.0,0.0,0.0,0.0,0.0,0.0,0.0,0.0,0.0,0.0,0.0,0.0,0.0,0.0,0.0,0.0,0.0,0.0,0.0,0.0,0.0,0.0,0.0,0.0,0.0,0.0,0.0,0.0,0.0,0.0,0.0,0.0,0.0,0.9108,0.9674,0.958,0.9439,0.0,0.0,0.9383,0.9376,0.9254,0.0,0.0,0.0,0.0,0.0,0.0,0.0,0.0,0.0,0.0,0.0,0.0,0.0,0.0,0.0,0.0,0.0,0.0,0.0,0.0,0.0,0.0,0.0,0.0,0.0,0.0,0.0,0.0,0.0,0.0,0.0,0.0,0.0,0.0,0.0,0.0,0.0,0.0,0.0,0.0,0.0,0.0,0.0,0.0,0.0,0.0,0.0,0.0,0.0,0.0,0.0,0.0,0.0,0.0,0.0,0.8025,0.8485,0.8519,0.8794,0.9382,0.9656,0.9671,0.9395,0.9068,0.877,0.0,0.0,0.0,0.0,0.0,0.0,0.0,0.0,0.0,0.0,0.0,0.0,0.0,0.0,0.0,0.0,0.0,0.0,0.0,0.0,0.0,0.0,0.0,0.0,0.0,0.0,0.0,0.0,0.0,0.0,0.0,0.0,0.0,0.0,0.0,0.0,0.0,0.0,0.0,0.0,0.0,0.0,0.9724,0.971,0.0,0.0,0.0,0.9525,0.9517,0.0,0.0,0.0,0.0,0.0,0.0,0.0,0.0,0.0,0.0,0.0,0.0,0.0,0.0,0.0,0.0,0.0,0.0,0.0,0.0,0.0,0.0,0.0,0.0,0.0,0.0,0.0,0.0,0.0,0.0,0.0,0.0,0.0,0.0,0.0,0.0,0.0,0.0,0.0,0.0,0.0,0.0,0.0,0.0,0.0,0.0,0.0,0.0,0.0,0.0,0.0,0.0,0.0,0.0,0.0,0.0,0.0,0.854,0.8512,0.8803,0.9413,0.9693,0.968,0.941,0.9109,0.0,0.0,0.0,0.0,0.0,0.0,0.0,0.0,0.0,0.0,0.0,0.0,0.0,0.0,0.0,0.0,0.0,0.0,0.0,0.0,0.0,0.0,0.0,0.0,0.0,0.0,0.0,0.0,0.0,0.0,0.0,0.0,0.0,0.0,0.0,0.0,0.0,0.0,0.0,0.0,0.0,0.0,0.912,0.9729,0.9875,0.9901,0.0,0.0,0.9677,0.9651,0.9457,0.9288,0.0,0.0,0.0,0.0,0.0,0.0,0.0,0.0,0.0,0.0,0.0,0.0,0.0,0.0,0.0,0.0,0.0,0.0,0.0,0.0,0.0,0.0,0.0,0.0,0.0,0.0,0.0,0.0,0.0,0.0,0.0,0.0,0.0,0.0,0.0,0.0,0.0,0.0,0.0,0.0,0.0,0.0,0.0,0.0,0.0,0.0,0.0,0.0,0.0,0.0,0.0,0.0,0.0,0.0,0.0,0.8656,0.857,0.8862,0.9555,0.9718,0.9657,0.9402,0.9254,0.8968,0.0,0.0,0.0,0.0,0.0,0.0,0.0,0.0,0.0,0.0,0.0,0.0,0.0,0.0,0.0,0.0,0.0,0.0,0.0,0.0,0.0,0.0,0.0,0.0,0.0,0.0,0.0,0.0,0.0,0.0,0.0,0.0,0.0,0.0,0.0,0.0,0.0,0.0,0.0,0.0,0.0,0.9113,0.9714,1.0077,1.0155,0.0,0.0,0.9925,0.9798,0.968,0.9516,0.941,0.0,0.0,0.0,0.0,0.0,0.0,0.0,0.0,0.0,0.0,0.0,0.0,0.0,0.0,0.0,0.0,0.0,0.0,0.0,0.0,0.0,0.0,0.0,0.0,0.0,0.0,0.0,0.0,0.0,0.0,0.0,0.0,0.0,0.0,0.0,0.0,0.0,0.0,0.0,0.0,0.0,0.0,0.0,0.0,0.0,0.0,0.0,0.0,0.0,0.0,0.0,0.0,0.0,0.8302,0.8703,0.8922,0.9266,0.9704,0.9768,0.9741,0.9659,0.9363,0.9015,0.0,0.0,0.0,0.0,0.0,0.0,0.0,0.0,0.0,0.0,0.0,0.0,0.0,0.0,0.0,0.0,0.0,0.0,0.0,0.0,0.0,0.0,0.0,0.0,0.0,0.0,0.0,0.0,0.6937,0.7049,0.7092,0.0,0.0,0.0,0.0,0.0,0.0,0.0,0.0,0.0,0.0,0.9132,0.9708,1.0087,0.0,0.0,0.9981,0.9986,0.9933,0.9723,0.9584,0.9538,0.9273,0.0,0.0,0.0,0.0,0.0,0.0,0.0,0.0,0.0,0.0,0.0,0.0,0.0,0.0,0.0,0.0,0.0,0.0,0.0,0.0,0.0,0.0,0.0,0.0,0.0,0.0,0.0,0.0,0.0,0.0,0.0,0.0,0.0,0.0,0.0,0.0,0.0,0.0,0.0,0.0,0.0,0.0,0.0,0.0,0.0,0.0,0.0,0.0,0.0,0.0,0.0,0.0,0.8532,0.8859,0.9221,0.9546,0.9859,1.0,0.9979,0.9807,0.9524,0.9185,0.0,0.0,0.0,0.0,0.0,0.0,0.0,0.0,0.0,0.0,0.0,0.0,0.0,0.0,0.0,0.0,0.0,0.0,0.0,0.0,0.0,0.0,0.0,0.0,0.0,0.0,0.0,0.0,0.7021,0.7123,0.7181,0.0,0.0,0.0,0.0,0.0,0.0,0.0,0.0,0.0,0.0,0.926,0.9861,1.0137,1.0253,1.0106,1.0097,1.0068,1.0013,0.9805,0.9652,0.9618,0.0,0.0,0.0,0.0,0.0,0.0,0.0,0.0,0.0,0.0,0.0,0.0,0.0,0.0,0.0,0.0,0.0,0.0,0.0,0.0,0.0,0.0,0.0,0.0,0.0,0.0,0.0,0.0,0.0,0.0,0.7376,0.0,0.0,0.0,0.0,0.0,0.0,0.0,0.0,0.0,0.0,0.0,0.0,0.0,0.0,0.0,0.0,0.0,0.0,0.0,0.0,0.0,0.0,0.8716,0.9179,0.934,0.96,0.9991,1.0431,1.0384,0.9849,0.9793,0.9508,0.8926,0.0,0.0,0.0,0.0,0.0,0.0,0.0,0.0,0.0,0.0,0.0,0.0,0.0,0.0,0.0,0.0,0.0,0.0,0.0,0.0,0.0,0.0,0.0,0.0,0.0,0.0,0.7104,0.7104,0.7194,0.0,0.0,0.0,0.0,0.0,0.0,0.0,0.0,0.0,0.0,0.902,0.96,1.0204,1.0289,1.0301,1.0292,1.0292,1.0214,1.0041,0.9878,0.9737,0.0,0.0,0.0,0.0,0.0,0.0,0.0,0.0,0.0,0.0,0.0,0.0,0.0,0.0,0.0,0.0,0.0,0.0,0.0,0.0,0.0,0.0,0.0,0.0,0.0,0.0,0.0,0.7828,0.774,0.0,0.0,0.0,0.0,0.0,0.0,0.0,0.0,0.0,0.0,0.0,0.9306,0.9448,0.0,0.0,0.0,0.0,0.0,0.0,0.0,0.0,0.0,0.0,0.0,0.0,0.8859,0.9306,0.9379,0.9693,1.032,1.0567,1.0569,1.027,1.005,0.9678,0.911,0.0,0.0,0.0,0.0,0.0,0.0,0.0,0.0,0.0,0.0,0.0,0.0,0.0,0.0,0.0,0.0,0.0,0.0,0.0,0.0,0.0,0.0,0.0,0.0,0.0,0.7338,0.0,0.0,0.0,0.0,0.0,0.0,0.0,0.0,0.0,0.0,0.0,0.8762,0.8765,0.9126,0.9624,1.0213,1.0453,1.0532,0.0,0.0,0.0,0.0,0.0,0.0,0.0,0.0,0.0,0.0,0.0,0.0,0.0,0.0,0.9116,0.8938,0.8831,0.8743,0.8649,0.0,0.0,0.0,0.0,0.0,0.0,0.0,0.0,0.0,0.0,0.0,0.0,0.0,0.0,0.8202,0.0,0.8072,0.0,0.0,0.0,0.0,0.0,0.0,0.0,0.0,0.9512,0.9782,0.9925,1.0058,1.0052,0.0,0.9768,0.9451,0.0,0.0,0.0,0.0,0.0,0.0,0.0,0.0,0.9211,0.9596,0.9678,1.0016,1.0608,1.079,1.079,1.0641,1.0302,0.9889,0.943,0.9022,0.8648,0.0,0.0,0.0,0.0,0.0,0.0,0.0,0.0,0.0,0.0,0.0,0.0,0.0,0.0,0.0,0.0,0.0,0.0,0.0,0.0,0.0,0.0,0.0,0.753,0.0,0.0,0.0,0.0,0.0,0.0,0.0,0.0,0.0,0.8621,0.8784,0.8943,0.906,0.9259,0.9614,1.0218,0.0,0.0,0.0,0.0,0.0,0.0,0.0,1.007,0.9991,0.9888,0.9829,0.9805,0.9795,0.9802,0.9795,0.0,0.0,0.9244,0.9129,0.9041,0.8954,0.8866,0.8818,0.8818,0.8715,0.8683,0.0,0.0,0.0,0.0,0.0,0.0,0.0,0.0,0.873,0.8737,0.0,0.8581,0.0,0.0,0.0,0.0,0.0,0.9158,0.0,0.0,1.0101,1.0394,1.0537,1.0662,1.0655,1.0529,1.0394,1.0253,1.0086,0.9191,0.0,0.0,0.0,0.0,0.0,0.0,0.9738,1.0013,1.0203,1.0508,1.0897,1.1114,1.1123,1.0906,1.0518,1.0153,0.9834,0.9579,0.9212,0.8743,0.8465,0.0,0.0,0.0,0.0,0.0,0.0,0.0,0.0,0.0,0.0,0.0,0.0,0.0,0.0,0.0,0.0,0.0,0.0,0.0,0.0,0.7586,0.0,0.0,0.0,0.0,0.0,0.0,0.0,0.0,0.0,0.0,0.8919,0.8933,0.9039,0.9359,0.0,0.0,0.0,0.0,1.0711,1.0697,1.0595,1.05,1.0502,1.0386,1.0299,1.0308,0.0,0.0,0.9855,0.9808,0.9813,0.9805,0.9805,0.9808,0.9805,0.9561,0.9403,0.9375,0.9355,0.9389,0.9374,0.9122,0.9011,0.9083,0.0,0.0,0.0,0.0,0.8988,0.9131,0.9332,0.9347,0.9347,0.9333,0.9299,0.0,0.0,0.0,0.0,0.0,0.0,1.0131,1.0256,1.0571,1.0878,1.1148,1.1187,1.1233,1.1278,1.1062,1.0921,1.0846,1.0177,0.9606,0.9158,0.0,0.0,0.0,0.0,0.9855,1.0327,1.0505,1.0762,1.1097,1.1349,1.1366,1.1121,1.0855,1.0592,1.031,1.0128,0.979,0.9226,0.8906,0.0,0.0,0.0,0.0,0.0,0.0,0.0,0.0,0.0,0.0,0.0,0.0,0.0,0.0,0.0,0.0,0.0,0.0,0.0,0.7671,0.7696,0.7804,0.0,0.0,0.0,0.0,0.0,0.0,0.0,0.0,0.0,0.936,0.9393,0.9408,0.0,0.0,0.9899,1.0496,1.0651,1.0711,1.0714,1.0667,0.0,1.0507,1.0468,1.0415,1.0321,1.0316,1.0191,0.9845,0.9986,1.0085,0.9858,0.9992,1.016,1.0118,0.9814,0.9531,0.9422,0.9403,0.9436,0.9516,0.9389,0.9293,0.9633,0.9615,0.9292,0.9252,0.9362,0.9424,0.9572,0.9758,0.9841,0.9891,0.9884,0.9937,0.9836,0.9635,0.9777,0.0,0.0,0.0,1.0656,1.086,1.1087,1.136,1.1674,1.1687,1.1717,1.1773,1.1563,1.1413,1.1352,1.0938,1.0481,0.9982,0.0,0.0,0.9645,0.9848,1.0179,1.0647,1.0814,1.1045,1.135,1.1525,1.1489,1.1279,1.1119,1.0894,1.0595,1.0454,1.0129,0.9578,0.9273,0.8899,0.0,0.0,0.0,0.0,0.0,0.0,0.0,0.0,0.0,0.0,0.0,0.7141,0.0,0.0,0.0,0.0,0.7582,0.7772,0.8052,0.8041,0.0,0.0,0.0,0.0,0.0,0.0,0.0,0.8994,0.9156,0.9352,0.9652,0.9794,0.9799,0.9589,0.9813,1.0171,1.0635,0.0,1.0706,1.0711,1.0709,1.0674,1.0595,1.0573,1.0546,1.0473,1.0447,1.0381,1.0206,1.034,1.0379,1.0229,1.0245,1.0332,1.0434,1.0138,0.9841,0.9776,0.9749,0.9783,0.9863,0.9807,0.9754,1.0132,1.0257,0.9841,0.9665,0.9672,0.9779,0.9913,1.0054,1.0249,1.0348,1.0344,1.0488,1.0496,1.0386,1.051,0.0,1.0603,1.0862,1.1148,1.143,1.1577,1.1803,1.2121,1.2111,1.2125,1.2141,1.1929,1.1775,1.1649,1.1482,1.1256,1.0938,1.0379,1.0088,1.0073,1.0349,1.0633,1.0928,1.1106,1.1332,1.1588,1.1579,1.1531,1.1413,1.1266,1.1055,1.0735,1.0587,1.031,0.9846,0.9585,0.9211,0.8764,0.0,0.0,0.0,0.0,0.0,0.0,0.0,0.0,0.0,0.0,0.0,0.0,0.0,0.0,0.0,0.7884,0.0,0.8492,0.8519,0.0,0.0,0.0,0.8607,0.8743,0.8872,0.9028,0.922,0.0,0.0,0.9841,1.0114,1.0211,0.9889,1.0103,1.0396,1.0652,1.0711,1.0709,1.0709,1.0709,1.0709,1.0695,1.0702,1.0695,1.069,1.0715,1.0683,1.067,1.0675,1.0681,1.0672,1.049,1.0439,1.0695,1.0557,1.0367,1.0375,1.0334,1.0315,1.0319,1.03,1.0287,1.0266,1.0299,1.0299,1.0222,1.0144,1.017,1.0256,1.0407,1.054,1.066,1.0774,1.095,1.1067,1.1133,1.1062,1.114,1.1344,1.1511,1.1642,1.1726,1.1884,1.2082,1.2239,1.2256,1.2301,1.2398,1.225,1.2162,1.2115,1.1739,1.1522,1.1425,1.1075,1.0793,1.0552,1.0514,1.0714,1.1128,1.1179,1.1325,1.1588,1.1495,1.1447,1.1413,1.1266,1.1085,1.0858,1.0711,1.0506,1.0188,0.9875,0.9503,0.9097,0.873,0.0,0.0,0.0,0.0,0.0,0.0,0.0,0.0,0.0,0.7386,0.7541,0.0,0.7761,0.0,0.8208,0.8458,0.8635,0.8642,0.0,0.0,0.9043,0.9083,0.9226,0.9339,0.9481,0.9646,0.9841,1.0016,1.0154,1.0347,1.0385,1.0208,1.0245,1.0389,1.0674,1.0707,1.0709,1.0716,1.0714,1.0709,1.0723,1.0709,1.0716,1.0709,1.0715,1.0711,1.0711,1.0709,1.0713,1.0713,1.0742,1.0844,1.1026,1.1015,1.0992,1.0953,1.0708,1.0496,1.0572,1.0606,1.0595,1.0514,1.0572,1.0747,1.0769,1.0695,1.0602,1.0614,1.0686,1.0911,1.1055,1.1132,1.1292,1.1434,1.1475,1.1402,1.1457,1.1593,1.1674,1.1751,1.1818,1.202,1.217,1.2301,1.2362,1.2427,1.2511,1.242,1.2352,1.2287,1.204,1.1832,1.1696,1.1477,1.1253,1.1023,1.0867,1.0965,1.1277,1.1337,1.145,1.1597,1.1479,1.1413,1.1391,1.1196,1.1021,1.0904,1.0774,1.0616,1.0401,1.0071,0.9739,0.9382,0.9097,0.8737,0.0,0.0,0.0,0.0,0.0,0.0,0.0,0.0,0.0,0.0,0.0,0.8127,0.8385,0.8655,0.8879,0.9001,0.9008,0.9103,0.9348,0.9368,0.9457,0.9652,0.9739,0.9832,0.9996,1.0139,1.0261,1.0373,1.0508,1.0557,1.0487,1.0475,1.0525,1.0684,1.0828,1.0893,1.0817,1.0865,1.0914,1.0906,1.0914,1.0938,1.0922,1.0879,1.0804,1.0728,1.0855,1.0929,1.076,1.088,1.1103,1.1313,1.1276,1.12,1.1172,1.1048,1.0931,1.0922,1.0931,1.0959,1.0836,1.0963,1.1128,1.12,1.1201,1.1041,1.0944,1.0953,1.1258,1.1425,1.1466,1.1559,1.1635,1.1665,1.1665,1.1662,1.1656,1.1665,1.1746,1.1863,1.2052,1.2195,1.2318,1.244,1.2511,1.2511,1.2511,1.245,1.2337,1.2307,1.2142,1.1845,1.1687,1.1554,1.1432,1.1313,1.1306,1.1371,1.1536,1.1602,1.1595,1.1461,1.1382,1.1372,1.1056,1.0892,1.0855,1.0755,1.0621,1.0502,1.0213,0.9928,0.9672,0.9437,0.9151,0.0,0.8682,0.0,0.0,0.0,0.0,0.0,0.0,0.0,0.0,0.8396,0.8567,0.8926,0.9137,0.9308,0.9429,0.9463,0.953,0.9672,0.9692,0.9794,1.0007,1.0062,1.0136,1.0333,1.0476,1.0555,1.0597,1.0705,1.0757,1.0698,1.075,1.0794,1.0859,1.1035,1.1118,1.0973,1.1092,1.1167,1.1157,1.1179,1.1179,1.1177,1.1112,1.0962,1.0821,1.1067,1.1186,1.0938,1.1053,1.1296,1.1545,1.1426,1.1286,1.1306,1.1384,1.1427,1.13,1.1305,1.134,1.1123,1.1142,1.1186,1.12,1.12,1.1284,1.1242,1.1157,1.1314,1.1525,1.1721,1.1739,1.1845,1.2009,1.2007,1.1998,1.2007,1.2007,1.2088,1.2203,1.2246,1.2344,1.2463,1.2478,1.2511,1.2511,1.2511,1.2478,1.2461,1.2355,1.2205,1.2041,1.1854,1.1694,1.1577,0.0,0.0,0.0,1.1476,1.1602,1.1595,1.147,1.1343,1.124,1.1009,0.0,1.0748,1.0616,1.0529,1.0487,1.0339,0.0,0.0,0.0,0.0,0.0,0.0,0.0,0.0,0.0,0.0,0.0,0.9245,0.9115,0.8818,0.8934,0.9104,0.9286,0.945,0.9578,0.9713,0.9819,0.9954,1.0142,1.0162,1.0189,1.0236,1.0344,1.0458,1.0606,1.074,1.0899,1.1028,1.1089,1.0998,1.0769,1.0928,1.1186,1.1397,1.1291,1.1185,1.115,1.1206,1.1206,1.12,1.1206,1.1227,1.12,1.1243,1.1206,1.1153,1.1205,1.1369,1.1367,1.1406,1.1416,1.159,1.1636,1.1678,1.1692,1.1832,1.1868,1.1601,1.1617,1.1669,1.1306,0.0,1.1364,1.1406,0.0,1.147,1.1457,1.1389,1.1461,1.1626,1.1811,1.1811,1.1843,1.1945,1.1954,1.1911,1.1852,1.1852,1.1925,1.2067,1.2151,1.2276,1.2419,1.2477,1.2511,1.2511,1.2511,1.2511,1.2501,1.2417,1.2337,1.2213,1.2085,1.1976,1.1852,1.1855,1.1701,1.1397,1.1534,1.1602,1.1595,1.147,1.1339,1.1191,1.1014,0.0,0.0,0.0,0.0,0.0,0.0,0.0,0.0,1.0194,0.0,1.0046,0.9918,0.9837,0.9831,0.977,0.979,0.9932,1.0013,0.9841,0.9379,0.9488,0.9618,0.9707,0.9841,0.9971,1.0039,1.0128,1.0233,1.0474,1.0493,1.0548,1.0715,1.0795,1.0878,1.0929,1.1011,1.1092,1.1186,1.12,1.114,1.0983,1.1075,1.1307,1.1535,1.1485,1.1406,1.1402,1.1398,1.1406,1.1406,1.1398,1.1406,1.1398,1.1433,1.1433,1.1406,1.1479,1.1553,1.1602,1.1664,1.1767,1.1835,1.1896,1.1954,1.1952,1.2025,1.2082,1.1952,1.1961,1.194,1.1459,1.1477,1.1597,1.1656,1.1692,1.1701,1.1683,1.1694,0.0,0.0,0.0,1.1861,1.1872,1.1884,1.1856,1.1771,1.1624,1.1615,1.168,1.1859,1.2034,1.2184,1.2332,1.2447,1.2511,1.2511,1.2511,1.2511,1.2511,1.2511,1.2433,1.2314,1.2301,1.2238,1.2102,1.2088,1.1966,1.1708,1.1674,1.1629,1.1602,1.1488,1.1381,1.124,1.1082,1.0912,1.0806,1.0799,1.079,1.079,1.0693,1.0625,1.0617,1.0525,1.0525,1.0646,1.0493,1.046,1.0612,1.048,1.046,1.0618,1.0617,1.0413,0.9922,0.9995,1.0054,1.0047,1.0249,1.0366,1.0374,1.042,1.055,1.0755,1.079,1.0909,1.1152,1.12,1.1177,1.1234,1.1234,1.1245,1.1271,1.1277,1.1259,1.127,1.1273,1.1384,1.1606,1.1625,1.1599,1.1613,1.1624,1.1635,1.1685,1.1701,1.1701,1.1694,1.1694,1.1674,1.1642,1.1743,1.1827,1.1823,1.1979,1.2082,1.2163,1.2158,1.2148,1.2139,1.2168,1.2204,1.2313,1.2279,1.2208,1.1633,1.1751,1.1778,1.1868,1.2036,1.2018,1.2027,1.2007,1.171,1.1785,1.2054,1.2061,1.212,1.2216,1.2106,1.1964,1.1759,1.1656,1.1753,1.2054,1.2091,1.2228,1.2477,1.2478,1.2511,1.2511,1.2511,1.2511,1.2511,1.2511,1.2433,1.2321,1.2301,1.2235,1.2102,1.2088,1.2068,1.2036,1.1907,1.1769,1.1608,1.159,1.1509,1.1369,1.135,1.1262,1.1137,1.1147,1.113,1.1132,1.112,1.1096,1.1089,1.1069,1.113,1.1233,1.0968,1.0897,1.1082,1.0917,1.0897,1.1075,1.1096,1.0851,1.0284,1.0244,1.0257,1.0264,1.0499,1.0655,1.0662,1.0899,1.1057,1.1109,1.1123,1.115,1.1213,1.122,1.1274,1.1381,1.1371,1.1432,1.1522,1.1552,1.1536,1.1531,1.156,1.1682,1.1909,1.1789,1.1667,1.1744,1.1784,1.1857,1.1941,1.2011,1.1991,1.2036,1.1998,1.1903,1.1684,1.1863,1.2101,1.2319,1.2214,1.2209,1.2375,1.2355,1.2291,1.229,1.2362,1.245,1.2478,1.2539,1.2576,1.1748,1.18,1.1918,1.2011,1.2088,1.2088,1.2088,1.2091,1.1927,1.2004,1.2213,1.2208,1.2242,1.2296,1.2147,1.1979,1.1805,1.1653,1.1782,1.2084,1.2088,1.2254,1.2481,1.2511,1.2511,1.2511,1.2511,1.2511,1.2511,1.2511,1.2477,1.2416,1.2416,1.2372,1.2324,1.2317,1.2321,1.2302,1.2043,1.1897,1.1882,1.1793,1.1728,1.1615,1.1615,1.1558,1.1425,1.1418,1.1418,1.1409,1.1418,1.1418,1.1427,1.1409,1.1486,1.1595,1.1477,1.1473,1.1676,1.1493,1.1373,1.1311,1.1305,1.1172,1.0817,1.0791,1.0783,1.0798,1.0912,1.097,1.0978,1.1118,1.1227,1.1315,1.1305,1.1339,1.1411,1.1493,1.1552,1.1626,1.1717,1.18,1.1859,1.1891,1.1788,1.167,1.1832,1.215,1.2284,1.207,1.1902,1.1964,1.1959,1.1995,1.2082,1.2088,1.2088,1.2088,1.2088,1.2042,1.1902,1.2087,1.2267,1.2448,1.2386,1.2374,1.2504,1.2457,1.2446,1.2512,1.255,1.2624,1.2742,1.2833,1.278,1.1859,1.1917,1.2079,1.2147,1.22,1.219,1.22,1.219,1.2181,1.2258,1.2334,1.2314,1.2305,1.2328,1.2211,1.2063,1.1897,1.1773,1.1857,1.2113,1.2143,1.2269,1.2491,1.2511,1.2511,1.2511,1.2511,1.2511,1.2511,1.2511,1.2511,1.2511,1.2511,1.2511,1.2511,1.2511,1.2514,1.2488,1.2195,1.2081,1.2179,1.2088,1.1971,1.1879,1.1866,1.1821,1.1719,1.1712,1.1721,1.1721,1.1721,1.1712,1.1721,1.1712,1.1773,1.1893,1.1888,1.1932,1.2068,1.1943,1.1773,1.1583,1.1572,1.1508,1.1426,1.1412,1.1344,1.1227,1.1205,1.1239,1.1254,1.1329,1.1379,1.1495,1.1542,1.1617,1.1708,1.1816,1.1875,1.1879,1.202,1.2075,1.2088,1.2088,1.1993,1.186,1.2173,1.2489,1.2479,1.2303,1.219,1.2174,1.2154,1.217,1.2186,1.2197,1.2195,1.219,1.2207,1.2208,1.2212,1.228,1.2362,1.2469,1.2529,1.2565,1.2589,1.262,1.2657,1.2745,1.2773,1.2827,1.2993,1.2996,1.2933,1.1983,1.2239,1.2283,1.2364,1.2466,1.2463,1.2447,1.2457,1.247,1.2458,1.247,1.2345,1.2385,1.2454,1.2341,1.226,1.2223,1.2116,1.212,1.2269,1.229,1.2362,1.2488,1.2511,1.2511,1.2511,1.2511,1.2511,1.2511,1.2511,1.2511,1.2511,1.2511,1.2511,1.2511,1.2511,1.2514,1.251,1.2467,1.2443,1.2471,1.2457,1.234,1.2077,1.2077,1.2068,1.2048,1.2057,1.2057,1.2057,1.2048,1.2048,1.2057,1.2048,1.2106,1.2214,1.2133,1.2084,1.2088,1.2084,1.2064,1.2034,1.2009,1.2002,1.198,1.1986,1.1771,1.139,1.1325,1.1398,1.1406,1.159,1.1739,1.176,1.1893,1.2043,1.2036,1.2052,1.2068,1.2059,1.2111,1.2088,1.2132,1.2139,1.2097,1.2061,1.2288,1.2519,1.2509,1.2491,1.245,1.2436,1.2359,1.2348,1.2416,1.247,1.244,1.2447,1.2461,1.2451,1.2445,1.2442,1.2483,1.2493,1.2626,1.2736,1.2897,1.2955,1.2931,1.2959,1.2989,1.305,1.3142,1.3125,1.3027,1.2166,1.2298,1.2389,1.2457,1.2494,1.2511,1.2511,1.2511,1.2511,1.2511,1.2494,1.244,1.2437,1.2478,1.2371,1.2301,1.2287,1.2156,1.2186,1.2294,1.2301,1.2375,1.2497,1.2511,1.2511,1.2511,1.2511,1.2511,1.2511,1.2511,1.2511,1.2511,1.2511,1.2511,1.2511,1.2511,1.2511,1.2511,1.2511,1.2508,1.2517,1.2506,1.2439,1.2363,1.2344,1.2344,1.2344,1.2334,1.2344,1.2337,1.2344,1.2344,1.2334,1.2328,1.2355,1.2406,1.2378,1.2303,1.2212,1.2224,1.2174,1.2095,1.2088,1.2088,1.2088,1.2088,1.1991,1.1807,1.1791,1.1807,1.1807,1.1907,1.1981,1.1979,1.2045,1.2088,1.2088,1.2161,1.2224,1.2222,1.2299,1.2328,1.2344,1.2344,1.2336,1.2339,1.2436,1.2525,1.2508,1.2605,1.2659,1.2634,1.2667,1.2633,1.2562,1.257,1.2604,1.2631,1.2718,1.2773,1.2565,1.2697,1.274,1.2556,1.2722,1.2951,1.3212,1.309,1.3026,1.3165,1.3516,1.3722,1.4024,1.363,1.3476,1.2311,1.2385,1.2451,1.2511,1.2511,1.2511,1.2511,1.2511,1.2511,1.2511,1.2511,1.2511,1.2511,1.2497,1.2402,1.2345,1.2341,1.2258,1.2246,1.2345,1.2345,1.2426,1.2494,1.2511,1.2511,1.2511,1.2511,1.2511,1.2511,1.2511,1.2511,1.2511,1.2511,1.2511,1.2511,1.2511,1.2511,1.2511,1.2511,1.2511,1.2514,1.2511,1.2511,1.2511,1.2511,1.2511,1.2511,1.2511,1.2511,1.2511,1.2511,1.2511,1.2511,1.2511,1.2511,1.2511,1.2511,1.2454,1.2352,1.2362,1.2317,1.2224,1.2211,1.2211,1.2201,1.2211,1.2211,1.2195,1.2211,1.2174,1.2104,1.2139,1.2159,1.2166,1.2174,1.2201,1.2224,1.2294,1.2345,1.2359,1.242,1.2522,1.2549,1.2562,1.2566,1.2487,1.2588,1.265,1.2637,1.2742,1.2773,1.2773,1.2925,1.2901,1.2697,1.2718,1.2776,1.2807,1.2901,1.2899,1.2668,1.2896,1.3067,1.2903,1.2993,1.3276,1.3728,1.3619,1.3588,1.3826,1.4197,1.4668,1.507,1.4398,1.4147,1.2382,1.2471,1.2511,1.2511,1.2511,1.2511,1.2511,1.2511,1.2511,1.2511,1.2511,1.2511,1.2511,1.2511,1.2481,1.2497,1.2488,1.2467,1.247,1.2491,1.2491,1.2504,1.2511,1.2511,1.2511,1.2511,1.2511,1.2511,1.2511,1.2511,1.2511,1.2511,1.2518,1.2518,1.2525,1.2538,1.2518,1.2535,1.2516,1.2525,1.2525,1.2525,1.2531,1.2548,1.2511,1.2511,1.2511,1.2511,1.2511,1.2511,1.2511,1.2511,1.2511,1.2511,1.2511,1.2511,1.2511,1.2511,1.2497,1.2471,1.2493,1.2477,1.2447,1.2467,1.245,1.244,1.245,1.2477,1.2447,1.2371,1.2184,1.2245,1.2287,1.2294,1.2402,1.2463,1.2477,1.2458,1.2497,1.2494,1.2528,1.2596,1.2695,1.2745,1.269,1.2642,1.2775,1.2975,1.2961,1.2882,1.2892,1.2949,1.2999,1.2993,1.2982,1.2955,1.2962,1.2989,1.3003,1.3037,1.3009,1.3026,1.3169,1.3295,1.3404,1.3718,1.4284,1.4617,1.4754,1.4988,1.5329,1.5749,1.6487,1.5422,1.5161,1.2454,1.2511,1.2511,1.2511,1.2511,1.2511,1.2511,1.2511,1.2511,1.2511,1.2511,1.2511,1.2511,1.2511,1.2511,1.2511,1.2511,1.2511,1.2511,1.2511,1.2511,1.2511,1.2511,1.2511,1.2511,1.2511,1.2511,1.2511,1.2511,1.2511,1.2511,1.2522,1.2584,1.2634,1.2654,1.2765,1.2783,1.2684,1.2578,1.2625,1.2855,1.2859,1.282,1.2816,1.2603,1.2511,1.2511,1.2511,1.2511,1.2511,1.2511,1.2511,1.2511,1.2511,1.2511,1.2511,1.2511,1.2511,1.2511,1.2511,1.2511,1.2511,1.2511,1.2518,1.2511,1.2511,1.2511,1.2518,1.2511,1.2443,1.2393,1.24,1.2436,1.2443,1.2477,1.2525,1.2522,1.2563,1.2621,1.2644,1.2725,1.285,1.2884,1.2941,1.2941,1.2882,1.3083,1.3217,1.3251,1.3198,1.3169,1.3159,1.32,1.3251,1.3268,1.3176,1.3135,1.3163,1.319,1.3258,1.3265,1.365,1.3871,1.3851,1.3907,1.4721,1.5477,1.5936,1.607,1.6766,1.7067,1.7413,1.8139,1.7339,1.6942,1.2511,1.2511,1.2511,1.2511,1.2511,1.2511,1.2511,1.2511,1.2511,1.2511,1.2511,1.2511,1.2511,1.2511,1.2511,1.2511,1.2511,1.2511,1.2511,1.2511,1.2511,1.2511,1.2511,1.2511,1.2511,1.2544,1.2621,1.2634,1.2573,1.262,1.267,1.2664,1.2749,1.2807,1.282,1.2938,1.2946,1.2856,1.2719,1.2799,1.3053,1.3113,1.3093,1.2979,1.2772,1.266,1.267,1.2651,1.267,1.266,1.267,1.267,1.267,1.266,1.266,1.268,1.2677,1.266,1.266,1.267,1.267,1.266,1.2651,1.266,1.266,1.2651,1.266,1.267,1.267,1.266,1.266,1.266,1.264,1.2596,1.2617,1.266,1.2677,1.2745,1.2793,1.2813,1.2891,1.3003,1.3074,1.3111,1.3118,1.3112,1.3287,1.3385,1.3399,1.3394,1.3463,1.3487,1.3638,1.3801,1.3992,1.4095,1.383,1.3785,1.3931,1.3853,1.3804,1.4239,1.4685,1.455,1.5013,1.5937,1.6638,1.7146,1.7845,1.8643,1.8968,1.9206,1.9469,1.9485,1.9136,1.2511,1.2511,1.2511,1.2511,1.2511,1.2511,1.2511,1.2511,1.2511,1.2511,1.2511,1.2511,1.2511,1.2511,1.2511,1.2511,1.2511,1.2511,1.2511,1.2511,1.2511,1.2511,1.2511,1.2511,1.2515,1.2545,1.2837,1.2886,1.2739,1.2857,1.2955,1.2992,1.2982,1.3003,1.3003,1.303,1.303,1.3017,1.301,1.3,1.304,1.3244,1.3261,1.3057,1.2999,1.2993,1.3003,1.2982,1.2962,1.2969,1.2959,1.2989,1.2952,1.2962,1.2982,1.2962,1.2982,1.2979,1.2975,1.2979,1.2948,1.2938,1.2975,1.2948,1.2925,1.2938,1.2945,1.2931,1.2955,1.2969,1.2962,1.2955,1.2911,1.2763,1.2844,1.2941,1.2969,1.2989,1.3003,1.3016,1.304,1.3051,1.3163,1.3203,1.3241,1.3336,1.339,1.3418,1.3497,1.3604,1.3725,1.3984,1.4233,1.4434,1.4794,1.5103,1.4776,1.4563,1.476,1.482,1.4599,1.4863,1.6121,1.6322,1.7045,1.7933,1.8375,1.8905,1.96,2.0289,2.0577,2.1083,2.1398,2.1545,2.1258,1.2511,1.2511,1.2511,1.2511,1.2511,1.2511,1.2511,1.2511,1.2511,1.2511,1.2511,1.2511,1.2511,1.2511,1.2511,1.2511,1.2511,1.2511,1.2511,1.2511,1.2511,1.2511,1.2511,1.2511,1.2536,1.2651,1.288,1.2974,1.2925,1.2972,1.3003,1.3016,1.3095,1.3146,1.3132,1.3227,1.3278,1.3278,1.3278,1.3288,1.3271,1.3353,1.336,1.3292,1.3271,1.3271,1.3264,1.3101,1.3009,1.3009,1.3003,1.3003,1.3003,1.3003,1.3003,1.3003,1.3003,1.3003,1.3003,1.3003,1.3009,1.3003,1.3003,1.3003,1.3003,1.3009,1.3009,1.3009,1.3003,1.3003,1.3016,1.3088,1.3074,1.2908,1.2975,1.3016,1.3037,1.3081,1.3193,1.3261,1.3282,1.3298,1.3326,1.3336,1.3352,1.3372,1.3396,1.3434,1.3717,1.4331,1.4536,1.4542,1.4808,1.5308,1.5856,1.6382,1.6451,1.6267,1.6309,1.5928,1.5632,1.6302,1.747,1.8414,1.9148,1.9736,2.0176,2.0717,2.1403,2.215,2.2727,2.323,2.3723,2.3628,2.3254,1.2511,1.2511,1.2511,1.2511,1.2511,1.2511,1.2511,1.2511,1.2511,1.2511,1.2511,1.2511,1.2511,1.2511,1.2511,1.2511,1.2511,1.2511,1.2511,1.2511,1.2511,1.2511,1.2515,1.2514,1.2615,1.283,1.305,1.3118,1.3084,1.3129,1.3146,1.3166,1.3234,1.3282,1.3271,1.3349,1.3397,1.3397,1.3397,1.3397,1.3397,1.3397,1.3397,1.3397,1.3397,1.3397,1.34,1.3241,1.3156,1.3156,1.3146,1.3146,1.3135,1.3152,1.3135,1.3146,1.3166,1.3163,1.3156,1.3159,1.3146,1.3156,1.3156,1.3156,1.3156,1.3156,1.3146,1.3156,1.3152,1.3146,1.3176,1.3231,1.3234,1.3152,1.3166,1.3152,1.3159,1.322,1.3302,1.3376,1.3437,1.3468,1.3464,1.3514,1.3479,1.3444,1.3395,1.3748,1.4302,1.5297,1.5458,1.5633,1.5971,1.6508,1.7058,1.7579,1.8081,1.81,1.8086,1.7392,1.6795,1.828,1.9621,2.0399,2.1134,2.1711,2.216,2.2567,2.3162,2.3952,2.4742,2.5291,2.5651,2.5386,2.5116,1.2511,1.2511,1.2511,1.2511,1.2511,1.2511,1.2511,1.2511,1.2511,1.2511,1.2511,1.2511,1.2511,1.2511,1.2569,1.2608,1.255,1.2675,1.2735,1.2722,1.271,1.2704,1.2609,1.26,1.2748,1.3006,1.3261,1.3319,1.3234,1.3305,1.3397,1.337,1.3363,1.339,1.3393,1.3397,1.3397,1.3397,1.3397,1.3397,1.3397,1.3397,1.3397,1.3397,1.3397,1.3397,1.339,1.337,1.337,1.34,1.3363,1.3356,1.3383,1.3397,1.337,1.3352,1.339,1.337,1.3383,1.3383,1.338,1.34,1.34,1.3424,1.3434,1.3413,1.3424,1.3413,1.3424,1.3455,1.3493,1.3552,1.3565,1.3555,1.3613,1.3566,1.3528,1.3583,1.3725,1.3686,1.3647,1.3736,1.3852,1.3923,1.3798,1.3574,1.3599,1.4312,1.5558,1.655,1.6921,1.7134,1.7297,1.8119,1.8801,1.9154,1.9792,2.088,2.0605,1.9699,1.9395,2.0931,2.1691,2.2437,2.315,2.369,2.4038,2.436,2.4952,2.5757,2.6486,2.7187,2.7219,2.6864,2.6816,1.2511,1.2511,1.2511,1.2511,1.2511,1.2511,1.2511,1.2511,1.2521,1.254,1.2521,1.2511,1.2559,1.255,1.282,1.2946,1.3001,1.3242,1.3482,1.3598,1.3603,1.33,1.2956,1.2876,1.2983,1.32,1.3428,1.3394,1.3363,1.3449,1.3438,1.3397,1.3445,1.3407,1.3397,1.3397,1.3397,1.3397,1.3397,1.3397,1.3397,1.3397,1.3397,1.3397,1.3393,1.341,1.3403,1.3397,1.3397,1.3397,1.3397,1.3397,1.3417,1.3417,1.3424,1.3413,1.3407,1.341,1.342,1.3502,1.3535,1.3559,1.3616,1.3701,1.3697,1.369,1.369,1.369,1.3712,1.3896,1.4178,1.4284,1.4426,1.4692,1.4631,1.4496,1.4637,1.4797,1.4807,1.4815,1.4805,1.4845,1.4859,1.4853,1.4607,1.4113,1.4468,1.5601,1.7248,1.8309,1.8895,1.8555,1.8751,1.9779,2.0541,2.086,2.1739,2.3402,2.3381,2.2615,2.3075,2.4476,2.4566,2.4612,2.5307,2.5905,2.5844,2.5918,2.6707,2.7355,2.7741,2.8156,2.8244,2.8075,2.821,1.2511,1.2511,1.2511,1.2511,1.2511,1.2511,1.2511,1.254,1.2685,1.2762,1.2782,1.2936,1.3004,1.3023,1.3235,1.3361,1.3387,1.3676,1.3874,1.3992,1.4104,1.3964,1.3663,1.3522,1.3557,1.3842,1.4058,1.4083,1.3997,1.3935,1.3863,1.3745,1.3694,1.3611,1.3397,1.3397,1.3397,1.3397,1.3397,1.3397,1.3397,1.3397,1.3434,1.3468,1.3488,1.3502,1.3563,1.3576,1.3556,1.3508,1.3478,1.3508,1.3548,1.3566,1.3576,1.3566,1.3555,1.3576,1.3579,1.3643,1.3694,1.3697,1.3761,1.3788,1.3841,1.3973,1.4133,1.4141,1.4283,1.4679,1.5017,1.5022,1.5359,1.6076,1.6246,1.5954,1.5453,1.5429,1.5561,1.5641,1.5807,1.5972,1.599,1.6023,1.556,1.5106,1.5517,1.7375,1.9382,2.0205,2.0722,2.0406,2.0593,2.1616,2.2525,2.2962,2.36,2.5214,2.5796,2.5105,2.5613,2.6868,2.642,2.6241,2.7238,2.7836,2.7636,2.7537,2.7885,2.8409,2.8771,2.8958,2.9033,2.8978,2.9178,1.2511,1.2511,1.2511,1.253,1.2569,1.2569,1.2656,1.2724,1.3023,1.3158,1.3235,1.36,1.3717,1.3785,1.3949,1.3945,1.4004,1.4368,1.4449,1.4627,1.4777,1.4843,1.4932,1.4367,1.4379,1.4686,1.5113,1.5069,1.4865,1.4785,1.4576,1.4307,1.418,1.388,1.359,1.3448,1.3397,1.3393,1.3396,1.342,1.3454,1.3474,1.3532,1.3602,1.3616,1.3663,1.3745,1.3768,1.3734,1.366,1.363,1.367,1.3768,1.3788,1.3792,1.3778,1.3754,1.3772,1.3809,1.3799,1.3897,1.3936,1.3978,1.3967,1.4206,1.4607,1.4916,1.4905,1.5237,1.5776,1.6284,1.5994,1.6562,1.7706,1.8449,1.7824,1.6486,1.616,1.6379,1.6419,1.6957,1.7226,1.7306,1.7301,1.7139,1.6525,1.7184,1.9065,2.1058,2.235,2.2567,2.2363,2.2814,2.3543,2.4374,2.5106,2.5883,2.6886,2.7538,2.7403,2.7182,2.7735,2.7457,2.7555,2.8062,2.8699,2.9214,2.9243,2.9165,2.9196,2.936,2.9617,2.9813,2.9599,2.9637,1.2511,1.2511,1.2511,1.2685,1.2936,1.2965,1.3158,1.3438,1.3534,1.364,1.3689,1.4074,1.4278,1.4334,1.4946,1.5273,1.5446,1.5772,1.6124,1.6408,1.6258,1.6467,1.6393,1.5637,1.5136,1.5391,1.5675,1.5801,1.5723,1.5548,1.5226,1.5123,1.4573,1.4073,1.398,1.3687,1.3403,1.3403,1.3425,1.3458,1.3569,1.3664,1.3721,1.3765,1.3761,1.3785,1.3788,1.3795,1.3864,1.3919,1.3857,1.3816,1.3833,1.3822,1.3829,1.385,1.3843,1.383,1.3843,1.4035,1.4227,1.4591,1.4734,1.4892,1.5305,1.576,1.6,1.6085,1.6453,1.7233,1.81,1.8011,1.8572,1.9699,2.0691,2.0775,1.9686,1.9025,1.8784,1.8895,1.9331,1.9797,1.9799,1.9769,1.9289,1.8351,1.9211,2.0848,2.2646,2.4452,2.4486,2.4342,2.4598,2.5268,2.6129,2.6799,2.7404,2.802,2.8619,2.8988,2.8771,2.8702,2.8436,2.8432,2.8603,2.925,2.9841,2.9864,2.9561,2.9753,2.986,2.9887,2.9913,2.9913,2.9913,1.2598,1.2772,1.2782,1.3013,1.3378,1.3621,1.3833,1.4103,1.4459,1.4584,1.4728,1.5237,1.5516,1.5572,1.6273,1.6697,1.6852,1.7208,1.7554,1.7738,1.769,1.7786,1.7856,1.7293,1.6801,1.6729,1.683,1.7016,1.71,1.6833,1.6546,1.6238,1.542,1.5008,1.4763,1.4382,1.4118,1.3887,1.3562,1.3482,1.3679,1.3921,1.3978,1.397,1.3992,1.4033,1.4029,1.4051,1.4102,1.4147,1.4102,1.4044,1.4044,1.4033,1.4044,1.4055,1.4283,1.4352,1.443,1.4679,1.5086,1.5534,1.5627,1.5977,1.6517,1.7137,1.7596,1.7823,1.8379,1.9178,2.0201,2.0266,2.0796,2.1816,2.2981,2.3148,2.2139,2.1248,2.0724,2.0888,2.1415,2.1776,2.1949,2.1976,2.1461,2.0526,2.1093,2.2757,2.5291,2.6759,2.6537,2.6428,2.6462,2.6923,2.7838,2.8426,2.872,2.9093,2.9369,2.9567,2.9492,2.9473,2.9468,2.9367,2.9229,2.9446,2.9898,2.9913,2.9913,2.99,2.9887,2.99,2.9913,2.9913,2.9913,1.2917,1.3293,1.3293,1.3563,1.4026,1.4489,1.4749,1.4921,1.5544,1.5869,1.6042,1.673,1.7026,1.7225,1.7846,1.8145,1.8309,1.8539,1.8868,1.8831,1.8829,1.892,1.896,1.8879,1.8828,1.8552,1.8378,1.8563,1.8828,1.8573,1.8129,1.7658,1.6718,1.6246,1.5934,1.5498,1.5122,1.4802,1.3945,1.3787,1.4143,1.4442,1.4523,1.4495,1.453,1.4516,1.4454,1.4434,1.444,1.4409,1.4409,1.4454,1.4498,1.442,1.4465,1.4517,1.489,1.5117,1.5344,1.5646,1.6069,1.6673,1.6862,1.7236,1.7951,1.8828,1.9394,1.9939,2.0531,2.1509,2.2279,2.2521,2.2925,2.3783,2.5001,2.5101,2.4174,2.3181,2.2946,2.2513,2.3245,2.3836,2.3961,2.3983,2.3361,2.2976,2.3587,2.4753,2.7234,2.8589,2.8186,2.7925,2.7821,2.7977,2.8805,2.9078,2.9502,2.9616,2.988,2.9891,2.9913,2.9835,2.9745,2.9812,2.9799,2.9913,2.9913,2.9913,2.9913,2.9913,2.9913,2.9913,2.9913,2.9913,2.9913,1.3766,1.4182,1.4182,1.4603,1.5285,1.5727,1.61,1.6443,1.6902,1.7112,1.7236,1.794,1.83,1.8579,1.9383,1.9791,1.9899,2.0107,2.0099,1.9927,1.9907,2.0018,2.0272,2.0384,2.0596,2.083,2.0424,2.0272,2.0455,2.012,1.9742,1.9429,1.8247,1.7542,1.7378,1.6848,1.6244,1.5711,1.4722,1.4484,1.5071,1.5355,1.5476,1.5414,1.5447,1.5267,1.4988,1.4911,1.4888,1.4888,1.4899,1.5127,1.5388,1.5204,1.5226,1.5385,1.5617,1.5923,1.6429,1.6575,1.736,1.8298,1.8744,1.9198,2.0025,2.0916,2.1514,2.2066,2.294,2.3913,2.407,2.4485,2.4958,2.5491,2.6024,2.6511,2.6011,2.5738,2.5342,2.4587,2.5206,2.5795,2.5793,2.5791,2.5475,2.5069,2.5271,2.6473,2.8525,2.9364,2.9264,2.9081,2.8941,2.921,2.964,2.9663,2.9799,2.9777,2.9902,2.9902,2.9913,2.9913,2.9913,2.9913,2.9913,2.9913,2.9913,2.9913,2.9913,2.9913,2.9913,2.9913,2.9913,2.9913,2.9913,1.4547,1.5334,1.5344,1.5803,1.6568,1.7197,1.755,1.7797,1.8357,1.8642,1.8822,1.9266,1.9766,2.0172,2.0678,2.116,2.1468,2.1573,2.1508,2.1356,2.1366,2.1427,2.1669,2.1809,2.2283,2.2657,2.2474,2.2052,2.1943,2.1476,2.1287,2.0992,1.9914,1.9253,1.8979,1.8299,1.7571,1.6841,1.6061,1.574,1.6298,1.6433,1.6434,1.6442,1.642,1.617,1.5844,1.5857,1.5746,1.5646,1.585,1.6267,1.6577,1.6751,1.6586,1.6428,1.6578,1.7125,1.7875,1.8228,1.9101,2.0376,2.0671,2.1201,2.2147,2.3087,2.3815,2.4621,2.5296,2.6157,2.6191,2.6296,2.6547,2.7049,2.7506,2.7574,2.7549,2.7649,2.7145,2.6506,2.6984,2.7349,2.7419,2.7428,2.744,2.7315,2.7097,2.8198,2.9737,2.9838,2.9767,2.9673,2.9451,2.9575,2.9835,2.9869,2.9913,2.9913,2.9913,2.9913,2.9913,2.9913,2.9913,2.9913,2.9913,2.9913,2.9913,2.9913,2.9913,2.9913,2.9913,2.9913,2.9913,2.9913,2.9913,1.5593,1.6673,1.6683,1.7141,1.793,1.8632,1.9011,1.9219,1.9844,2.0211,2.0353,2.0785,2.1335,2.183,2.2241,2.2625,2.2997,2.2978,2.2888,2.2747,2.2757,2.2837,2.3068,2.3321,2.3676,2.4104,2.4302,2.4183,2.3471,2.3002,2.2853,2.2612,2.1819,2.1103,2.069,2.0012,1.9131,1.8444,1.7931,1.7712,1.788,1.7759,1.7697,1.7733,1.7733,1.756,1.717,1.72,1.7007,1.6893,1.7121,1.768,1.8126,1.8624,1.855,1.7998,1.8065,1.8713,1.9635,2.013,2.1003,2.2602,2.274,2.3386,2.4227,2.5195,2.6052,2.7113,2.7535,2.7703,2.7577,2.7566,2.7724,2.81,2.8397,2.8566,2.852,2.8553,2.8621,2.8436,2.8745,2.8644,2.8474,2.8677,2.8607,2.8594,2.8398,2.8557,2.9843,2.9886,2.9873,2.9871,2.9812,2.9812,2.9891,2.9891,2.9913,2.9913,2.9913,2.9913,2.9913,2.9913,2.9913,2.9913,2.9913,2.9913,2.9913,2.9913,2.9913,2.9913,2.9913,2.9913,2.9913,2.9913,2.9913,1.7217,1.831,1.8309,1.8784,1.9512,2.0003,2.0408,2.0765,2.1189,2.1592,2.1902,2.2554,2.2903,2.3223,2.3936,2.4261,2.4244,2.4148,2.3948,2.3708,2.3688,2.3858,2.4188,2.4298,2.4719,2.5191,2.5415,2.5418,2.5063,2.4727,2.4576,2.4379,2.372,2.3012,2.2342,2.1772,2.1163,2.0326,1.9805,1.9975,2.0503,2.0046,1.9813,1.9874,1.9874,1.9577,1.8997,1.8928,1.8693,1.8285,1.8674,1.9185,1.9653,2.0263,2.101,2.0986,2.0726,2.034,2.1703,2.2094,2.2948,2.4506,2.5048,2.5684,2.6352,2.6929,2.7563,2.8201,2.8418,2.8463,2.852,2.8566,2.86,2.8668,2.8861,2.8983,2.906,2.9116,2.9217,2.9352,2.9352,2.9262,2.9115,2.9465,2.9734,2.9734,2.9734,2.979,2.9824,2.988,2.9913,2.9913,2.9913,2.9913,2.9913,2.9913,2.9913,2.9913,2.9913,2.9913,2.9913,2.9913,2.9913,2.9913,2.9913,2.9913,2.9913,2.9913,2.9913,2.9913,2.9913,2.9913,2.9913,2.9913,2.9913,1.9341,1.9635,1.986,2.0285,2.0879,2.1499,2.1864,2.2088,2.2433,2.2821,2.3164,2.3464,2.3785,2.4229,2.4967,2.5109,2.4895,2.4858,2.4759,2.4579,2.4569,2.4659,2.4899,2.526,2.573,2.5946,2.6345,2.6694,2.6518,2.6123,2.577,2.5711,2.5295,2.4606,2.3848,2.3365,2.2643,2.2026,2.1784,2.228,2.2813,2.2504,2.1993,2.2097,2.2096,2.1601,2.1041,2.0908,2.0539,2.0182,2.0599,2.1185,2.1592,2.222,2.3024,2.3537,2.3429,2.3531,2.4095,2.4106,2.5105,2.6184,2.6856,2.7206,2.8021,2.8417,2.8721,2.9251,2.9296,2.9274,2.9262,2.9399,2.9377,2.9365,2.9287,2.9388,2.951,2.9566,2.9655,2.9812,2.9891,2.97,2.9552,2.97,2.9857,2.9835,2.9824,2.9846,2.9869,2.9891,2.9913,2.9913,2.9913,2.9913,2.9913,2.9913,2.9913,2.9913,2.9913,2.9913,2.9913,2.9913,2.9913,2.9913,2.9913,2.9913,2.9913,2.9913,2.9913,2.9913,2.9913,2.9913,2.9913,2.9913,2.9913,2.1318,2.1168,2.1375,2.1674,2.2091,2.2694,2.2992,2.3144,2.349,2.3864,2.4182,2.4397,2.4723,2.5137,2.5652,2.574,2.5445,2.5418,2.5428,2.5428,2.5441,2.5467,2.5702,2.6109,2.64,2.6551,2.7036,2.7405,2.746,2.7218,2.6821,2.669,2.6466,2.5887,2.5196,2.4652,2.4053,2.3097,2.3522,2.4453,2.5316,2.4715,2.433,2.423,2.4097,2.3717,2.3064,2.284,2.2455,2.2109,2.2725,2.3279,2.3472,2.4238,2.4979,2.5491,2.5627,2.6025,2.623,2.6355,2.6878,2.7604,2.8247,2.8552,2.9081,2.9384,2.9451,2.9768,2.9801,2.9835,2.9902,2.9869,2.9801,2.9768,2.9812,2.988,2.9902,2.9835,2.979,2.9857,2.9913,2.9913,2.9824,2.9857,2.9902,2.9902,2.9913,2.9913,2.9913,2.9913,2.9913,2.9913,2.9913,2.9913,2.9913,2.9913,2.9913,2.9913,2.9913,2.9913,2.9913,2.9913,2.9913,2.9913,2.9913,2.9913,2.9913,2.9913,2.9913,2.9913,2.9913,2.9913,2.9913,2.9913,2.9913,2.289,2.3169,2.2815,2.289,2.3225,2.3327,2.3577,2.3911,2.4253,2.4627,2.5025,2.5538,2.586,2.6161,2.6188,2.6258,2.6261,2.6297,2.6198,2.6208,2.6324,2.6321,2.649,2.6692,2.7009,2.7402,2.7642,2.785,2.8051,2.7935,2.7662,2.7461,2.731,2.6783,2.6243,2.581,2.5232,2.4616,2.5051,2.6435,2.717,2.6893,2.6199,2.6255,2.5978,2.5589,2.5332,2.49,2.4433,2.3908,2.4693,2.5183,2.5343,2.6072,2.6742,2.7071,2.732,2.7739,2.8056,2.7875,2.8112,2.8845,2.9364,2.951,2.97,2.9812,2.9891,2.988,2.9902,2.9913,2.9913,2.9913,2.9913,2.9913,2.9913,2.9913,2.9913,2.9902,2.988,2.9902,2.9913,2.9913,2.9913,2.9913,2.9913,2.9913,2.9913,2.9913,2.9913,2.9913,2.9913,2.9913,2.9913,2.9913,2.9913,2.9913,2.9913,2.9913,2.9913,2.9913,2.9913,2.9913,2.9913,2.9913,2.9913,2.9913,2.9913,2.9913,2.9913,2.9913,2.9913,2.9913,2.9913,2.9913,2.9913,2.3776,2.4128,2.397,2.385,2.3781,2.4026,2.4344,2.4661,2.4821,2.5181,2.5667,2.6078,2.6299,2.6383,2.641,2.641,2.641,2.64,2.641,2.6476,2.656,2.6687,2.6874,2.7178,2.7475,2.7719,2.789,2.8034,2.8162,2.8203,2.8136,2.797,2.7899,2.7548,2.7105,2.6846,2.6353,2.6192,2.6553,2.7717,2.8772,2.8505,2.7862,2.7745,2.7692,2.7278,2.6934,2.6708,2.6322,2.6163,2.6526,2.6719,2.689,2.757,2.7965,2.8236,2.8417,2.8788,2.907,2.8878,2.898,2.942,2.979,2.9913,2.9913,2.9913,2.9913,2.9902,2.9913,2.9913,2.9913,2.9913,2.9913,2.9913,2.9913,2.9913,2.9913,2.9913,2.9913,2.9913,2.9913,2.9913,2.9913,2.9913,2.9913,2.9913,2.9913,2.9913,2.9913,2.9913,2.9913,2.9913,2.9913,2.9913,2.9913,2.9913,2.9913,2.9913,2.9913,2.9913,2.9913,2.9913,2.9913,2.9913,2.9913,2.9913,2.9913,2.9913,2.9913,2.9913,2.9913,2.9913,2.9913,2.9913,2.9913,2.4331,2.459,2.4599,2.4442,2.4252,2.4591,2.489,2.5109,2.531,2.564,2.6131,2.6316,2.641,2.641,2.641,2.641,2.641,2.641,2.6476,2.656,2.6697,2.6887,2.7164,2.7442,2.7706,2.7863,2.8045,2.8203,2.8203,2.8203,2.8181,2.8184,2.8262,2.8053,2.7906,2.7773,2.7618,2.7609,2.7921,2.8554,2.9671,2.941,2.9094,2.8843,2.8708,2.846,2.8112,2.7864,2.7649,2.7581,2.7796,2.8089,2.8304,2.8565,2.8846,2.9026,2.9184,2.9373,2.9395,2.944,2.9566,2.9801,2.9869,2.9913,2.9913,2.9913,2.9913,2.9913,2.9913,2.9913,2.9913,2.9913,2.9913,2.9913,2.9913,2.9913,2.9913,2.9913,2.9913,2.9913,2.9913,2.9913,2.9913,2.9913,2.9913,2.9913,2.9913,2.9913,2.9913,2.9913,2.9913,2.9913,2.9913,2.9913,2.9913,2.9913,2.9913,2.9913,2.9913,2.9913,2.9913,2.9913,2.9913,2.9913,2.9913,2.9913,2.9913,2.9913,2.9913,2.9913,2.9913,2.9913,2.9913,2.9913,2.9913,2.459,2.4599,2.4599,2.4581,2.4597,2.4934,2.5105,2.5216,2.5717,2.6095,2.6339,2.6396,2.641,2.641,2.641,2.641,2.6423,2.6436,2.6543,2.6724,2.6924,2.7201,2.7468,2.7733,2.7914,2.8136,2.8203,2.8203,2.8203,2.8203,2.8203,2.8353,2.8519,2.8636,2.8601,2.8809,2.8922,2.896,2.9072,2.9448,2.9719,2.9768,2.9689,2.9566,2.9352,2.9092,2.898,2.8745,2.8553,2.8565,2.8811,2.9013,2.9092,2.9442,2.9667,2.9734,2.9779,2.9846,2.9869,2.9857,2.9869,2.988,2.9913,2.9913,2.9913,2.9913,2.9913,2.9913,2.9913,2.9913,2.9913,2.9913,2.9913,2.9913,2.9913,2.9913,2.9913,2.9913,2.9913,2.9913,2.9913,2.9913,2.9913,2.9913,2.9913,2.9913,2.9913,2.9913,2.9913,2.9913,2.9913,2.9913,2.9913,2.9913,2.9913,2.9913,2.9913,2.9913,2.9913,2.9913,2.9913,2.9913,2.9913,2.9913,2.9913,2.9913,2.9913,2.9913,2.9913,2.9913,2.9913,2.9913,2.9913,2.9913,2.9913,2.4599,2.4599,2.4599,2.4734,2.4939,2.5056,2.5203,2.5451,2.5968,2.6312,2.6383,2.641,2.641,2.641,2.641,2.641,2.6436,2.664,2.6777,2.6844,2.7175,2.7455,2.7719,2.7927,2.8082,2.8162,2.8203,2.8203,2.8203,2.8229,2.8342,2.8494,2.8895,2.9176,2.9205,2.9315,2.9373,2.9555,2.9655,2.9775,2.9889,2.9913,2.9902,2.988,2.9712,2.9633,2.9622,2.9364,2.9319,2.9319,2.9577,2.9611,2.9609,2.9891,2.9902,2.9913,2.9913,2.9913,2.9913,2.9891,2.9902,2.9913,2.9913,2.9913,2.9913,2.9913,2.9913,2.9913,2.9913,2.9913,2.9913,2.9913,2.9913,2.9913,2.9913,2.9913,2.9913,2.9913,2.9913,2.9913,2.9913,2.9913,2.9913,2.9913,2.9913,2.9913,2.9913,2.9913,2.9913,2.9913,2.9913,2.9913,2.9913,2.9913,2.9913,2.9913,2.9913,2.9913,2.9913,2.9913,2.9913,2.9913,2.9913,2.9913,2.9913,2.9913,2.9913,2.9913,2.9913,2.9913,2.9913,2.9913,2.9913,2.9913,2.9913,2.4599,2.4599,2.4599,2.48,2.5096,2.5203,2.5438,2.5838,2.6226,2.641,2.641,2.641,2.641,2.641,2.641,2.648,2.6547,2.6697,2.7034,2.7111,2.7482,2.7733,2.7927,2.8082,2.8149,2.8203,2.8203,2.8203,2.8216,2.8288,2.8559,2.8949,2.9296,2.947,2.9577,2.9659,2.9702,2.9815,2.9851,2.9875,2.9913,2.9913,2.9913,2.9902,2.988,2.9891,2.9902,2.9913,2.9913,2.9913,2.9913,2.9913,2.9913,2.9913,2.9913,2.9913,2.9913,2.9913,2.9913,2.9913,2.9913,2.9913,2.9913,2.9913,2.9913,2.9913,2.9913,2.9913,2.9913,2.9913,2.9913,2.9913,2.9913,2.9913,2.9913,2.9913,2.9913,2.9913,2.9913,2.9913,2.9913,2.9913,2.9913,2.9913,2.9913,2.9913,2.9913,2.9913,2.9913,2.9913,2.9913,2.9913,2.9913,2.9913,2.9913,2.9913,2.9913,2.9913,2.9913,2.9913,2.9913,2.9913,2.9913,2.9913,2.9913,2.9913,2.9913,2.9913,2.9913,2.9913,2.9913,2.9913,2.9913,2.9913,2.9913,2.4599,2.4599,2.4599,2.4791,2.5136,2.5438,2.5856,2.6369,2.6396,2.641,2.641,2.641,2.641,2.641,2.641,2.6533,2.6764,2.682,2.7164,2.7498,2.7733,2.7941,2.8072,2.8176,2.8203,2.8203,2.8213,2.8264,2.8267,2.8585,2.9002,2.9323,2.9486,2.9659,2.9793,2.9847,2.9862,2.99,2.9913,2.9913,2.9913,2.9913,2.9913,2.9913,2.9913,2.9913,2.9913,2.9913,2.9913,2.9913,2.9913,2.9913,2.9913,2.9913,2.9913,2.9913,2.9913,2.9913,2.9913,2.9913,2.9913,2.9913,2.9913,2.9913,2.9913,2.9913,2.9913,2.9913,2.9913,2.9913,2.9913,2.9913,2.9913,2.9913,2.9913,2.9913,2.9913,2.9913,2.9913,2.9913,2.9913,2.9913,2.9913,2.9913,2.9913,2.9913,2.9913,2.9913,2.9913,2.9913,2.9913,2.9913,2.9913,2.9913,2.9913,2.9913,2.9913,2.9913,2.9913,2.9913,2.9913,2.9913,2.9913,2.9913,2.9913,2.9913,2.9913,2.9913,2.9913,2.9913,2.9913,2.9913,2.9913,2.9913,2.9913,2.4599,2.4599,2.4599,2.4902,2.5424,2.5919,2.6239,2.6396,2.641,2.641,2.641,2.641,2.641,2.641,2.641,2.6577,2.6804,2.7057,2.7358,2.7663,2.7917,2.8074,2.8152,2.8203,2.8203,2.8203,2.824,2.8403,2.877,2.9046,2.9219,2.947,2.9673,2.982,2.9873,2.9913,2.9913,2.9913,2.9913,2.9913,2.9913,2.9913,2.9913,2.9913,2.9913,2.9913,2.9913,2.9913,2.9913,2.9913,2.9913,2.9913,2.9913,2.9913,2.9913,2.9913,2.9913,2.9913,2.9913,2.9913,2.9913,2.9913,2.9913,2.9913,2.9913,2.9913,2.9913,2.9913,2.9913,2.9913,2.9913,2.9913,2.9913,2.9913,2.9913,2.9913,2.9913,2.9913,2.9913,2.9913,2.9913,2.9913,2.9913,2.9913,2.9913,2.9913,2.9913,2.9913,2.9913,2.9913,2.9913,2.9913,2.9913,2.9913,2.9913,2.9913,2.9913,2.9913,2.9913,2.9913,2.9913,2.9913,2.9913,2.9913,2.9913,2.9913,2.9913,2.9913,2.9913,2.9913,2.9913,2.9913,2.9913,2.9913,2.9913,2.4599,2.4599,2.4599,2.4942,2.5539,2.6142,2.641,2.641,2.641,2.641,2.641,2.641,2.641,2.6413,2.652,2.6724,2.7028,2.7332,2.7636,2.7924,2.8098,2.8162,2.8189,2.8203,2.8203,2.8216,2.8347,2.8585,2.9004,2.9334,2.9521,2.9673,2.9862,2.9875,2.9913,2.9913,2.9913,2.9913,2.9913,2.9913,2.9913,2.9913,2.9913,2.9913,2.9913,2.9913,2.9913,2.9913,2.9913,2.9913,2.9913,2.9913,2.9913,2.9913,2.9913,2.9913,2.9913,2.9913,2.9913,2.9913,2.9913,2.9913,2.9913,2.9913,2.9913,2.9913,2.9913,2.9913,2.9913,2.9913,2.9913,2.9913,2.9913,2.9913,2.9913,2.9913,2.9913,2.9913,2.9913,2.9913,2.9913,2.9913,2.9913,2.9913,2.9913,2.9913,2.9913,2.9913,2.9913,2.9913,2.9913,2.9913,2.9913,2.9913,2.9913,2.9913,2.9913,2.9913,2.9913,2.9913,2.9913,2.9913,2.9913,2.9913,2.9913,2.9913,2.9913,2.9913,2.9913,2.9913,2.9913,2.9913,2.9913,2.9913,2.9913,2.4599,2.4608,2.4643,2.4999,2.5548,2.6132,2.641,2.641,2.641,2.641,2.641,2.641,2.6413,2.6507,2.6667,2.6974,2.7255,2.7549,2.7807,2.8186,2.8176,2.8203,2.8203,2.8203,2.82,2.8294,2.8473,2.8727,2.9066,2.9406,2.9724,2.9913,2.9913,2.9913,2.9913,2.9913,2.9913,2.9913,2.9913,2.9913,2.9913,2.9913,2.9913,2.9913,2.9913,2.9913,2.9913,2.9913,2.9913,2.9913,2.9913,2.9913,2.9913,2.9913,2.9913,2.9913,2.9913,2.9913,2.9913,2.9913,2.9913,2.9913,2.9913,2.9913,2.9913,2.9913,2.9913,2.9913,2.9913,2.9913,2.9913,2.9913,2.9913,2.9913,2.9913,2.9913,2.9913,2.9913,2.9913,2.9913,2.9913,2.9913,2.9913,2.9913,2.9913,2.9913,2.9913,2.9913,2.9913,2.9913,2.9913,2.9913,2.9913,2.9913,2.9913,2.9913,2.9913,2.9913,2.9913,2.9913,2.9913,2.9913,2.9913,2.9913,2.9913,2.9913,2.9913,2.9913,2.9913,2.9913,2.9913,2.9913,2.9913,2.9913,2.9913,2.4599,2.4648,2.5089,2.5379,2.5565,2.6156,2.641,2.641,2.641,2.641,2.641,2.6423,2.652,2.6684,2.6827,2.7134,2.7522,2.7706,2.7914,2.8109,2.8189,2.8203,2.8216,2.8232,2.8217,2.8292,2.851,2.8939,2.9322,2.9639,2.982,2.99,2.9913,2.9913,2.9913,2.9913,2.9913,2.9913,2.9913,2.9913,2.9913,2.9913,2.9913,2.9913,2.9913,2.9913,2.9913,2.9913,2.9913,2.9913,2.9913,2.9913,2.9913,2.9913,2.9913,2.9913,2.9913,2.9913,2.9913,2.9913,2.9913,2.9913,2.9913,2.9913,2.9913,2.9913,2.9913,2.9913,2.9913,2.9913,2.9913,2.9913,2.9913,2.9913,2.9913,2.9913,2.9913,2.9913,2.9913,2.9913,2.9913,2.9913,2.9913,2.9913,2.9913,2.9913,2.9913,2.9913,2.9913,2.9913,2.9913,2.9913,2.9913,2.9913,2.9913,2.9913,2.9913,2.9913,2.9913,2.9913,2.9913,2.9913,2.9913,2.9913,2.9913,2.9913,2.9913,2.9913,2.9913,2.9913,2.9913,2.9913,2.9913,2.9913,2.9913,2.4599,2.4666,2.5236,2.5518,2.5606,2.6146,2.641,2.641,2.641,2.6486,2.6563,2.6587,2.668,2.6887,2.7057,2.7295,2.7719,2.7863,2.8031,2.8162,2.8216,2.8203,2.8229,2.8315,2.8276,2.8352,2.896,2.9428,2.9655,2.978,2.99,2.9913,2.9913,2.9913,2.9913,2.9913,2.9913,2.9913,2.9913,2.9913,2.9913,2.9913,2.9913,2.9913,2.9913,2.9913,2.9913,2.9913,2.9913,2.9913,2.9913,2.9913,2.9913,2.9913,2.9913,2.9913,2.9913,2.9913,2.9913,2.9913,2.9913,2.9913,2.9913,2.9913,2.9913,2.9913,2.9913,2.9913,2.9913,2.9913,2.9913,2.9913,2.9913,2.9913,2.9913,2.9913,2.9913,2.9913,2.9913,2.9913,2.9913,2.9913,2.9913,2.9913,2.9913,2.9913,2.9913,2.9913,2.9913,2.9913,2.9913,2.9913,2.9913,2.9913,2.9913,2.9913,2.9913,2.9913,2.9913,2.9913,2.9913,2.9913,2.9913,2.9913,2.9913,2.9913,2.9913,2.9913,2.9913,2.9913,2.9913,2.9913,2.9913,2.9913,2.9913,2.4635,2.4733,2.5281,2.5535,2.5642,2.6146,2.641,2.641,2.644,2.6587,2.6794,2.6887,2.6924,2.7124,2.7405,2.7615,2.7813,2.8008,2.8162,2.8216,2.8248,2.8302,2.8398,2.8511,2.8542,2.8816,2.9362,2.9643,2.986,2.9913,2.9913,2.9913,2.9913,2.9913,2.9913,2.9913,2.9913,2.9913,2.9913,2.9913,2.9913,2.9913,2.9913,2.9913,2.9913,2.9913,2.9913,2.9913,2.9913,2.9913,2.9913,2.9913,2.9913,2.9913,2.9913,2.9913,2.9913,2.9913,2.9913,2.9913,2.9913,2.9913,2.9913,2.9913,2.9913,2.9913,2.9913,2.9913,2.9913,2.9913,2.9913,2.9913,2.9913,2.9913,2.9913,2.9913,2.9913,2.9913,2.9913,2.9913,2.9913,2.9913,2.9913,2.9913,2.9913,2.9913,2.9913,2.9913,2.9913,2.9913,2.9913,2.9913,2.9913,2.9913,2.9913,2.9913,2.9913,2.9913,2.9913,2.9913,2.9913,2.9913,2.9913,2.9913,2.9913,2.9913,2.9913,2.9913,2.9913,2.9913,2.9913,2.9913,2.9913,2.9913,2.9913,2.4774,2.5033,2.5371,2.5661,2.5934,2.6249,2.641,2.6436,2.663,2.6777,2.6941,2.7338,2.7535,2.7532,2.7626,2.7799,2.8034,2.8192,2.8203,2.8203,2.8428,2.8508,2.8593,2.874,2.9028,2.9352,2.9639,2.9818,2.9913,2.9913,2.9913,2.9913,2.9913,2.9913,2.9913,2.9913,2.9913,2.9913,2.9913,2.9913,2.9913,2.9913,2.9913,2.9913,2.9913,2.9913,2.9913,2.9913,2.9913,2.9913,2.9913,2.9913,2.9913,2.9913,2.9913,2.9913,2.9913,2.9913,2.9913,2.9913,2.9913,2.9913,2.9913,2.9913,2.9913,2.9913,2.9913,2.9913,2.9913,2.9913,2.9913,2.9913,2.9913,2.9913,2.9913,2.9913,2.9913,2.9913,2.9913,2.9913,2.9913,2.9913,2.9913,2.9913,2.9913,2.9913,2.9913,2.9913,2.9913,2.9913,2.9913,2.9913,2.9913,2.9913,2.9913,2.9913,2.9913,2.9913,2.9913,2.9913,2.9913,2.9913,2.9913,2.9913,2.9913,2.9913,2.9913,2.9913,2.9913,2.9913,2.9913,2.9913,2.9913,2.9913,2.9913]}]]